Darstellungsparameter: Aktuell verwendete Einstellungen:
Skalierung der Graphiken ... ?
xyx+y,   Skalierungsfaktor:      Skalierung: Modus: x, Faktor: 1
Darstellungszeitraum ... ?
Vom - - bis: - -   Zeitraum: 30.11.2020 - 29.12.2020
Min/Max/Avg-Anzeige ... ?
Zeige MMA aktuell
Zeige MMA Monat
Zeige MMA alles
Zeige --A aktuell
Zeige --A Monat
Zeige --A alles
Keine MMA-Anzeige
MMA:
Minimum Maximum Average (ber die Originaldaten)
MMA-Basis: 30.11.2020 - 29.12.2020
Quicknavigation für Darstellung... ?
Tage:      1T, 2T, 3T, 5T -1T -2T -3T -5T +1T +2T +3T +5T
Wochen: 1W, 2W, 3W -1W -2W -3W +1W +2W +3W
Monate: 1M, 3M, 6M -1M -3M -6M +1M +3M +6M
Jahre:    1J, 3J, 5J, 10J -1J -3J -5J -10J +1J +3J +5J +10J
Nutze für die Darstellung ... ?
Originaldaten oder Mittelwerte auf ...
Stundenbasis Tagesbasis Wochenbasis
Monatsbasis Jahresbasis      Datenbasis: Original-Daten
Darstellen als:
Statistik (Auto) Statistik J:M      Darstellung:
Zur Graphik,    zurück zur Übersicht aller Sensoren.
 
Tabellarische Datenbersicht: ?
 
Sensor: Nr:Datum:Temp:Abs-Feuchte:Windchill:Wind:
Aussen-T/F 1 30-11-2020 00:00:00 -3.7 C 3.51 g/m*3 -3.7 C 0 km/h
2 30-11-2020 00:05:00 -3.7 C 3.51 g/m*3 -3.7 C 0 km/h
3 30-11-2020 00:10:00 -3.7 C 3.51 g/m*3 -3.7 C 0 km/h
4 30-11-2020 00:15:00 -3.8 C 3.49 g/m*3 -3.8 C 0 km/h
5 30-11-2020 00:20:00 -3.8 C 3.49 g/m*3 -3.8 C 0 km/h
6 30-11-2020 00:25:00 -3.9 C 3.46 g/m*3 -3.9 C 0 km/h
7 30-11-2020 00:30:00 -3.9 C 3.46 g/m*3 -3.9 C 0 km/h
8 30-11-2020 00:35:00 -3.9 C 3.46 g/m*3 -3.9 C 0 km/h
9 30-11-2020 00:40:00 -4 C 3.44 g/m*3 -4 C 0 km/h
10 30-11-2020 00:45:00 -4.1 C 3.41 g/m*3 -4.1 C 0 km/h
11 30-11-2020 00:50:00 -4.1 C 3.41 g/m*3 -4.1 C 0 km/h
12 30-11-2020 00:55:00 -4.2 C 3.39 g/m*3 -4.2 C 0 km/h
13 30-11-2020 01:00:00 -4.2 C 3.39 g/m*3 -4.2 C 0 km/h
14 30-11-2020 01:05:00 -4.2 C 3.39 g/m*3 -4.2 C 0 km/h
15 30-11-2020 01:10:00 -4.3 C 3.37 g/m*3 -4.3 C 0 km/h
16 30-11-2020 01:15:00 -4.3 C 3.37 g/m*3 -4.3 C 0 km/h
17 30-11-2020 01:20:00 -4.3 C 3.37 g/m*3 -4.3 C 0 km/h
18 30-11-2020 01:25:00 -4.3 C 3.37 g/m*3 -4.3 C 0 km/h
19 30-11-2020 01:30:00 -4.4 C 3.34 g/m*3 -4.4 C 0 km/h
20 30-11-2020 01:35:00 -4.4 C 3.34 g/m*3 -4.4 C 0 km/h
21 30-11-2020 01:40:00 -4.4 C 3.34 g/m*3 -4.4 C 0 km/h
22 30-11-2020 01:45:00 -4.4 C 3.34 g/m*3 -4.4 C 0 km/h
23 30-11-2020 01:50:00 -4.3 C 3.37 g/m*3 -4.3 C 0 km/h
24 30-11-2020 01:55:00 -4.2 C 3.39 g/m*3 -4.2 C 0 km/h
25 30-11-2020 02:00:00 -4.1 C 3.45 g/m*3 -4.1 C 0 km/h
Sensor: Nr:Datum:Temp:Abs-Feuchte:Windchill:Wind:
Aussen-T/F 26 30-11-2020 02:05:00 -4.2 C 3.43 g/m*3 -4.2 C 0 km/h
27 30-11-2020 02:10:00 -4.3 C 3.37 g/m*3 -4.3 C 0 km/h
28 30-11-2020 02:15:00 -4.4 C 3.34 g/m*3 -4.4 C 0 km/h
29 30-11-2020 02:20:00 -4.4 C 3.34 g/m*3 -4.4 C 0 km/h
30 30-11-2020 02:25:00 -4.6 C 3.29 g/m*3 -4.6 C 0 km/h
31 30-11-2020 02:30:00 -4.6 C 3.29 g/m*3 -4.6 C 0 km/h
32 30-11-2020 02:35:00 -4.7 C 3.27 g/m*3 -4.7 C 0 km/h
33 30-11-2020 02:40:00 -4.8 C 3.25 g/m*3 -4.8 C 0 km/h
34 30-11-2020 02:45:00 -4.8 C 3.25 g/m*3 -4.8 C 0 km/h
35 30-11-2020 02:50:00 -4.8 C 3.25 g/m*3 -4.8 C 0 km/h
36 30-11-2020 02:55:00 -4.9 C 3.22 g/m*3 -4.9 C 0 km/h
37 30-11-2020 03:00:00 -4.9 C 3.22 g/m*3 -4.9 C 0 km/h
38 30-11-2020 03:05:00 -4.9 C 3.22 g/m*3 -4.9 C 0 km/h
39 30-11-2020 03:10:00 -4.9 C 3.22 g/m*3 -4.9 C 0 km/h
40 30-11-2020 03:15:00 -4.9 C 3.22 g/m*3 -4.9 C 0 km/h
41 30-11-2020 03:20:00 -4.9 C 3.22 g/m*3 -4.9 C 0 km/h
42 30-11-2020 03:25:00 -4.8 C 3.25 g/m*3 -4.8 C 0 km/h
43 30-11-2020 03:30:00 -4.8 C 3.25 g/m*3 -4.8 C 0 km/h
44 30-11-2020 03:35:00 -4.8 C 3.25 g/m*3 -4.8 C 0 km/h
45 30-11-2020 03:40:00 -4.9 C 3.22 g/m*3 -4.9 C 0 km/h
46 30-11-2020 03:45:00 -4.9 C 3.22 g/m*3 -4.9 C 0 km/h
47 30-11-2020 03:50:00 -5 C 3.2 g/m*3 -5 C 0 km/h
48 30-11-2020 03:55:00 -5.1 C 3.18 g/m*3 -5.1 C 0 km/h
49 30-11-2020 04:00:00 -5.1 C 3.18 g/m*3 -5.1 C 0 km/h
50 30-11-2020 04:05:00 -5.2 C 3.15 g/m*3 -5.2 C 0 km/h
Sensor: Nr:Datum:Temp:Abs-Feuchte:Windchill:Wind:
Aussen-T/F 51 30-11-2020 04:10:00 -5.2 C 3.15 g/m*3 -5.2 C 0 km/h
52 30-11-2020 04:15:00 -5.2 C 3.15 g/m*3 -5.2 C 0 km/h
53 30-11-2020 04:20:00 -5.3 C 3.13 g/m*3 -5.3 C 0 km/h
54 30-11-2020 04:25:00 -5.3 C 3.13 g/m*3 -5.3 C 0 km/h
55 30-11-2020 04:30:00 -5.3 C 3.13 g/m*3 -5.3 C 0 km/h
56 30-11-2020 04:35:00 -5.3 C 3.13 g/m*3 -5.3 C 0 km/h
57 30-11-2020 04:40:00 -5.3 C 3.13 g/m*3 -5.3 C 0 km/h
58 30-11-2020 04:45:00 -5.3 C 3.13 g/m*3 -5.3 C 0 km/h
59 30-11-2020 04:50:00 -5.2 C 3.15 g/m*3 -5.2 C 0 km/h
60 30-11-2020 04:55:00 -5.2 C 3.15 g/m*3 -5.2 C 0 km/h
61 30-11-2020 05:00:00 -5.2 C 3.15 g/m*3 -5.2 C 0 km/h
62 30-11-2020 05:05:00 -5.3 C 3.13 g/m*3 -5.3 C 0 km/h
63 30-11-2020 05:10:00 -5.3 C 3.13 g/m*3 -5.3 C 0 km/h
64 30-11-2020 05:15:00 -5.4 C 3.11 g/m*3 -5.4 C 0 km/h
65 30-11-2020 05:20:00 -5.4 C 3.11 g/m*3 -5.4 C 0 km/h
66 30-11-2020 05:25:00 -5.5 C 3.09 g/m*3 -5.5 C 0 km/h
67 30-11-2020 05:30:00 -5.6 C 3.06 g/m*3 -5.6 C 0 km/h
68 30-11-2020 05:35:00 -5.5 C 3.09 g/m*3 -5.5 C 0 km/h
69 30-11-2020 05:40:00 -5.4 C 3.11 g/m*3 -5.4 C 0 km/h
70 30-11-2020 05:45:00 -5.3 C 3.17 g/m*3 -5.3 C 0 km/h
71 30-11-2020 05:50:00 -5.2 C 3.19 g/m*3 -5.2 C 0 km/h
72 30-11-2020 05:55:00 -5.2 C 3.19 g/m*3 -5.2 C 0 km/h
73 30-11-2020 06:00:00 -5.2 C 3.19 g/m*3 -5.2 C 0 km/h
74 30-11-2020 06:05:00 -5.2 C 3.19 g/m*3 -5.2 C 0 km/h
75 30-11-2020 06:10:00 -5.1 C 3.21 g/m*3 -5.1 C 0 km/h
Sensor: Nr:Datum:Temp:Abs-Feuchte:Windchill:Wind:
Aussen-T/F 76 30-11-2020 06:15:00 -5.1 C 3.21 g/m*3 -5.1 C 0 km/h
77 30-11-2020 06:20:00 -5.1 C 3.21 g/m*3 -5.1 C 0 km/h
78 30-11-2020 06:25:00 -5.1 C 3.21 g/m*3 -5.1 C 0 km/h
79 30-11-2020 06:30:00 -5.2 C 3.15 g/m*3 -5.2 C 0 km/h
80 30-11-2020 06:35:00 -5.3 C 3.13 g/m*3 -5.3 C 0 km/h
81 30-11-2020 06:40:00 -5.4 C 3.11 g/m*3 -5.4 C 0 km/h
82 30-11-2020 06:45:00 -5.4 C 3.11 g/m*3 -5.4 C 3.2 km/h
83 30-11-2020 06:50:00 -5.3 C 3.17 g/m*3 -5.3 C 0 km/h
84 30-11-2020 06:55:00 -5.2 C 3.19 g/m*3 -5.2 C 0 km/h
85 30-11-2020 07:00:00 -5.1 C 3.21 g/m*3 -5.1 C 0 km/h
86 30-11-2020 07:05:00 -5.1 C 3.21 g/m*3 -5.1 C 0 km/h
87 30-11-2020 07:10:00 -5 C 3.23 g/m*3 -5 C 0 km/h
88 30-11-2020 07:15:00 -4.9 C 3.26 g/m*3 -4.9 C 1.6 km/h
89 30-11-2020 07:20:00 -4.9 C 3.26 g/m*3 -4.9 C 0 km/h
90 30-11-2020 07:25:00 -4.9 C 3.26 g/m*3 -4.9 C 0 km/h
91 30-11-2020 07:30:00 -5 C 3.23 g/m*3 -5 C 0 km/h
92 30-11-2020 07:35:00 -5.1 C 3.21 g/m*3 -5.1 C 0 km/h
93 30-11-2020 07:40:00 -5.2 C 3.15 g/m*3 -5.2 C 0 km/h
94 30-11-2020 07:45:00 -5.3 C 3.13 g/m*3 -5.3 C 0 km/h
95 30-11-2020 07:50:00 -5.4 C 3.11 g/m*3 -5.4 C 0 km/h
96 30-11-2020 07:55:00 -5.6 C 3.06 g/m*3 -5.6 C 0 km/h
97 30-11-2020 08:00:00 -5.7 C 3.04 g/m*3 -5.7 C 1.6 km/h
98 30-11-2020 08:05:00 -5.8 C 3.02 g/m*3 -5.8 C 0 km/h
99 30-11-2020 08:10:00 -5.8 C 3.02 g/m*3 -5.8 C 1.6 km/h
100 30-11-2020 08:15:00 -5.8 C 3.02 g/m*3 -5.8 C 0 km/h
Sensor: Nr:Datum:Temp:Abs-Feuchte:Windchill:Wind:
Aussen-T/F 101 30-11-2020 08:20:00 -5.8 C 3.02 g/m*3 -5.8 C 0 km/h
102 30-11-2020 08:25:00 -5.7 C 3.04 g/m*3 -5.7 C 1.6 km/h
103 30-11-2020 08:30:00 -5.7 C 3.04 g/m*3 -5.7 C 0 km/h
104 30-11-2020 08:35:00 -5.7 C 3.04 g/m*3 -5.7 C 0 km/h
105 30-11-2020 08:40:00 -5.8 C 3.02 g/m*3 -5.8 C 0 km/h
106 30-11-2020 08:45:00 -5.8 C 3.02 g/m*3 -5.8 C 0 km/h
107 30-11-2020 08:50:00 -5.8 C 3.02 g/m*3 -5.8 C 0 km/h
108 30-11-2020 08:55:00 -5.8 C 3.02 g/m*3 -5.8 C 0 km/h
109 30-11-2020 09:00:00 -5.8 C 3.02 g/m*3 -5.8 C 0 km/h
110 30-11-2020 09:05:00 -5.7 C 3.07 g/m*3 -5.7 C 0 km/h
111 30-11-2020 09:10:00 -5.6 C 3.1 g/m*3 -5.6 C 1.6 km/h
112 30-11-2020 09:15:00 -5.5 C 3.12 g/m*3 -5.5 C 0 km/h
113 30-11-2020 09:20:00 -5.4 C 3.11 g/m*3 -5.4 C 0 km/h
114 30-11-2020 09:25:00 -5.4 C 3.11 g/m*3 -5.4 C 0 km/h
115 30-11-2020 09:30:00 -5.4 C 3.11 g/m*3 -5.4 C 0 km/h
116 30-11-2020 09:35:00 -5.4 C 3.14 g/m*3 -5.4 C 0 km/h
117 30-11-2020 09:40:00 -5.4 C 3.14 g/m*3 -5.4 C 0 km/h
118 30-11-2020 09:45:00 -5.3 C 3.17 g/m*3 -5.3 C 0 km/h
119 30-11-2020 09:50:00 -5.3 C 3.17 g/m*3 -5.3 C 0 km/h
120 30-11-2020 09:55:00 -5.3 C 3.17 g/m*3 -5.3 C 0 km/h
121 30-11-2020 10:00:00 -5.2 C 3.19 g/m*3 -5.2 C 0 km/h
122 30-11-2020 10:05:00 -5.2 C 3.19 g/m*3 -5.2 C 0 km/h
123 30-11-2020 10:10:00 -5.1 C 3.21 g/m*3 -5.1 C 1.6 km/h
124 30-11-2020 10:15:00 -5.1 C 3.21 g/m*3 -5.1 C 0 km/h
125 30-11-2020 10:20:00 -5 C 3.23 g/m*3 -5 C 3.2 km/h
Sensor: Nr:Datum:Temp:Abs-Feuchte:Windchill:Wind:
Aussen-T/F 126 30-11-2020 10:25:00 -4.9 C 3.26 g/m*3 -4.9 C 1.6 km/h
127 30-11-2020 10:30:00 -4.8 C 3.28 g/m*3 -4.8 C 0 km/h
128 30-11-2020 10:35:00 -4.7 C 3.31 g/m*3 -4.7 C 0 km/h
129 30-11-2020 10:40:00 -4.6 C 3.33 g/m*3 -4.6 C 0 km/h
130 30-11-2020 10:45:00 -4.5 C 3.35 g/m*3 -4.5 C 0 km/h
131 30-11-2020 10:50:00 -4.4 C 3.38 g/m*3 -4.4 C 0 km/h
132 30-11-2020 10:55:00 -4.3 C 3.4 g/m*3 -4.3 C 0 km/h
133 30-11-2020 11:00:00 -4.3 C 3.4 g/m*3 -4.3 C 1.6 km/h
134 30-11-2020 11:05:00 -4.2 C 3.43 g/m*3 -4.2 C 0 km/h
135 30-11-2020 11:10:00 -4.1 C 3.45 g/m*3 -4.1 C 0 km/h
136 30-11-2020 11:15:00 -3.9 C 3.5 g/m*3 -3.9 C 0 km/h
137 30-11-2020 11:20:00 -3.8 C 3.53 g/m*3 -3.8 C 0 km/h
138 30-11-2020 11:25:00 -3.7 C 3.55 g/m*3 -3.7 C 0 km/h
139 30-11-2020 11:30:00 -3.6 C 3.58 g/m*3 -3.6 C 3.2 km/h
140 30-11-2020 11:35:00 -3.5 C 3.6 g/m*3 -3.5 C 3.2 km/h
141 30-11-2020 11:40:00 -3.3 C 3.65 g/m*3 -3.3 C 3.2 km/h
142 30-11-2020 11:45:00 -3.2 C 3.68 g/m*3 -3.2 C 3.2 km/h
143 30-11-2020 11:50:00 -3.2 C 3.72 g/m*3 -3.2 C 0 km/h
144 30-11-2020 11:55:00 -3.1 C 3.71 g/m*3 -3.1 C 0 km/h
145 30-11-2020 12:00:00 -2.9 C 3.76 g/m*3 -2.9 C 3.2 km/h
146 30-11-2020 12:05:00 -2.9 C 3.8 g/m*3 -2.9 C 1.6 km/h
147 30-11-2020 12:10:00 -2.8 C 3.82 g/m*3 -2.8 C 0 km/h
148 30-11-2020 12:15:00 -2.8 C 3.78 g/m*3 -2.8 C 0 km/h
149 30-11-2020 12:20:00 -2.7 C 3.81 g/m*3 -2.7 C 0 km/h
150 30-11-2020 12:25:00 -2.6 C 3.84 g/m*3 -2.6 C 3.2 km/h
Sensor: Nr:Datum:Temp:Abs-Feuchte:Windchill:Wind:
Aussen-T/F 151 30-11-2020 12:30:00 -2.4 C 3.93 g/m*3 -2.4 C 1.6 km/h
152 30-11-2020 12:35:00 -2.3 C 3.96 g/m*3 -2.3 C 4.8 km/h
153 30-11-2020 12:40:00 -2.1 C 4.02 g/m*3 -2.1 C 0 km/h
154 30-11-2020 12:45:00 -1.8 C 4.1 g/m*3 -1.8 C 3.2 km/h
155 30-11-2020 12:50:00 -1.5 C 4.19 g/m*3 -1.5 C 0 km/h
156 30-11-2020 12:55:00 -1.2 C 4.28 g/m*3 -1.2 C 3.2 km/h
157 30-11-2020 13:00:00 -0.9 C 4.37 g/m*3 -3.22 C 6.4 km/h
158 30-11-2020 13:05:00 -0.7 C 4.43 g/m*3 -2.99 C 6.4 km/h
159 30-11-2020 13:10:00 -0.5 C 4.49 g/m*3 -0.5 C 1.6 km/h
160 30-11-2020 13:15:00 -0.3 C 4.56 g/m*3 -0.3 C 0 km/h
161 30-11-2020 13:20:00 -0.2 C 4.59 g/m*3 -0.2 C 0 km/h
162 30-11-2020 13:25:00 -0.1 C 4.62 g/m*3 -0.1 C 4.8 km/h
163 30-11-2020 13:30:00 0.1 C 4.68 g/m*3 0.1 C 4.8 km/h
164 30-11-2020 13:35:00 0.2 C 4.72 g/m*3 0.2 C 3.2 km/h
165 30-11-2020 13:40:00 0.4 C 4.78 g/m*3 0.4 C 3.2 km/h
166 30-11-2020 13:45:00 0.5 C 4.86 g/m*3 0.5 C 0 km/h
167 30-11-2020 13:50:00 0.7 C 4.88 g/m*3 0.7 C 1.6 km/h
168 30-11-2020 13:55:00 0.9 C 5 g/m*3 -2.16 C 9.7 km/h
169 30-11-2020 14:00:00 1.1 C 5.02 g/m*3 1.1 C 1.6 km/h
170 30-11-2020 14:05:00 1.3 C 5.14 g/m*3 1.3 C 4.8 km/h
171 30-11-2020 14:10:00 1.6 C 5.25 g/m*3 -1.33 C 9.7 km/h
172 30-11-2020 14:15:00 1.8 C 5.26 g/m*3 1.8 C 4.8 km/h
173 30-11-2020 14:20:00 2 C 5.28 g/m*3 2 C 0 km/h
174 30-11-2020 14:25:00 2.1 C 5.26 g/m*3 -0.73 C 9.7 km/h
175 30-11-2020 14:30:00 2.2 C 5.24 g/m*3 2.2 C 1.6 km/h
Sensor: Nr:Datum:Temp:Abs-Feuchte:Windchill:Wind:
Aussen-T/F 176 30-11-2020 14:35:00 2.3 C 5.27 g/m*3 2.3 C 3.2 km/h
177 30-11-2020 14:40:00 2.4 C 5.25 g/m*3 2.4 C 0 km/h
178 30-11-2020 14:45:00 2.4 C 5.25 g/m*3 2.4 C 4.8 km/h
179 30-11-2020 14:50:00 2.5 C 5.23 g/m*3 2.5 C 4.8 km/h
180 30-11-2020 14:55:00 2.5 C 5.17 g/m*3 2.5 C 1.6 km/h
181 30-11-2020 15:00:00 2.4 C 5.14 g/m*3 2.4 C 1.6 km/h
182 30-11-2020 15:05:00 2.3 C 5.05 g/m*3 2.3 C 1.6 km/h
183 30-11-2020 15:10:00 2.2 C 5.07 g/m*3 2.2 C 0 km/h
184 30-11-2020 15:15:00 2 C 4.95 g/m*3 2 C 3.2 km/h
185 30-11-2020 15:20:00 2 C 4.95 g/m*3 2 C 1.6 km/h
186 30-11-2020 15:25:00 2.1 C 4.98 g/m*3 2.1 C 1.6 km/h
187 30-11-2020 15:30:00 2.1 C 4.98 g/m*3 2.1 C 4.8 km/h
188 30-11-2020 15:35:00 2.2 C 4.96 g/m*3 -0.18 C 8.1 km/h
189 30-11-2020 15:40:00 2.3 C 4.93 g/m*3 2.3 C 4.8 km/h
190 30-11-2020 15:45:00 2.4 C 4.97 g/m*3 2.4 C 4.8 km/h
191 30-11-2020 15:50:00 2.5 C 4.94 g/m*3 0.17 C 8.1 km/h
192 30-11-2020 15:55:00 2.6 C 4.92 g/m*3 0.82 C 6.4 km/h
193 30-11-2020 16:00:00 2.7 C 4.89 g/m*3 -0.38 C 11.3 km/h
194 30-11-2020 16:05:00 2.8 C 4.93 g/m*3 -0.26 C 11.3 km/h
195 30-11-2020 16:10:00 2.9 C 4.9 g/m*3 -0.76 C 14.5 km/h
196 30-11-2020 16:15:00 3 C 4.93 g/m*3 -0.63 C 14.5 km/h
197 30-11-2020 16:20:00 3 C 4.93 g/m*3 0.34 C 9.7 km/h
198 30-11-2020 16:25:00 3 C 4.93 g/m*3 -0.02 C 11.3 km/h
199 30-11-2020 16:30:00 3 C 4.93 g/m*3 0.34 C 9.7 km/h
200 30-11-2020 16:35:00 3 C 4.93 g/m*3 -0.02 C 11.3 km/h
Sensor: Nr:Datum:Temp:Abs-Feuchte:Windchill:Wind:
Aussen-T/F 201 30-11-2020 16:40:00 2.9 C 4.9 g/m*3 0.64 C 8.1 km/h
202 30-11-2020 16:45:00 2.9 C 4.9 g/m*3 2.9 C 4.8 km/h
203 30-11-2020 16:50:00 2.8 C 4.87 g/m*3 2.8 C 4.8 km/h
204 30-11-2020 16:55:00 2.8 C 4.87 g/m*3 2.8 C 4.8 km/h
205 30-11-2020 17:00:00 2.8 C 4.87 g/m*3 1.05 C 6.4 km/h
206 30-11-2020 17:05:00 2.7 C 4.84 g/m*3 2.7 C 4.8 km/h
207 30-11-2020 17:10:00 2.7 C 4.84 g/m*3 0.4 C 8.1 km/h
208 30-11-2020 17:15:00 2.8 C 4.87 g/m*3 0.1 C 9.7 km/h
209 30-11-2020 17:20:00 2.8 C 4.87 g/m*3 -0.26 C 11.3 km/h
210 30-11-2020 17:25:00 2.8 C 4.87 g/m*3 0.52 C 8.1 km/h
211 30-11-2020 17:30:00 2.8 C 4.87 g/m*3 -0.26 C 11.3 km/h
212 30-11-2020 17:35:00 2.9 C 4.9 g/m*3 0.64 C 8.1 km/h
213 30-11-2020 17:40:00 2.9 C 4.9 g/m*3 0.22 C 9.7 km/h
214 30-11-2020 17:45:00 2.9 C 4.9 g/m*3 -0.14 C 11.3 km/h
215 30-11-2020 17:50:00 2.9 C 4.9 g/m*3 1.17 C 6.4 km/h
216 30-11-2020 17:55:00 2.9 C 4.9 g/m*3 0.22 C 9.7 km/h
217 30-11-2020 18:00:00 2.9 C 4.9 g/m*3 1.17 C 6.4 km/h
218 30-11-2020 18:05:00 2.9 C 4.9 g/m*3 -0.76 C 14.5 km/h
219 30-11-2020 18:10:00 3 C 4.93 g/m*3 -1.36 C 19.3 km/h
220 30-11-2020 18:15:00 3.1 C 4.91 g/m*3 0.1 C 11.3 km/h
221 30-11-2020 18:20:00 3.1 C 4.91 g/m*3 -0.51 C 14.5 km/h
222 30-11-2020 18:25:00 3.2 C 4.94 g/m*3 0.58 C 9.7 km/h
223 30-11-2020 18:30:00 3.2 C 4.94 g/m*3 -0.89 C 17.7 km/h
224 30-11-2020 18:35:00 3.2 C 4.94 g/m*3 -0.65 C 16.1 km/h
225 30-11-2020 18:40:00 3.1 C 4.91 g/m*3 -0.77 C 16.1 km/h
Sensor: Nr:Datum:Temp:Abs-Feuchte:Windchill:Wind:
Aussen-T/F 226 30-11-2020 18:45:00 3.1 C 4.91 g/m*3 -0.77 C 16.1 km/h
227 30-11-2020 18:50:00 3.1 C 4.97 g/m*3 -0.51 C 14.5 km/h
228 30-11-2020 18:55:00 3 C 4.99 g/m*3 -1.14 C 17.7 km/h
229 30-11-2020 19:00:00 2.9 C 5.02 g/m*3 -0.76 C 14.5 km/h
230 30-11-2020 19:05:00 2.8 C 5.04 g/m*3 -0.59 C 12.9 km/h
231 30-11-2020 19:10:00 2.7 C 5.01 g/m*3 -0.02 C 9.7 km/h
232 30-11-2020 19:15:00 2.7 C 5.07 g/m*3 -0.71 C 12.9 km/h
233 30-11-2020 19:20:00 2.7 C 5.07 g/m*3 -0.02 C 9.7 km/h
234 30-11-2020 19:25:00 2.6 C 5.09 g/m*3 -1.12 C 14.5 km/h
235 30-11-2020 19:30:00 2.6 C 5.15 g/m*3 0.29 C 8.1 km/h
236 30-11-2020 19:35:00 2.5 C 5.12 g/m*3 -0.95 C 12.9 km/h
237 30-11-2020 19:40:00 2.4 C 5.14 g/m*3 -0.74 C 11.3 km/h
238 30-11-2020 19:45:00 2.4 C 5.14 g/m*3 0.59 C 6.4 km/h
239 30-11-2020 19:50:00 2.3 C 5.1 g/m*3 -0.87 C 11.3 km/h
240 30-11-2020 19:55:00 2.3 C 5.16 g/m*3 -0.87 C 11.3 km/h
241 30-11-2020 20:00:00 2.3 C 5.16 g/m*3 2.3 C 4.8 km/h
242 30-11-2020 20:05:00 2.2 C 5.13 g/m*3 -1.89 C 16.1 km/h
243 30-11-2020 20:10:00 2.2 C 5.13 g/m*3 -1.32 C 12.9 km/h
244 30-11-2020 20:15:00 2.2 C 5.18 g/m*3 -2.37 C 19.3 km/h
245 30-11-2020 20:20:00 2.1 C 5.15 g/m*3 -1.44 C 12.9 km/h
246 30-11-2020 20:25:00 2.1 C 5.15 g/m*3 -1.44 C 12.9 km/h
247 30-11-2020 20:30:00 2.1 C 5.15 g/m*3 -1.74 C 14.5 km/h
248 30-11-2020 20:35:00 2.1 C 5.15 g/m*3 -1.11 C 11.3 km/h
249 30-11-2020 20:40:00 2 C 5.17 g/m*3 -1.86 C 14.5 km/h
250 30-11-2020 20:45:00 2 C 5.17 g/m*3 -2.14 C 16.1 km/h
Sensor: Nr:Datum:Temp:Abs-Feuchte:Windchill:Wind:
Aussen-T/F 251 30-11-2020 20:50:00 2 C 5.17 g/m*3 -1.56 C 12.9 km/h
252 30-11-2020 20:55:00 2 C 5.17 g/m*3 -1.23 C 11.3 km/h
253 30-11-2020 21:00:00 2 C 5.17 g/m*3 -1.56 C 12.9 km/h
254 30-11-2020 21:05:00 1.9 C 5.13 g/m*3 -0.97 C 9.7 km/h
255 30-11-2020 21:10:00 1.9 C 5.13 g/m*3 -0.97 C 9.7 km/h
256 30-11-2020 21:15:00 1.9 C 5.19 g/m*3 -1.35 C 11.3 km/h
257 30-11-2020 21:20:00 1.9 C 5.19 g/m*3 -0.54 C 8.1 km/h
258 30-11-2020 21:25:00 1.9 C 5.19 g/m*3 -0.97 C 9.7 km/h
259 30-11-2020 21:30:00 1.9 C 5.19 g/m*3 -0.54 C 8.1 km/h
260 30-11-2020 21:35:00 1.9 C 5.19 g/m*3 0.01 C 6.4 km/h
261 30-11-2020 21:40:00 1.9 C 5.19 g/m*3 1.9 C 4.8 km/h
262 30-11-2020 21:45:00 1.9 C 5.19 g/m*3 1.9 C 3.2 km/h
263 30-11-2020 21:50:00 1.9 C 5.19 g/m*3 1.9 C 0 km/h
264 30-11-2020 21:55:00 1.9 C 5.19 g/m*3 1.9 C 1.6 km/h
265 30-11-2020 22:00:00 1.9 C 5.19 g/m*3 1.9 C 3.2 km/h
266 30-11-2020 22:05:00 1.9 C 5.19 g/m*3 1.9 C 1.6 km/h
267 30-11-2020 22:10:00 1.9 C 5.19 g/m*3 1.9 C 4.8 km/h
268 30-11-2020 22:15:00 1.9 C 5.24 g/m*3 1.9 C 4.8 km/h
269 30-11-2020 22:20:00 1.9 C 5.24 g/m*3 1.9 C 3.2 km/h
270 30-11-2020 22:25:00 1.9 C 5.24 g/m*3 1.9 C 3.2 km/h
271 30-11-2020 22:30:00 1.9 C 5.24 g/m*3 1.9 C 4.8 km/h
272 30-11-2020 22:35:00 1.9 C 5.24 g/m*3 1.9 C 1.6 km/h
273 30-11-2020 22:40:00 1.9 C 5.24 g/m*3 -0.54 C 8.1 km/h
274 30-11-2020 22:45:00 1.9 C 5.24 g/m*3 1.9 C 4.8 km/h
275 30-11-2020 22:50:00 1.9 C 5.24 g/m*3 -0.54 C 8.1 km/h
Sensor: Nr:Datum:Temp:Abs-Feuchte:Windchill:Wind:
Aussen-T/F 276 30-11-2020 22:55:00 1.8 C 5.15 g/m*3 -1.09 C 9.7 km/h
277 30-11-2020 23:00:00 1.8 C 5.15 g/m*3 -2.11 C 14.5 km/h
278 30-11-2020 23:05:00 1.8 C 5.15 g/m*3 -1.09 C 9.7 km/h
279 30-11-2020 23:10:00 1.7 C 5.12 g/m*3 -1.93 C 12.9 km/h
280 30-11-2020 23:15:00 1.7 C 5.17 g/m*3 -3.22 C 20.9 km/h
281 30-11-2020 23:20:00 1.7 C 5.17 g/m*3 -3.22 C 20.9 km/h
282 30-11-2020 23:25:00 1.6 C 5.14 g/m*3 -1.33 C 9.7 km/h
283 30-11-2020 23:30:00 1.5 C 5.05 g/m*3 -0.45 C 6.4 km/h
284 30-11-2020 23:35:00 1.5 C 5.05 g/m*3 -0.45 C 6.4 km/h
285 30-11-2020 23:40:00 1.4 C 5.07 g/m*3 -2.29 C 12.9 km/h
286 30-11-2020 23:45:00 1.4 C 5.07 g/m*3 -1.57 C 9.7 km/h
287 30-11-2020 23:50:00 1.4 C 5.07 g/m*3 -2.6 C 14.5 km/h
288 30-11-2020 23:55:00 1.4 C 5.07 g/m*3 -1.12 C 8.1 km/h
289 01-12-2020 00:00:00 1.3 C 5.03 g/m*3 -2.72 C 14.5 km/h
290 01-12-2020 00:05:00 1.3 C 5.03 g/m*3 -2.41 C 12.9 km/h
291 01-12-2020 00:10:00 1.3 C 5.03 g/m*3 -1.69 C 9.7 km/h
292 01-12-2020 00:15:00 1.3 C 5.03 g/m*3 -2.07 C 11.3 km/h
293 01-12-2020 00:20:00 1.3 C 5.03 g/m*3 -1.69 C 9.7 km/h
294 01-12-2020 00:25:00 1.2 C 5 g/m*3 -0.8 C 6.4 km/h
295 01-12-2020 00:30:00 1.2 C 5 g/m*3 -1.8 C 9.7 km/h
296 01-12-2020 00:35:00 1.2 C 5 g/m*3 -1.36 C 8.1 km/h
297 01-12-2020 00:40:00 1.2 C 5 g/m*3 -2.19 C 11.3 km/h
298 01-12-2020 00:45:00 1.2 C 5 g/m*3 -3.39 C 17.7 km/h
299 01-12-2020 00:50:00 1.3 C 5.03 g/m*3 -2.72 C 14.5 km/h
300 01-12-2020 00:55:00 1.3 C 5.03 g/m*3 -1.69 C 9.7 km/h
Sensor: Nr:Datum:Temp:Abs-Feuchte:Windchill:Wind:
Aussen-T/F 301 01-12-2020 01:00:00 1.3 C 5.03 g/m*3 -2.07 C 11.3 km/h
302 01-12-2020 01:05:00 1.3 C 5.03 g/m*3 -2.07 C 11.3 km/h
303 01-12-2020 01:10:00 1.3 C 5.03 g/m*3 -2.07 C 11.3 km/h
304 01-12-2020 01:15:00 1.4 C 5.07 g/m*3 -2.88 C 16.1 km/h
305 01-12-2020 01:20:00 1.4 C 5.07 g/m*3 -1.57 C 9.7 km/h
306 01-12-2020 01:25:00 1.4 C 5.07 g/m*3 -0.56 C 6.4 km/h
307 01-12-2020 01:30:00 1.4 C 5.07 g/m*3 -1.57 C 9.7 km/h
308 01-12-2020 01:35:00 1.4 C 5.07 g/m*3 -0.56 C 6.4 km/h
309 01-12-2020 01:40:00 1.4 C 5.07 g/m*3 1.4 C 1.6 km/h
310 01-12-2020 01:45:00 1.4 C 5.07 g/m*3 -1.57 C 9.7 km/h
311 01-12-2020 01:50:00 1.4 C 5.07 g/m*3 -1.95 C 11.3 km/h
312 01-12-2020 01:55:00 1.4 C 5.07 g/m*3 -1.95 C 11.3 km/h
313 01-12-2020 02:00:00 1.4 C 5.07 g/m*3 1.4 C 4.8 km/h
314 01-12-2020 02:05:00 1.4 C 5.07 g/m*3 -2.29 C 12.9 km/h
315 01-12-2020 02:10:00 1.5 C 5.1 g/m*3 -0.45 C 6.4 km/h
316 01-12-2020 02:15:00 1.5 C 5.1 g/m*3 -2.17 C 12.9 km/h
317 01-12-2020 02:20:00 1.6 C 5.14 g/m*3 -2.63 C 16.1 km/h
318 01-12-2020 02:25:00 1.5 C 5.1 g/m*3 1.5 C 3.2 km/h
319 01-12-2020 02:30:00 1.5 C 5.1 g/m*3 1.5 C 3.2 km/h
320 01-12-2020 02:35:00 1.5 C 5.1 g/m*3 1.5 C 4.8 km/h
321 01-12-2020 02:40:00 1.5 C 5.1 g/m*3 -1.01 C 8.1 km/h
322 01-12-2020 02:45:00 1.5 C 5.1 g/m*3 1.5 C 3.2 km/h
323 01-12-2020 02:50:00 1.5 C 5.1 g/m*3 1.5 C 4.8 km/h
324 01-12-2020 02:55:00 1.5 C 5.1 g/m*3 -3.25 C 19.3 km/h
325 01-12-2020 03:00:00 1.5 C 5.1 g/m*3 -1.45 C 9.7 km/h
Sensor: Nr:Datum:Temp:Abs-Feuchte:Windchill:Wind:
Aussen-T/F 326 01-12-2020 03:05:00 1.5 C 5.1 g/m*3 -2.76 C 16.1 km/h
327 01-12-2020 03:10:00 1.5 C 5.1 g/m*3 -1.01 C 8.1 km/h
328 01-12-2020 03:15:00 1.6 C 5.14 g/m*3 -2.05 C 12.9 km/h
329 01-12-2020 03:20:00 1.6 C 5.14 g/m*3 -2.05 C 12.9 km/h
330 01-12-2020 03:25:00 1.6 C 5.14 g/m*3 -2.05 C 12.9 km/h
331 01-12-2020 03:30:00 1.6 C 5.14 g/m*3 -1.71 C 11.3 km/h
332 01-12-2020 03:35:00 1.7 C 5.17 g/m*3 -1.21 C 9.7 km/h
333 01-12-2020 03:40:00 1.7 C 5.17 g/m*3 -1.59 C 11.3 km/h
334 01-12-2020 03:45:00 1.7 C 5.17 g/m*3 -1.59 C 11.3 km/h
335 01-12-2020 03:50:00 1.7 C 5.17 g/m*3 -1.93 C 12.9 km/h
336 01-12-2020 03:55:00 1.7 C 5.17 g/m*3 -1.59 C 11.3 km/h
337 01-12-2020 04:00:00 1.7 C 5.17 g/m*3 -1.59 C 11.3 km/h
338 01-12-2020 04:05:00 1.7 C 5.17 g/m*3 -0.22 C 6.4 km/h
339 01-12-2020 04:10:00 1.7 C 5.17 g/m*3 -1.93 C 12.9 km/h
340 01-12-2020 04:15:00 1.7 C 5.17 g/m*3 -0.77 C 8.1 km/h
341 01-12-2020 04:20:00 1.7 C 5.17 g/m*3 -1.21 C 9.7 km/h
342 01-12-2020 04:25:00 1.7 C 5.17 g/m*3 -1.59 C 11.3 km/h
343 01-12-2020 04:30:00 1.7 C 5.17 g/m*3 -2.23 C 14.5 km/h
344 01-12-2020 04:35:00 1.8 C 5.21 g/m*3 -1.47 C 11.3 km/h
345 01-12-2020 04:40:00 1.7 C 5.17 g/m*3 -1.59 C 11.3 km/h
346 01-12-2020 04:45:00 1.8 C 5.21 g/m*3 -1.09 C 9.7 km/h
347 01-12-2020 04:50:00 1.8 C 5.21 g/m*3 -0.65 C 8.1 km/h
348 01-12-2020 04:55:00 1.8 C 5.21 g/m*3 -1.09 C 9.7 km/h
349 01-12-2020 05:00:00 1.8 C 5.21 g/m*3 1.8 C 3.2 km/h
350 01-12-2020 05:05:00 1.8 C 5.21 g/m*3 -0.1 C 6.4 km/h
Sensor: Nr:Datum:Temp:Abs-Feuchte:Windchill:Wind:
Aussen-T/F 351 01-12-2020 05:10:00 1.8 C 5.21 g/m*3 1.8 C 4.8 km/h
352 01-12-2020 05:15:00 1.8 C 5.21 g/m*3 1.8 C 4.8 km/h
353 01-12-2020 05:20:00 1.8 C 5.21 g/m*3 -1.47 C 11.3 km/h
354 01-12-2020 05:25:00 1.8 C 5.21 g/m*3 -1.09 C 9.7 km/h
355 01-12-2020 05:30:00 1.8 C 5.21 g/m*3 -0.1 C 6.4 km/h
356 01-12-2020 05:35:00 1.8 C 5.21 g/m*3 -1.09 C 9.7 km/h
357 01-12-2020 05:40:00 1.8 C 5.21 g/m*3 -0.65 C 8.1 km/h
358 01-12-2020 05:45:00 1.8 C 5.21 g/m*3 -1.47 C 11.3 km/h
359 01-12-2020 05:50:00 1.9 C 5.24 g/m*3 0.01 C 6.4 km/h
360 01-12-2020 05:55:00 1.9 C 5.24 g/m*3 1.9 C 4.8 km/h
361 01-12-2020 06:00:00 1.9 C 5.24 g/m*3 -0.54 C 8.1 km/h
362 01-12-2020 06:05:00 1.9 C 5.24 g/m*3 -1.68 C 12.9 km/h
363 01-12-2020 06:10:00 1.9 C 5.24 g/m*3 0.01 C 6.4 km/h
364 01-12-2020 06:15:00 1.9 C 5.24 g/m*3 -0.54 C 8.1 km/h
365 01-12-2020 06:20:00 1.9 C 5.24 g/m*3 -1.35 C 11.3 km/h
366 01-12-2020 06:25:00 1.9 C 5.24 g/m*3 -0.54 C 8.1 km/h
367 01-12-2020 06:30:00 2 C 5.28 g/m*3 -1.56 C 12.9 km/h
368 01-12-2020 06:35:00 2.1 C 5.31 g/m*3 0.24 C 6.4 km/h
369 01-12-2020 06:40:00 2.1 C 5.31 g/m*3 2.1 C 4.8 km/h
370 01-12-2020 06:45:00 2.1 C 5.31 g/m*3 0.24 C 6.4 km/h
371 01-12-2020 06:50:00 2.1 C 5.31 g/m*3 2.1 C 3.2 km/h
372 01-12-2020 06:55:00 2.1 C 5.31 g/m*3 2.1 C 4.8 km/h
373 01-12-2020 07:00:00 2.1 C 5.31 g/m*3 2.1 C 4.8 km/h
374 01-12-2020 07:05:00 2.1 C 5.31 g/m*3 -0.3 C 8.1 km/h
375 01-12-2020 07:10:00 2.2 C 5.41 g/m*3 2.2 C 3.2 km/h
Sensor: Nr:Datum:Temp:Abs-Feuchte:Windchill:Wind:
Aussen-T/F 376 01-12-2020 07:15:00 2.2 C 5.35 g/m*3 2.2 C 3.2 km/h
377 01-12-2020 07:20:00 2.1 C 5.31 g/m*3 2.1 C 0 km/h
378 01-12-2020 07:25:00 2.1 C 5.31 g/m*3 2.1 C 4.8 km/h
379 01-12-2020 07:30:00 2.1 C 5.31 g/m*3 2.1 C 0 km/h
380 01-12-2020 07:35:00 2.1 C 5.31 g/m*3 2.1 C 1.6 km/h
381 01-12-2020 07:40:00 2.1 C 5.31 g/m*3 2.1 C 0 km/h
382 01-12-2020 07:45:00 2.1 C 5.31 g/m*3 2.1 C 4.8 km/h
383 01-12-2020 07:50:00 2.1 C 5.31 g/m*3 2.1 C 3.2 km/h
384 01-12-2020 07:55:00 2.1 C 5.31 g/m*3 2.1 C 3.2 km/h
385 01-12-2020 08:00:00 2.1 C 5.37 g/m*3 2.1 C 3.2 km/h
386 01-12-2020 08:05:00 2.1 C 5.37 g/m*3 2.1 C 1.6 km/h
387 01-12-2020 08:10:00 2.1 C 5.37 g/m*3 2.1 C 1.6 km/h
388 01-12-2020 08:15:00 2.1 C 5.37 g/m*3 2.1 C 0 km/h
389 01-12-2020 08:20:00 2.1 C 5.37 g/m*3 2.1 C 0 km/h
390 01-12-2020 08:25:00 2.1 C 5.37 g/m*3 2.1 C 0 km/h
391 01-12-2020 08:30:00 2.1 C 5.37 g/m*3 2.1 C 0 km/h
392 01-12-2020 08:35:00 2.1 C 5.37 g/m*3 2.1 C 0 km/h
393 01-12-2020 08:40:00 2.1 C 5.37 g/m*3 2.1 C 1.6 km/h
394 01-12-2020 08:45:00 2.2 C 5.41 g/m*3 0.36 C 6.4 km/h
395 01-12-2020 08:50:00 2.2 C 5.41 g/m*3 2.2 C 0 km/h
396 01-12-2020 08:55:00 2.2 C 5.41 g/m*3 -0.18 C 8.1 km/h
397 01-12-2020 09:00:00 2.3 C 5.44 g/m*3 0.47 C 6.4 km/h
398 01-12-2020 09:05:00 2.3 C 5.44 g/m*3 2.3 C 1.6 km/h
399 01-12-2020 09:10:00 2.3 C 5.44 g/m*3 2.3 C 1.6 km/h
400 01-12-2020 09:15:00 2.3 C 5.44 g/m*3 2.3 C 0 km/h
Sensor: Nr:Datum:Temp:Abs-Feuchte:Windchill:Wind:
Aussen-T/F 401 01-12-2020 09:20:00 2.3 C 5.44 g/m*3 2.3 C 0 km/h
402 01-12-2020 09:25:00 2.3 C 5.44 g/m*3 2.3 C 0 km/h
403 01-12-2020 09:30:00 2.3 C 5.44 g/m*3 2.3 C 1.6 km/h
404 01-12-2020 09:35:00 2.3 C 5.44 g/m*3 2.3 C 0 km/h
405 01-12-2020 09:40:00 2.3 C 5.44 g/m*3 2.3 C 0 km/h
406 01-12-2020 09:45:00 2.4 C 5.48 g/m*3 2.4 C 0 km/h
407 01-12-2020 09:50:00 2.4 C 5.48 g/m*3 2.4 C 0 km/h
408 01-12-2020 09:55:00 2.4 C 5.48 g/m*3 2.4 C 1.6 km/h
409 01-12-2020 10:00:00 2.4 C 5.48 g/m*3 2.4 C 3.2 km/h
410 01-12-2020 10:05:00 2.4 C 5.48 g/m*3 2.4 C 1.6 km/h
411 01-12-2020 10:10:00 2.6 C 5.56 g/m*3 2.6 C 0 km/h
412 01-12-2020 10:15:00 2.6 C 5.56 g/m*3 2.6 C 0 km/h
413 01-12-2020 10:20:00 2.7 C 5.59 g/m*3 2.7 C 0 km/h
414 01-12-2020 10:25:00 2.7 C 5.59 g/m*3 2.7 C 0 km/h
415 01-12-2020 10:30:00 2.8 C 5.63 g/m*3 2.8 C 0 km/h
416 01-12-2020 10:35:00 2.8 C 5.63 g/m*3 2.8 C 0 km/h
417 01-12-2020 10:40:00 2.8 C 5.63 g/m*3 2.8 C 0 km/h
418 01-12-2020 10:45:00 2.9 C 5.67 g/m*3 2.9 C 0 km/h
419 01-12-2020 10:50:00 2.9 C 5.67 g/m*3 2.9 C 0 km/h
420 01-12-2020 10:55:00 2.9 C 5.67 g/m*3 2.9 C 0 km/h
421 01-12-2020 11:00:00 3 C 5.71 g/m*3 3 C 0 km/h
422 01-12-2020 11:05:00 3 C 5.71 g/m*3 3 C 0 km/h
423 01-12-2020 11:10:00 3 C 5.71 g/m*3 3 C 0 km/h
424 01-12-2020 11:15:00 3 C 5.71 g/m*3 3 C 0 km/h
425 01-12-2020 11:20:00 3 C 5.71 g/m*3 3 C 0 km/h
Sensor: Nr:Datum:Temp:Abs-Feuchte:Windchill:Wind:
Aussen-T/F 426 01-12-2020 11:25:00 3.1 C 5.75 g/m*3 3.1 C 0 km/h
427 01-12-2020 11:30:00 3.1 C 5.75 g/m*3 3.1 C 0 km/h
428 01-12-2020 11:35:00 3.1 C 5.75 g/m*3 3.1 C 0 km/h
429 01-12-2020 11:40:00 3.1 C 5.75 g/m*3 3.1 C 1.6 km/h
430 01-12-2020 11:45:00 3.1 C 5.75 g/m*3 3.1 C 0 km/h
431 01-12-2020 11:50:00 3.1 C 5.75 g/m*3 3.1 C 0 km/h
432 01-12-2020 11:55:00 3.2 C 5.79 g/m*3 3.2 C 0 km/h
433 01-12-2020 12:00:00 3.2 C 5.79 g/m*3 3.2 C 1.6 km/h
434 01-12-2020 12:05:00 3.3 C 5.82 g/m*3 3.3 C 0 km/h
435 01-12-2020 12:10:00 3.3 C 5.82 g/m*3 3.3 C 0 km/h
436 01-12-2020 12:15:00 3.3 C 5.82 g/m*3 3.3 C 0 km/h
437 01-12-2020 12:20:00 3.3 C 5.82 g/m*3 3.3 C 0 km/h
438 01-12-2020 12:25:00 3.4 C 5.86 g/m*3 3.4 C 0 km/h
439 01-12-2020 12:30:00 3.4 C 5.86 g/m*3 3.4 C 0 km/h
440 01-12-2020 12:35:00 3.5 C 5.96 g/m*3 3.5 C 0 km/h
441 01-12-2020 12:40:00 3.6 C 6 g/m*3 3.6 C 0 km/h
442 01-12-2020 12:45:00 3.7 C 6.04 g/m*3 3.7 C 0 km/h
443 01-12-2020 12:50:00 3.8 C 6.09 g/m*3 3.8 C 0 km/h
444 01-12-2020 12:55:00 3.8 C 6.09 g/m*3 3.8 C 3.2 km/h
445 01-12-2020 13:00:00 3.8 C 6.09 g/m*3 3.8 C 0 km/h
446 01-12-2020 13:05:00 3.8 C 6.09 g/m*3 3.8 C 0 km/h
447 01-12-2020 13:10:00 3.8 C 6.09 g/m*3 3.8 C 0 km/h
448 01-12-2020 13:15:00 3.9 C 6.06 g/m*3 3.9 C 0 km/h
449 01-12-2020 13:20:00 3.9 C 6.06 g/m*3 3.9 C 0 km/h
450 01-12-2020 13:25:00 4 C 6.1 g/m*3 4 C 0 km/h
Sensor: Nr:Datum:Temp:Abs-Feuchte:Windchill:Wind:
Aussen-T/F 451 01-12-2020 13:30:00 4.1 C 6.21 g/m*3 4.1 C 0 km/h
452 01-12-2020 13:35:00 4.1 C 6.21 g/m*3 4.1 C 0 km/h
453 01-12-2020 13:40:00 4.1 C 6.21 g/m*3 4.1 C 0 km/h
454 01-12-2020 13:45:00 4.2 C 6.19 g/m*3 4.2 C 0 km/h
455 01-12-2020 13:50:00 4.2 C 6.19 g/m*3 4.2 C 0 km/h
456 01-12-2020 13:55:00 4.2 C 6.19 g/m*3 4.2 C 0 km/h
457 01-12-2020 14:00:00 4.3 C 6.23 g/m*3 4.3 C 3.2 km/h
458 01-12-2020 14:05:00 4.3 C 6.23 g/m*3 4.3 C 0 km/h
459 01-12-2020 14:10:00 4.3 C 6.23 g/m*3 4.3 C 0 km/h
460 01-12-2020 14:15:00 4.3 C 6.23 g/m*3 4.3 C 0 km/h
461 01-12-2020 14:20:00 4.3 C 6.23 g/m*3 4.3 C 0 km/h
462 01-12-2020 14:25:00 4.3 C 6.23 g/m*3 4.3 C 0 km/h
463 01-12-2020 14:30:00 4.3 C 6.23 g/m*3 4.3 C 0 km/h
464 01-12-2020 14:35:00 4.3 C 6.23 g/m*3 4.3 C 0 km/h
465 01-12-2020 14:40:00 4.3 C 6.23 g/m*3 4.3 C 0 km/h
466 01-12-2020 14:45:00 4.2 C 6.19 g/m*3 4.2 C 0 km/h
467 01-12-2020 14:50:00 4.2 C 6.19 g/m*3 4.2 C 1.6 km/h
468 01-12-2020 14:55:00 4.1 C 6.14 g/m*3 4.1 C 0 km/h
469 01-12-2020 15:00:00 4.1 C 6.14 g/m*3 4.1 C 0 km/h
470 01-12-2020 15:05:00 4.1 C 6.14 g/m*3 4.1 C 0 km/h
471 01-12-2020 15:10:00 4.1 C 6.14 g/m*3 4.1 C 0 km/h
472 01-12-2020 15:15:00 4 C 6.1 g/m*3 4 C 0 km/h
473 01-12-2020 15:20:00 4 C 6.1 g/m*3 4 C 0 km/h
474 01-12-2020 15:25:00 3.9 C 6.06 g/m*3 3.9 C 0 km/h
475 01-12-2020 15:30:00 3.9 C 6.06 g/m*3 3.9 C 0 km/h
Sensor: Nr:Datum:Temp:Abs-Feuchte:Windchill:Wind:
Aussen-T/F 476 01-12-2020 15:35:00 3.8 C 6.02 g/m*3 3.8 C 0 km/h
477 01-12-2020 15:40:00 3.8 C 6.02 g/m*3 3.8 C 0 km/h
478 01-12-2020 15:45:00 3.8 C 6.02 g/m*3 3.8 C 0 km/h
479 01-12-2020 15:50:00 3.8 C 6.02 g/m*3 3.8 C 0 km/h
480 01-12-2020 15:55:00 3.7 C 5.98 g/m*3 3.7 C 0 km/h
481 01-12-2020 16:00:00 3.7 C 5.98 g/m*3 3.7 C 0 km/h
482 01-12-2020 16:05:00 3.7 C 5.98 g/m*3 3.7 C 0 km/h
483 01-12-2020 16:10:00 3.7 C 5.98 g/m*3 3.7 C 0 km/h
484 01-12-2020 16:15:00 3.7 C 5.98 g/m*3 3.7 C 0 km/h
485 01-12-2020 16:20:00 3.7 C 5.98 g/m*3 3.7 C 0 km/h
486 01-12-2020 16:25:00 3.6 C 5.94 g/m*3 3.6 C 0 km/h
487 01-12-2020 16:30:00 3.6 C 5.94 g/m*3 3.6 C 0 km/h
488 01-12-2020 16:35:00 3.6 C 5.94 g/m*3 3.6 C 0 km/h
489 01-12-2020 16:40:00 3.5 C 5.9 g/m*3 3.5 C 0 km/h
490 01-12-2020 16:45:00 3.5 C 5.9 g/m*3 3.5 C 0 km/h
491 01-12-2020 16:50:00 3.5 C 5.9 g/m*3 3.5 C 0 km/h
492 01-12-2020 16:55:00 3.5 C 5.9 g/m*3 3.5 C 0 km/h
493 01-12-2020 17:00:00 3.5 C 5.9 g/m*3 3.5 C 0 km/h
494 01-12-2020 17:05:00 3.5 C 5.9 g/m*3 3.5 C 1.6 km/h
495 01-12-2020 17:10:00 3.5 C 5.9 g/m*3 3.5 C 0 km/h
496 01-12-2020 17:15:00 3.5 C 5.9 g/m*3 3.5 C 0 km/h
497 01-12-2020 17:20:00 3.5 C 5.9 g/m*3 3.5 C 0 km/h
498 01-12-2020 17:25:00 3.5 C 5.9 g/m*3 3.5 C 0 km/h
499 01-12-2020 17:30:00 3.5 C 5.9 g/m*3 3.5 C 0 km/h
500 01-12-2020 17:35:00 3.6 C 5.94 g/m*3 3.6 C 0 km/h
Sensor: Nr:Datum:Temp:Abs-Feuchte:Windchill:Wind:
Aussen-T/F 501 01-12-2020 17:40:00 3.6 C 5.94 g/m*3 3.6 C 0 km/h
502 01-12-2020 17:45:00 3.6 C 5.94 g/m*3 3.6 C 0 km/h
503 01-12-2020 17:50:00 3.6 C 5.94 g/m*3 3.6 C 0 km/h
504 01-12-2020 17:55:00 3.6 C 5.94 g/m*3 3.6 C 0 km/h
505 01-12-2020 18:00:00 3.6 C 5.94 g/m*3 3.6 C 0 km/h
506 01-12-2020 18:05:00 3.5 C 5.9 g/m*3 3.5 C 0 km/h
507 01-12-2020 18:10:00 3.5 C 5.9 g/m*3 3.5 C 0 km/h
508 01-12-2020 18:15:00 3.5 C 5.9 g/m*3 3.5 C 0 km/h
509 01-12-2020 18:20:00 3.6 C 5.94 g/m*3 3.6 C 0 km/h
510 01-12-2020 18:25:00 3.6 C 5.94 g/m*3 3.6 C 0 km/h
511 01-12-2020 18:30:00 3.6 C 5.94 g/m*3 3.6 C 0 km/h
512 01-12-2020 18:35:00 3.6 C 5.94 g/m*3 3.6 C 1.6 km/h
513 01-12-2020 18:40:00 3.6 C 5.94 g/m*3 3.6 C 0 km/h
514 01-12-2020 18:45:00 3.6 C 5.94 g/m*3 3.6 C 0 km/h
515 01-12-2020 18:50:00 3.6 C 5.94 g/m*3 3.6 C 0 km/h
516 01-12-2020 18:55:00 3.6 C 5.94 g/m*3 3.6 C 0 km/h
517 01-12-2020 19:00:00 3.6 C 5.94 g/m*3 3.6 C 0 km/h
518 01-12-2020 19:05:00 3.6 C 5.94 g/m*3 3.6 C 0 km/h
519 01-12-2020 19:10:00 3.6 C 5.94 g/m*3 3.6 C 0 km/h
520 01-12-2020 19:15:00 3.6 C 5.94 g/m*3 3.6 C 0 km/h
521 01-12-2020 19:20:00 3.6 C 5.94 g/m*3 3.6 C 0 km/h
522 01-12-2020 19:25:00 3.6 C 5.94 g/m*3 3.6 C 0 km/h
523 01-12-2020 19:30:00 3.6 C 5.94 g/m*3 3.6 C 0 km/h
524 01-12-2020 19:35:00 3.6 C 5.94 g/m*3 3.6 C 0 km/h
525 01-12-2020 19:40:00 3.6 C 5.94 g/m*3 3.6 C 0 km/h
Sensor: Nr:Datum:Temp:Abs-Feuchte:Windchill:Wind:
Aussen-T/F 526 01-12-2020 19:45:00 3.6 C 5.94 g/m*3 3.6 C 0 km/h
527 01-12-2020 19:50:00 3.6 C 5.94 g/m*3 3.6 C 0 km/h
528 01-12-2020 19:55:00 3.6 C 5.94 g/m*3 3.6 C 0 km/h
529 01-12-2020 20:00:00 3.6 C 5.94 g/m*3 3.6 C 0 km/h
530 01-12-2020 20:05:00 3.6 C 5.94 g/m*3 3.6 C 0 km/h
531 01-12-2020 20:10:00 3.6 C 5.94 g/m*3 3.6 C 0 km/h
532 01-12-2020 20:15:00 3.7 C 5.98 g/m*3 3.7 C 0 km/h
533 01-12-2020 20:20:00 3.7 C 5.98 g/m*3 3.7 C 0 km/h
534 01-12-2020 20:25:00 3.7 C 5.98 g/m*3 3.7 C 0 km/h
535 01-12-2020 20:30:00 3.7 C 5.98 g/m*3 3.7 C 0 km/h
536 01-12-2020 20:35:00 3.7 C 5.98 g/m*3 3.7 C 0 km/h
537 01-12-2020 20:40:00 3.7 C 5.98 g/m*3 3.7 C 0 km/h
538 01-12-2020 20:45:00 3.7 C 5.98 g/m*3 3.7 C 0 km/h
539 01-12-2020 20:50:00 3.7 C 5.98 g/m*3 3.7 C 0 km/h
540 01-12-2020 20:55:00 3.7 C 5.98 g/m*3 3.7 C 0 km/h
541 01-12-2020 21:00:00 3.7 C 5.98 g/m*3 3.7 C 0 km/h
542 01-12-2020 21:05:00 3.6 C 5.94 g/m*3 3.6 C 0 km/h
543 01-12-2020 21:10:00 3.6 C 6 g/m*3 3.6 C 0 km/h
544 01-12-2020 21:15:00 3.6 C 6 g/m*3 3.6 C 0 km/h
545 01-12-2020 21:20:00 3.6 C 6 g/m*3 3.6 C 0 km/h
546 01-12-2020 21:25:00 3.6 C 6 g/m*3 3.6 C 0 km/h
547 01-12-2020 21:30:00 3.6 C 6 g/m*3 3.6 C 0 km/h
548 01-12-2020 21:35:00 3.5 C 5.96 g/m*3 3.5 C 0 km/h
549 01-12-2020 21:40:00 3.5 C 5.96 g/m*3 3.5 C 0 km/h
550 01-12-2020 21:45:00 3.5 C 5.96 g/m*3 3.5 C 0 km/h
Sensor: Nr:Datum:Temp:Abs-Feuchte:Windchill:Wind:
Aussen-T/F 551 01-12-2020 21:50:00 3.4 C 5.92 g/m*3 3.4 C 0 km/h
552 01-12-2020 21:55:00 3.4 C 5.92 g/m*3 3.4 C 4.8 km/h
553 01-12-2020 22:00:00 3.4 C 5.92 g/m*3 3.4 C 3.2 km/h
554 01-12-2020 22:05:00 3.5 C 5.96 g/m*3 3.5 C 1.6 km/h
555 01-12-2020 22:10:00 3.5 C 5.96 g/m*3 3.5 C 0 km/h
556 01-12-2020 22:15:00 3.4 C 5.92 g/m*3 3.4 C 0 km/h
557 01-12-2020 22:20:00 3.4 C 5.92 g/m*3 3.4 C 0 km/h
558 01-12-2020 22:25:00 3.4 C 5.92 g/m*3 3.4 C 0 km/h
559 01-12-2020 22:30:00 3.4 C 5.86 g/m*3 3.4 C 0 km/h
560 01-12-2020 22:35:00 3.4 C 5.86 g/m*3 3.4 C 0 km/h
561 01-12-2020 22:40:00 3.4 C 5.86 g/m*3 3.4 C 0 km/h
562 01-12-2020 22:45:00 3.3 C 5.82 g/m*3 3.3 C 0 km/h
563 01-12-2020 22:50:00 3.3 C 5.82 g/m*3 3.3 C 0 km/h
564 01-12-2020 22:55:00 3.3 C 5.82 g/m*3 3.3 C 0 km/h
565 01-12-2020 23:00:00 3.3 C 5.82 g/m*3 3.3 C 0 km/h
566 01-12-2020 23:05:00 3.3 C 5.82 g/m*3 3.3 C 0 km/h
567 01-12-2020 23:10:00 3.3 C 5.82 g/m*3 3.3 C 0 km/h
568 01-12-2020 23:15:00 3.3 C 5.82 g/m*3 3.3 C 0 km/h
569 01-12-2020 23:20:00 3.3 C 5.88 g/m*3 3.3 C 0 km/h
570 01-12-2020 23:25:00 3.2 C 5.85 g/m*3 3.2 C 0 km/h
571 01-12-2020 23:30:00 3.2 C 5.85 g/m*3 3.2 C 0 km/h
572 01-12-2020 23:35:00 3.2 C 5.85 g/m*3 3.2 C 0 km/h
573 01-12-2020 23:40:00 3.2 C 5.85 g/m*3 3.2 C 0 km/h
574 01-12-2020 23:45:00 3.2 C 5.85 g/m*3 3.2 C 0 km/h
575 01-12-2020 23:50:00 3.2 C 5.85 g/m*3 3.2 C 0 km/h
Sensor: Nr:Datum:Temp:Abs-Feuchte:Windchill:Wind:
Aussen-T/F 576 01-12-2020 23:55:00 3.2 C 5.85 g/m*3 3.2 C 0 km/h
577 02-12-2020 00:00:00 3.2 C 5.85 g/m*3 3.2 C 0 km/h
578 02-12-2020 00:05:00 3.2 C 5.85 g/m*3 3.2 C 0 km/h
579 02-12-2020 00:10:00 3.2 C 5.85 g/m*3 3.2 C 0 km/h
580 02-12-2020 00:15:00 3.2 C 5.85 g/m*3 3.2 C 0 km/h
581 02-12-2020 00:20:00 3.2 C 5.85 g/m*3 3.2 C 0 km/h
582 02-12-2020 00:25:00 3.2 C 5.85 g/m*3 3.2 C 0 km/h
583 02-12-2020 00:30:00 3.2 C 5.85 g/m*3 3.2 C 0 km/h
584 02-12-2020 00:35:00 3.2 C 5.85 g/m*3 3.2 C 0 km/h
585 02-12-2020 00:40:00 3.2 C 5.85 g/m*3 3.2 C 0 km/h
586 02-12-2020 00:45:00 3.2 C 5.85 g/m*3 3.2 C 0 km/h
587 02-12-2020 00:50:00 3.2 C 5.85 g/m*3 3.2 C 0 km/h
588 02-12-2020 00:55:00 3.2 C 5.85 g/m*3 3.2 C 0 km/h
589 02-12-2020 01:00:00 3.2 C 5.85 g/m*3 3.2 C 0 km/h
590 02-12-2020 01:05:00 3.2 C 5.85 g/m*3 3.2 C 0 km/h
591 02-12-2020 01:10:00 3.1 C 5.81 g/m*3 3.1 C 0 km/h
592 02-12-2020 01:15:00 3.1 C 5.81 g/m*3 3.1 C 0 km/h
593 02-12-2020 01:20:00 3.1 C 5.81 g/m*3 3.1 C 0 km/h
594 02-12-2020 01:25:00 3.1 C 5.81 g/m*3 3.1 C 0 km/h
595 02-12-2020 01:30:00 3.1 C 5.81 g/m*3 3.1 C 0 km/h
596 02-12-2020 01:35:00 3.1 C 5.81 g/m*3 3.1 C 0 km/h
597 02-12-2020 01:40:00 3.1 C 5.81 g/m*3 3.1 C 0 km/h
598 02-12-2020 01:45:00 3.1 C 5.81 g/m*3 3.1 C 0 km/h
599 02-12-2020 01:50:00 3.1 C 5.81 g/m*3 3.1 C 0 km/h
600 02-12-2020 01:55:00 3 C 5.77 g/m*3 3 C 0 km/h
Sensor: Nr:Datum:Temp:Abs-Feuchte:Windchill:Wind:
Aussen-T/F 601 02-12-2020 02:00:00 3 C 5.77 g/m*3 3 C 0 km/h
602 02-12-2020 02:05:00 3 C 5.77 g/m*3 3 C 0 km/h
603 02-12-2020 02:10:00 2.9 C 5.73 g/m*3 2.9 C 0 km/h
604 02-12-2020 02:15:00 2.9 C 5.73 g/m*3 2.9 C 0 km/h
605 02-12-2020 02:20:00 2.9 C 5.73 g/m*3 2.9 C 0 km/h
606 02-12-2020 02:25:00 2.9 C 5.73 g/m*3 2.9 C 0 km/h
607 02-12-2020 02:30:00 2.9 C 5.73 g/m*3 2.9 C 0 km/h
608 02-12-2020 02:35:00 2.9 C 5.73 g/m*3 2.9 C 0 km/h
609 02-12-2020 02:40:00 2.9 C 5.73 g/m*3 2.9 C 0 km/h
610 02-12-2020 02:45:00 2.8 C 5.69 g/m*3 2.8 C 0 km/h
611 02-12-2020 02:50:00 2.8 C 5.69 g/m*3 2.8 C 0 km/h
612 02-12-2020 02:55:00 2.8 C 5.69 g/m*3 2.8 C 0 km/h
613 02-12-2020 03:00:00 2.8 C 5.69 g/m*3 2.8 C 0 km/h
614 02-12-2020 03:05:00 2.8 C 5.69 g/m*3 2.8 C 0 km/h
615 02-12-2020 03:10:00 2.8 C 5.69 g/m*3 2.8 C 1.6 km/h
616 02-12-2020 03:15:00 2.8 C 5.69 g/m*3 2.8 C 3.2 km/h
617 02-12-2020 03:20:00 2.8 C 5.69 g/m*3 2.8 C 1.6 km/h
618 02-12-2020 03:25:00 2.8 C 5.69 g/m*3 2.8 C 3.2 km/h
619 02-12-2020 03:30:00 2.7 C 5.65 g/m*3 2.7 C 0 km/h
620 02-12-2020 03:35:00 2.7 C 5.65 g/m*3 2.7 C 0 km/h
621 02-12-2020 03:40:00 2.7 C 5.65 g/m*3 2.7 C 0 km/h
622 02-12-2020 03:45:00 2.7 C 5.65 g/m*3 2.7 C 0 km/h
623 02-12-2020 03:50:00 2.7 C 5.65 g/m*3 2.7 C 0 km/h
624 02-12-2020 03:55:00 2.7 C 5.65 g/m*3 2.7 C 3.2 km/h
625 02-12-2020 04:00:00 2.7 C 5.65 g/m*3 2.7 C 0 km/h
Sensor: Nr:Datum:Temp:Abs-Feuchte:Windchill:Wind:
Aussen-T/F 626 02-12-2020 04:05:00 2.7 C 5.65 g/m*3 2.7 C 0 km/h
627 02-12-2020 04:10:00 2.7 C 5.65 g/m*3 2.7 C 0 km/h
628 02-12-2020 04:15:00 2.7 C 5.65 g/m*3 2.7 C 0 km/h
629 02-12-2020 04:20:00 2.7 C 5.65 g/m*3 2.7 C 0 km/h
630 02-12-2020 04:25:00 2.7 C 5.65 g/m*3 2.7 C 0 km/h
631 02-12-2020 04:30:00 2.6 C 5.61 g/m*3 2.6 C 0 km/h
632 02-12-2020 04:35:00 2.6 C 5.61 g/m*3 2.6 C 0 km/h
633 02-12-2020 04:40:00 2.6 C 5.61 g/m*3 2.6 C 0 km/h
634 02-12-2020 04:45:00 2.6 C 5.61 g/m*3 2.6 C 0 km/h
635 02-12-2020 04:50:00 2.6 C 5.61 g/m*3 2.6 C 0 km/h
636 02-12-2020 04:55:00 2.6 C 5.61 g/m*3 2.6 C 0 km/h
637 02-12-2020 05:00:00 2.6 C 5.61 g/m*3 2.6 C 0 km/h
638 02-12-2020 05:05:00 2.6 C 5.61 g/m*3 2.6 C 0 km/h
639 02-12-2020 05:10:00 2.6 C 5.61 g/m*3 2.6 C 0 km/h
640 02-12-2020 05:15:00 2.6 C 5.61 g/m*3 2.6 C 0 km/h
641 02-12-2020 05:20:00 2.6 C 5.61 g/m*3 2.6 C 0 km/h
642 02-12-2020 05:25:00 2.6 C 5.61 g/m*3 2.6 C 0 km/h
643 02-12-2020 05:30:00 2.5 C 5.58 g/m*3 2.5 C 0 km/h
644 02-12-2020 05:35:00 2.5 C 5.58 g/m*3 2.5 C 0 km/h
645 02-12-2020 05:40:00 2.5 C 5.58 g/m*3 2.5 C 0 km/h
646 02-12-2020 05:45:00 2.5 C 5.58 g/m*3 2.5 C 0 km/h
647 02-12-2020 05:50:00 2.5 C 5.58 g/m*3 2.5 C 0 km/h
648 02-12-2020 05:55:00 2.5 C 5.58 g/m*3 2.5 C 0 km/h
649 02-12-2020 06:00:00 2.4 C 5.54 g/m*3 2.4 C 0 km/h
650 02-12-2020 06:05:00 2.4 C 5.54 g/m*3 2.4 C 0 km/h
Sensor: Nr:Datum:Temp:Abs-Feuchte:Windchill:Wind:
Aussen-T/F 651 02-12-2020 06:10:00 2.4 C 5.54 g/m*3 2.4 C 0 km/h
652 02-12-2020 06:15:00 2.4 C 5.54 g/m*3 2.4 C 0 km/h
653 02-12-2020 06:20:00 2.4 C 5.54 g/m*3 2.4 C 0 km/h
654 02-12-2020 06:25:00 2.4 C 5.54 g/m*3 2.4 C 0 km/h
655 02-12-2020 06:30:00 2.4 C 5.54 g/m*3 2.4 C 0 km/h
656 02-12-2020 06:35:00 2.4 C 5.54 g/m*3 2.4 C 0 km/h
657 02-12-2020 06:40:00 2.4 C 5.54 g/m*3 2.4 C 0 km/h
658 02-12-2020 06:45:00 2.4 C 5.54 g/m*3 2.4 C 0 km/h
659 02-12-2020 06:50:00 2.4 C 5.54 g/m*3 2.4 C 0 km/h
660 02-12-2020 06:55:00 2.4 C 5.54 g/m*3 2.4 C 0 km/h
661 02-12-2020 07:00:00 2.4 C 5.54 g/m*3 2.4 C 0 km/h
662 02-12-2020 07:05:00 2.4 C 5.54 g/m*3 2.4 C 0 km/h
663 02-12-2020 07:10:00 2.4 C 5.54 g/m*3 2.4 C 0 km/h
664 02-12-2020 07:15:00 2.4 C 5.54 g/m*3 2.4 C 0 km/h
665 02-12-2020 07:20:00 2.4 C 5.54 g/m*3 2.4 C 0 km/h
666 02-12-2020 07:25:00 2.4 C 5.54 g/m*3 2.4 C 0 km/h
667 02-12-2020 07:30:00 2.4 C 5.54 g/m*3 2.4 C 0 km/h
668 02-12-2020 07:35:00 2.4 C 5.54 g/m*3 2.4 C 0 km/h
669 02-12-2020 07:40:00 2.4 C 5.54 g/m*3 2.4 C 0 km/h
670 02-12-2020 07:45:00 2.4 C 5.54 g/m*3 2.4 C 0 km/h
671 02-12-2020 07:50:00 2.4 C 5.54 g/m*3 2.4 C 0 km/h
672 02-12-2020 07:55:00 2.4 C 5.54 g/m*3 2.4 C 0 km/h
673 02-12-2020 08:00:00 2.4 C 5.54 g/m*3 2.4 C 0 km/h
674 02-12-2020 08:05:00 2.4 C 5.54 g/m*3 2.4 C 0 km/h
675 02-12-2020 08:10:00 2.4 C 5.54 g/m*3 2.4 C 0 km/h
Sensor: Nr:Datum:Temp:Abs-Feuchte:Windchill:Wind:
Aussen-T/F 676 02-12-2020 08:15:00 2.4 C 5.54 g/m*3 2.4 C 0 km/h
677 02-12-2020 08:20:00 2.5 C 5.58 g/m*3 2.5 C 0 km/h
678 02-12-2020 08:25:00 2.4 C 5.54 g/m*3 2.4 C 0 km/h
679 02-12-2020 08:30:00 2.5 C 5.58 g/m*3 2.5 C 0 km/h
680 02-12-2020 08:35:00 2.5 C 5.58 g/m*3 2.5 C 0 km/h
681 02-12-2020 08:40:00 2.5 C 5.58 g/m*3 2.5 C 0 km/h
682 02-12-2020 08:45:00 2.5 C 5.58 g/m*3 2.5 C 0 km/h
683 02-12-2020 08:50:00 2.5 C 5.58 g/m*3 2.5 C 0 km/h
684 02-12-2020 08:55:00 2.6 C 5.61 g/m*3 2.6 C 0 km/h
685 02-12-2020 09:00:00 2.6 C 5.61 g/m*3 2.6 C 0 km/h
686 02-12-2020 09:05:00 2.6 C 5.61 g/m*3 2.6 C 0 km/h
687 02-12-2020 09:10:00 2.6 C 5.61 g/m*3 2.6 C 0 km/h
688 02-12-2020 09:15:00 2.6 C 5.61 g/m*3 2.6 C 0 km/h
689 02-12-2020 09:20:00 2.7 C 5.65 g/m*3 2.7 C 0 km/h
690 02-12-2020 09:25:00 2.7 C 5.65 g/m*3 2.7 C 0 km/h
691 02-12-2020 09:30:00 2.7 C 5.65 g/m*3 2.7 C 0 km/h
692 02-12-2020 09:35:00 2.7 C 5.65 g/m*3 2.7 C 0 km/h
693 02-12-2020 09:40:00 2.8 C 5.69 g/m*3 2.8 C 0 km/h
694 02-12-2020 09:45:00 2.8 C 5.69 g/m*3 2.8 C 0 km/h
695 02-12-2020 09:50:00 2.8 C 5.69 g/m*3 2.8 C 0 km/h
696 02-12-2020 09:55:00 2.8 C 5.69 g/m*3 2.8 C 3.2 km/h
697 02-12-2020 10:00:00 2.8 C 5.69 g/m*3 2.8 C 0 km/h
698 02-12-2020 10:05:00 2.8 C 5.69 g/m*3 2.8 C 0 km/h
699 02-12-2020 10:10:00 2.9 C 5.73 g/m*3 2.9 C 0 km/h
700 02-12-2020 10:15:00 2.9 C 5.73 g/m*3 2.9 C 1.6 km/h
Sensor: Nr:Datum:Temp:Abs-Feuchte:Windchill:Wind:
Aussen-T/F 701 02-12-2020 10:20:00 2.9 C 5.73 g/m*3 2.9 C 1.6 km/h
702 02-12-2020 10:25:00 2.9 C 5.73 g/m*3 2.9 C 3.2 km/h
703 02-12-2020 10:30:00 2.9 C 5.73 g/m*3 2.9 C 1.6 km/h
704 02-12-2020 10:35:00 2.9 C 5.73 g/m*3 2.9 C 0 km/h
705 02-12-2020 10:40:00 3 C 5.77 g/m*3 3 C 0 km/h
706 02-12-2020 10:45:00 3 C 5.77 g/m*3 3 C 0 km/h
707 02-12-2020 10:50:00 3 C 5.77 g/m*3 3 C 0 km/h
708 02-12-2020 10:55:00 3.1 C 5.81 g/m*3 3.1 C 0 km/h
709 02-12-2020 11:00:00 3 C 5.77 g/m*3 3 C 0 km/h
710 02-12-2020 11:05:00 3 C 5.77 g/m*3 3 C 4.8 km/h
711 02-12-2020 11:10:00 3 C 5.77 g/m*3 3 C 3.2 km/h
712 02-12-2020 11:15:00 3.1 C 5.81 g/m*3 3.1 C 3.2 km/h
713 02-12-2020 11:20:00 3 C 5.77 g/m*3 3 C 4.8 km/h
714 02-12-2020 11:25:00 3.1 C 5.81 g/m*3 3.1 C 3.2 km/h
715 02-12-2020 11:30:00 3.1 C 5.75 g/m*3 3.1 C 1.6 km/h
716 02-12-2020 11:35:00 3.1 C 5.75 g/m*3 3.1 C 4.8 km/h
717 02-12-2020 11:40:00 3.1 C 5.81 g/m*3 3.1 C 1.6 km/h
718 02-12-2020 11:45:00 3.1 C 5.75 g/m*3 3.1 C 4.8 km/h
719 02-12-2020 11:50:00 3.1 C 5.75 g/m*3 3.1 C 1.6 km/h
720 02-12-2020 11:55:00 3.2 C 5.79 g/m*3 3.2 C 3.2 km/h
721 02-12-2020 12:00:00 3.2 C 5.79 g/m*3 3.2 C 4.8 km/h
722 02-12-2020 12:05:00 3.2 C 5.79 g/m*3 3.2 C 4.8 km/h
723 02-12-2020 12:10:00 3.1 C 5.75 g/m*3 3.1 C 3.2 km/h
724 02-12-2020 12:15:00 3.2 C 5.79 g/m*3 3.2 C 1.6 km/h
725 02-12-2020 12:20:00 3.2 C 5.79 g/m*3 3.2 C 3.2 km/h
Sensor: Nr:Datum:Temp:Abs-Feuchte:Windchill:Wind:
Aussen-T/F 726 02-12-2020 12:25:00 3.2 C 5.79 g/m*3 3.2 C 0 km/h
727 02-12-2020 12:30:00 3.2 C 5.79 g/m*3 3.2 C 0 km/h
728 02-12-2020 12:35:00 3.2 C 5.79 g/m*3 3.2 C 0 km/h
729 02-12-2020 12:40:00 3.3 C 5.82 g/m*3 3.3 C 0 km/h
730 02-12-2020 12:45:00 3.3 C 5.82 g/m*3 3.3 C 0 km/h
731 02-12-2020 12:50:00 3.3 C 5.82 g/m*3 3.3 C 0 km/h
732 02-12-2020 12:55:00 3.4 C 5.86 g/m*3 3.4 C 0 km/h
733 02-12-2020 13:00:00 3.4 C 5.86 g/m*3 3.4 C 3.2 km/h
734 02-12-2020 13:05:00 3.3 C 5.82 g/m*3 3.3 C 1.6 km/h
735 02-12-2020 13:10:00 3.4 C 5.86 g/m*3 3.4 C 0 km/h
736 02-12-2020 13:15:00 3.4 C 5.86 g/m*3 3.4 C 1.6 km/h
737 02-12-2020 13:20:00 3.5 C 5.9 g/m*3 3.5 C 1.6 km/h
738 02-12-2020 13:25:00 3.6 C 5.94 g/m*3 3.6 C 3.2 km/h
739 02-12-2020 13:30:00 3.6 C 5.94 g/m*3 3.6 C 1.6 km/h
740 02-12-2020 13:35:00 3.6 C 5.94 g/m*3 3.6 C 0 km/h
741 02-12-2020 13:40:00 3.6 C 5.88 g/m*3 3.6 C 0 km/h
742 02-12-2020 13:45:00 3.6 C 5.88 g/m*3 3.6 C 0 km/h
743 02-12-2020 13:50:00 3.7 C 5.92 g/m*3 3.7 C 0 km/h
744 02-12-2020 13:55:00 3.7 C 5.92 g/m*3 3.7 C 0 km/h
745 02-12-2020 14:00:00 3.7 C 5.92 g/m*3 3.7 C 3.2 km/h
746 02-12-2020 14:05:00 3.8 C 5.96 g/m*3 3.8 C 3.2 km/h
747 02-12-2020 14:10:00 3.8 C 5.96 g/m*3 3.8 C 3.2 km/h
748 02-12-2020 14:15:00 3.8 C 5.96 g/m*3 3.8 C 3.2 km/h
749 02-12-2020 14:20:00 3.9 C 6 g/m*3 3.9 C 0 km/h
750 02-12-2020 14:25:00 3.9 C 6 g/m*3 3.9 C 1.6 km/h
Sensor: Nr:Datum:Temp:Abs-Feuchte:Windchill:Wind:
Aussen-T/F 751 02-12-2020 14:30:00 3.9 C 6 g/m*3 3.9 C 0 km/h
752 02-12-2020 14:35:00 3.9 C 5.94 g/m*3 3.9 C 0 km/h
753 02-12-2020 14:40:00 3.9 C 5.94 g/m*3 3.9 C 0 km/h
754 02-12-2020 14:45:00 3.8 C 5.9 g/m*3 3.8 C 0 km/h
755 02-12-2020 14:50:00 3.8 C 5.9 g/m*3 1.7 C 8.1 km/h
756 02-12-2020 14:55:00 3.8 C 5.9 g/m*3 1.7 C 8.1 km/h
757 02-12-2020 15:00:00 3.8 C 5.9 g/m*3 3.8 C 0 km/h
758 02-12-2020 15:05:00 3.8 C 5.9 g/m*3 3.8 C 0 km/h
759 02-12-2020 15:10:00 3.7 C 5.8 g/m*3 3.7 C 0 km/h
760 02-12-2020 15:15:00 3.7 C 5.8 g/m*3 3.7 C 1.6 km/h
761 02-12-2020 15:20:00 3.7 C 5.8 g/m*3 3.7 C 0 km/h
762 02-12-2020 15:25:00 3.6 C 5.76 g/m*3 3.6 C 0 km/h
763 02-12-2020 15:30:00 3.6 C 5.76 g/m*3 3.6 C 0 km/h
764 02-12-2020 15:35:00 3.6 C 5.76 g/m*3 3.6 C 0 km/h
765 02-12-2020 15:40:00 3.6 C 5.76 g/m*3 3.6 C 0 km/h
766 02-12-2020 15:45:00 3.6 C 5.82 g/m*3 3.6 C 0 km/h
767 02-12-2020 15:50:00 3.6 C 5.82 g/m*3 3.6 C 1.6 km/h
768 02-12-2020 15:55:00 3.6 C 5.76 g/m*3 3.6 C 0 km/h
769 02-12-2020 16:00:00 3.6 C 5.76 g/m*3 3.6 C 0 km/h
770 02-12-2020 16:05:00 3.5 C 5.72 g/m*3 3.5 C 0 km/h
771 02-12-2020 16:10:00 3.5 C 5.72 g/m*3 3.5 C 0 km/h
772 02-12-2020 16:15:00 3.5 C 5.72 g/m*3 3.5 C 0 km/h
773 02-12-2020 16:20:00 3.4 C 5.68 g/m*3 3.4 C 0 km/h
774 02-12-2020 16:25:00 3.4 C 5.68 g/m*3 3.4 C 0 km/h
775 02-12-2020 16:30:00 3.4 C 5.68 g/m*3 3.4 C 0 km/h
Sensor: Nr:Datum:Temp:Abs-Feuchte:Windchill:Wind:
Aussen-T/F 776 02-12-2020 16:35:00 3.3 C 5.7 g/m*3 3.3 C 0 km/h
777 02-12-2020 16:40:00 3.3 C 5.64 g/m*3 3.3 C 1.6 km/h
778 02-12-2020 16:45:00 3.2 C 5.6 g/m*3 3.2 C 0 km/h
779 02-12-2020 16:50:00 3.2 C 5.6 g/m*3 3.2 C 0 km/h
780 02-12-2020 16:55:00 3.2 C 5.6 g/m*3 3.2 C 0 km/h
781 02-12-2020 17:00:00 3.1 C 5.57 g/m*3 3.1 C 0 km/h
782 02-12-2020 17:05:00 3.1 C 5.57 g/m*3 3.1 C 1.6 km/h
783 02-12-2020 17:10:00 3.1 C 5.57 g/m*3 3.1 C 0 km/h
784 02-12-2020 17:15:00 3 C 5.59 g/m*3 3 C 0 km/h
785 02-12-2020 17:20:00 3 C 5.59 g/m*3 3 C 0 km/h
786 02-12-2020 17:25:00 3 C 5.59 g/m*3 3 C 0 km/h
787 02-12-2020 17:30:00 2.9 C 5.55 g/m*3 2.9 C 0 km/h
788 02-12-2020 17:35:00 2.9 C 5.55 g/m*3 2.9 C 0 km/h
789 02-12-2020 17:40:00 2.9 C 5.55 g/m*3 2.9 C 0 km/h
790 02-12-2020 17:45:00 2.8 C 5.51 g/m*3 2.8 C 0 km/h
791 02-12-2020 17:50:00 2.8 C 5.51 g/m*3 2.8 C 3.2 km/h
792 02-12-2020 17:55:00 2.7 C 5.48 g/m*3 2.7 C 3.2 km/h
793 02-12-2020 18:00:00 2.7 C 5.48 g/m*3 2.7 C 3.2 km/h
794 02-12-2020 18:05:00 2.7 C 5.48 g/m*3 2.7 C 0 km/h
795 02-12-2020 18:10:00 2.6 C 5.44 g/m*3 2.6 C 0 km/h
796 02-12-2020 18:15:00 2.6 C 5.44 g/m*3 2.6 C 0 km/h
797 02-12-2020 18:20:00 2.6 C 5.44 g/m*3 2.6 C 0 km/h
798 02-12-2020 18:25:00 2.6 C 5.44 g/m*3 2.6 C 0 km/h
799 02-12-2020 18:30:00 2.6 C 5.44 g/m*3 2.6 C 0 km/h
800 02-12-2020 18:35:00 2.6 C 5.44 g/m*3 2.6 C 0 km/h
Sensor: Nr:Datum:Temp:Abs-Feuchte:Windchill:Wind:
Aussen-T/F 801 02-12-2020 18:40:00 2.6 C 5.44 g/m*3 2.6 C 0 km/h
802 02-12-2020 18:45:00 2.6 C 5.44 g/m*3 2.6 C 0 km/h
803 02-12-2020 18:50:00 2.5 C 5.4 g/m*3 2.5 C 0 km/h
804 02-12-2020 18:55:00 2.5 C 5.46 g/m*3 2.5 C 0 km/h
805 02-12-2020 19:00:00 2.5 C 5.4 g/m*3 2.5 C 0 km/h
806 02-12-2020 19:05:00 2.5 C 5.4 g/m*3 2.5 C 0 km/h
807 02-12-2020 19:10:00 2.5 C 5.4 g/m*3 2.5 C 0 km/h
808 02-12-2020 19:15:00 2.4 C 5.37 g/m*3 2.4 C 0 km/h
809 02-12-2020 19:20:00 2.4 C 5.37 g/m*3 2.4 C 0 km/h
810 02-12-2020 19:25:00 2.4 C 5.37 g/m*3 2.4 C 0 km/h
811 02-12-2020 19:30:00 2.4 C 5.42 g/m*3 2.4 C 0 km/h
812 02-12-2020 19:35:00 2.4 C 5.42 g/m*3 2.4 C 1.6 km/h
813 02-12-2020 19:40:00 2.4 C 5.42 g/m*3 2.4 C 0 km/h
814 02-12-2020 19:45:00 2.4 C 5.42 g/m*3 2.4 C 0 km/h
815 02-12-2020 19:50:00 2.4 C 5.42 g/m*3 2.4 C 0 km/h
816 02-12-2020 19:55:00 2.4 C 5.42 g/m*3 2.4 C 0 km/h
817 02-12-2020 20:00:00 2.4 C 5.42 g/m*3 2.4 C 0 km/h
818 02-12-2020 20:05:00 2.4 C 5.42 g/m*3 2.4 C 0 km/h
819 02-12-2020 20:10:00 2.4 C 5.42 g/m*3 2.4 C 0 km/h
820 02-12-2020 20:15:00 2.4 C 5.42 g/m*3 2.4 C 0 km/h
821 02-12-2020 20:20:00 2.4 C 5.42 g/m*3 2.4 C 0 km/h
822 02-12-2020 20:25:00 2.4 C 5.42 g/m*3 2.4 C 0 km/h
823 02-12-2020 20:30:00 2.4 C 5.42 g/m*3 2.4 C 0 km/h
824 02-12-2020 20:35:00 2.4 C 5.42 g/m*3 2.4 C 0 km/h
825 02-12-2020 20:40:00 2.4 C 5.42 g/m*3 2.4 C 0 km/h
Sensor: Nr:Datum:Temp:Abs-Feuchte:Windchill:Wind:
Aussen-T/F 826 02-12-2020 20:45:00 2.4 C 5.42 g/m*3 2.4 C 0 km/h
827 02-12-2020 20:50:00 2.4 C 5.42 g/m*3 2.4 C 0 km/h
828 02-12-2020 20:55:00 2.4 C 5.42 g/m*3 2.4 C 0 km/h
829 02-12-2020 21:00:00 2.4 C 5.42 g/m*3 2.4 C 0 km/h
830 02-12-2020 21:05:00 2.4 C 5.42 g/m*3 2.4 C 3.2 km/h
831 02-12-2020 21:10:00 2.4 C 5.42 g/m*3 2.4 C 1.6 km/h
832 02-12-2020 21:15:00 2.4 C 5.42 g/m*3 2.4 C 0 km/h
833 02-12-2020 21:20:00 2.4 C 5.42 g/m*3 2.4 C 0 km/h
834 02-12-2020 21:25:00 2.4 C 5.42 g/m*3 2.4 C 0 km/h
835 02-12-2020 21:30:00 2.4 C 5.42 g/m*3 2.4 C 0 km/h
836 02-12-2020 21:35:00 2.4 C 5.42 g/m*3 2.4 C 0 km/h
837 02-12-2020 21:40:00 2.4 C 5.42 g/m*3 2.4 C 0 km/h
838 02-12-2020 21:45:00 2.3 C 5.39 g/m*3 2.3 C 0 km/h
839 02-12-2020 21:50:00 2.3 C 5.39 g/m*3 2.3 C 0 km/h
840 02-12-2020 21:55:00 2.4 C 5.42 g/m*3 2.4 C 0 km/h
841 02-12-2020 22:00:00 2.4 C 5.42 g/m*3 2.4 C 0 km/h
842 02-12-2020 22:05:00 2.4 C 5.42 g/m*3 2.4 C 0 km/h
843 02-12-2020 22:10:00 2.4 C 5.42 g/m*3 2.4 C 0 km/h
844 02-12-2020 22:15:00 2.4 C 5.42 g/m*3 2.4 C 0 km/h
845 02-12-2020 22:20:00 2.4 C 5.42 g/m*3 2.4 C 0 km/h
846 02-12-2020 22:25:00 2.4 C 5.42 g/m*3 2.4 C 0 km/h
847 02-12-2020 22:30:00 2.4 C 5.42 g/m*3 2.4 C 0 km/h
848 02-12-2020 22:35:00 2.4 C 5.42 g/m*3 2.4 C 0 km/h
849 02-12-2020 22:40:00 2.3 C 5.39 g/m*3 2.3 C 0 km/h
850 02-12-2020 22:45:00 2.3 C 5.39 g/m*3 2.3 C 0 km/h
Sensor: Nr:Datum:Temp:Abs-Feuchte:Windchill:Wind:
Aussen-T/F 851 02-12-2020 22:50:00 2.3 C 5.39 g/m*3 2.3 C 0 km/h
852 02-12-2020 22:55:00 2.3 C 5.39 g/m*3 2.3 C 0 km/h
853 02-12-2020 23:00:00 2.3 C 5.39 g/m*3 2.3 C 0 km/h
854 02-12-2020 23:05:00 2.3 C 5.39 g/m*3 2.3 C 0 km/h
855 02-12-2020 23:10:00 2.3 C 5.39 g/m*3 2.3 C 0 km/h
856 02-12-2020 23:15:00 2.3 C 5.39 g/m*3 2.3 C 0 km/h
857 02-12-2020 23:20:00 2.3 C 5.39 g/m*3 2.3 C 0 km/h
858 02-12-2020 23:25:00 2.2 C 5.35 g/m*3 2.2 C 0 km/h
859 02-12-2020 23:30:00 2.2 C 5.35 g/m*3 2.2 C 0 km/h
860 02-12-2020 23:35:00 2.2 C 5.35 g/m*3 2.2 C 0 km/h
861 02-12-2020 23:40:00 2.2 C 5.35 g/m*3 2.2 C 0 km/h
862 02-12-2020 23:45:00 2.3 C 5.39 g/m*3 2.3 C 0 km/h
863 02-12-2020 23:50:00 2.3 C 5.39 g/m*3 2.3 C 0 km/h
864 02-12-2020 23:55:00 2.3 C 5.39 g/m*3 2.3 C 0 km/h
865 03-12-2020 00:00:00 2.3 C 5.39 g/m*3 2.3 C 0 km/h
866 03-12-2020 00:05:00 2.3 C 5.39 g/m*3 2.3 C 0 km/h
867 03-12-2020 00:10:00 2.3 C 5.39 g/m*3 2.3 C 0 km/h
868 03-12-2020 00:15:00 2.3 C 5.39 g/m*3 2.3 C 0 km/h
869 03-12-2020 00:20:00 2.2 C 5.35 g/m*3 2.2 C 3.2 km/h
870 03-12-2020 00:25:00 2.2 C 5.35 g/m*3 2.2 C 3.2 km/h
871 03-12-2020 00:30:00 2.3 C 5.39 g/m*3 2.3 C 3.2 km/h
872 03-12-2020 00:35:00 2.3 C 5.39 g/m*3 2.3 C 0 km/h
873 03-12-2020 00:40:00 2.3 C 5.39 g/m*3 2.3 C 3.2 km/h
874 03-12-2020 00:45:00 2.3 C 5.39 g/m*3 2.3 C 0 km/h
875 03-12-2020 00:50:00 2.3 C 5.39 g/m*3 2.3 C 3.2 km/h
Sensor: Nr:Datum:Temp:Abs-Feuchte:Windchill:Wind:
Aussen-T/F 876 03-12-2020 00:55:00 2.3 C 5.39 g/m*3 2.3 C 0 km/h
877 03-12-2020 01:00:00 2.3 C 5.39 g/m*3 2.3 C 0 km/h
878 03-12-2020 01:05:00 2.3 C 5.39 g/m*3 2.3 C 0 km/h
879 03-12-2020 01:10:00 2.3 C 5.39 g/m*3 2.3 C 1.6 km/h
880 03-12-2020 01:15:00 2.3 C 5.39 g/m*3 2.3 C 0 km/h
881 03-12-2020 01:20:00 2.3 C 5.39 g/m*3 2.3 C 0 km/h
882 03-12-2020 01:25:00 2.3 C 5.39 g/m*3 2.3 C 0 km/h
883 03-12-2020 01:30:00 2.3 C 5.39 g/m*3 2.3 C 4.8 km/h
884 03-12-2020 01:35:00 2.3 C 5.39 g/m*3 2.3 C 4.8 km/h
885 03-12-2020 01:40:00 2.4 C 5.42 g/m*3 2.4 C 4.8 km/h
886 03-12-2020 01:45:00 2.4 C 5.42 g/m*3 2.4 C 4.8 km/h
887 03-12-2020 01:50:00 2.4 C 5.42 g/m*3 2.4 C 0 km/h
888 03-12-2020 01:55:00 2.4 C 5.42 g/m*3 2.4 C 4.8 km/h
889 03-12-2020 02:00:00 2.5 C 5.46 g/m*3 2.5 C 3.2 km/h
890 03-12-2020 02:05:00 2.5 C 5.46 g/m*3 2.5 C 0 km/h
891 03-12-2020 02:10:00 2.5 C 5.46 g/m*3 2.5 C 4.8 km/h
892 03-12-2020 02:15:00 2.6 C 5.5 g/m*3 2.6 C 3.2 km/h
893 03-12-2020 02:20:00 2.6 C 5.5 g/m*3 2.6 C 4.8 km/h
894 03-12-2020 02:25:00 2.6 C 5.5 g/m*3 0.82 C 6.4 km/h
895 03-12-2020 02:30:00 2.6 C 5.5 g/m*3 0.82 C 6.4 km/h
896 03-12-2020 02:35:00 2.6 C 5.5 g/m*3 2.6 C 4.8 km/h
897 03-12-2020 02:40:00 2.6 C 5.5 g/m*3 2.6 C 3.2 km/h
898 03-12-2020 02:45:00 2.6 C 5.5 g/m*3 2.6 C 3.2 km/h
899 03-12-2020 02:50:00 2.6 C 5.5 g/m*3 2.6 C 0 km/h
900 03-12-2020 02:55:00 2.6 C 5.5 g/m*3 2.6 C 0 km/h
Sensor: Nr:Datum:Temp:Abs-Feuchte:Windchill:Wind:
Aussen-T/F 901 03-12-2020 03:00:00 2.6 C 5.5 g/m*3 2.6 C 0 km/h
902 03-12-2020 03:05:00 2.6 C 5.5 g/m*3 2.6 C 3.2 km/h
903 03-12-2020 03:10:00 2.6 C 5.5 g/m*3 2.6 C 0 km/h
904 03-12-2020 03:15:00 2.6 C 5.5 g/m*3 2.6 C 0 km/h
905 03-12-2020 03:20:00 2.6 C 5.5 g/m*3 2.6 C 0 km/h
906 03-12-2020 03:25:00 2.6 C 5.5 g/m*3 2.6 C 0 km/h
907 03-12-2020 03:30:00 2.6 C 5.5 g/m*3 2.6 C 0 km/h
908 03-12-2020 03:35:00 2.6 C 5.5 g/m*3 2.6 C 1.6 km/h
909 03-12-2020 03:40:00 2.6 C 5.5 g/m*3 2.6 C 1.6 km/h
910 03-12-2020 03:45:00 2.6 C 5.5 g/m*3 2.6 C 4.8 km/h
911 03-12-2020 03:50:00 2.6 C 5.5 g/m*3 2.6 C 1.6 km/h
912 03-12-2020 03:55:00 2.6 C 5.5 g/m*3 2.6 C 3.2 km/h
913 03-12-2020 04:00:00 2.6 C 5.5 g/m*3 2.6 C 1.6 km/h
914 03-12-2020 04:05:00 2.6 C 5.5 g/m*3 0.82 C 6.4 km/h
915 03-12-2020 04:10:00 2.6 C 5.5 g/m*3 0.82 C 6.4 km/h
916 03-12-2020 04:15:00 2.6 C 5.5 g/m*3 2.6 C 4.8 km/h
917 03-12-2020 04:20:00 2.6 C 5.5 g/m*3 2.6 C 1.6 km/h
918 03-12-2020 04:25:00 2.5 C 5.46 g/m*3 0.71 C 6.4 km/h
919 03-12-2020 04:30:00 2.5 C 5.46 g/m*3 2.5 C 4.8 km/h
920 03-12-2020 04:35:00 2.5 C 5.46 g/m*3 2.5 C 3.2 km/h
921 03-12-2020 04:40:00 2.5 C 5.46 g/m*3 0.71 C 6.4 km/h
922 03-12-2020 04:45:00 2.4 C 5.42 g/m*3 2.4 C 3.2 km/h
923 03-12-2020 04:50:00 2.4 C 5.42 g/m*3 2.4 C 0 km/h
924 03-12-2020 04:55:00 2.4 C 5.42 g/m*3 2.4 C 0 km/h
925 03-12-2020 05:00:00 2.4 C 5.42 g/m*3 2.4 C 0 km/h
Sensor: Nr:Datum:Temp:Abs-Feuchte:Windchill:Wind:
Aussen-T/F 926 03-12-2020 05:05:00 2.4 C 5.48 g/m*3 2.4 C 1.6 km/h
927 03-12-2020 05:10:00 2.4 C 5.48 g/m*3 2.4 C 0 km/h
928 03-12-2020 05:15:00 2.4 C 5.48 g/m*3 2.4 C 0 km/h
929 03-12-2020 05:20:00 2.4 C 5.48 g/m*3 2.4 C 0 km/h
930 03-12-2020 05:25:00 2.4 C 5.48 g/m*3 2.4 C 0 km/h
931 03-12-2020 05:30:00 2.4 C 5.48 g/m*3 2.4 C 0 km/h
932 03-12-2020 05:35:00 2.5 C 5.52 g/m*3 2.5 C 0 km/h
933 03-12-2020 05:40:00 2.5 C 5.52 g/m*3 2.5 C 0 km/h
934 03-12-2020 05:45:00 2.5 C 5.52 g/m*3 2.5 C 1.6 km/h
935 03-12-2020 05:50:00 2.5 C 5.52 g/m*3 2.5 C 0 km/h
936 03-12-2020 05:55:00 2.5 C 5.52 g/m*3 2.5 C 0 km/h
937 03-12-2020 06:00:00 2.5 C 5.52 g/m*3 2.5 C 0 km/h
938 03-12-2020 06:05:00 2.5 C 5.52 g/m*3 2.5 C 0 km/h
939 03-12-2020 06:10:00 2.5 C 5.52 g/m*3 2.5 C 0 km/h
940 03-12-2020 06:15:00 2.6 C 5.56 g/m*3 2.6 C 0 km/h
941 03-12-2020 06:20:00 2.6 C 5.56 g/m*3 2.6 C 0 km/h
942 03-12-2020 06:25:00 2.6 C 5.56 g/m*3 2.6 C 0 km/h
943 03-12-2020 06:30:00 2.6 C 5.56 g/m*3 2.6 C 0 km/h
944 03-12-2020 06:35:00 2.6 C 5.56 g/m*3 2.6 C 0 km/h
945 03-12-2020 06:40:00 2.6 C 5.56 g/m*3 2.6 C 0 km/h
946 03-12-2020 06:45:00 2.6 C 5.56 g/m*3 2.6 C 0 km/h
947 03-12-2020 06:50:00 2.6 C 5.56 g/m*3 2.6 C 0 km/h
948 03-12-2020 06:55:00 2.6 C 5.56 g/m*3 2.6 C 0 km/h
949 03-12-2020 07:00:00 2.7 C 5.59 g/m*3 2.7 C 1.6 km/h
950 03-12-2020 07:05:00 2.7 C 5.59 g/m*3 2.7 C 0 km/h
Sensor: Nr:Datum:Temp:Abs-Feuchte:Windchill:Wind:
Aussen-T/F 951 03-12-2020 07:10:00 2.7 C 5.59 g/m*3 2.7 C 0 km/h
952 03-12-2020 07:15:00 2.7 C 5.59 g/m*3 2.7 C 0 km/h
953 03-12-2020 07:20:00 2.7 C 5.59 g/m*3 2.7 C 0 km/h
954 03-12-2020 07:25:00 2.7 C 5.59 g/m*3 2.7 C 1.6 km/h
955 03-12-2020 07:30:00 2.7 C 5.59 g/m*3 2.7 C 0 km/h
956 03-12-2020 07:35:00 2.7 C 5.59 g/m*3 2.7 C 0 km/h
957 03-12-2020 07:40:00 2.7 C 5.59 g/m*3 2.7 C 0 km/h
958 03-12-2020 07:45:00 2.7 C 5.59 g/m*3 2.7 C 0 km/h
959 03-12-2020 07:50:00 2.7 C 5.59 g/m*3 2.7 C 0 km/h
960 03-12-2020 07:55:00 2.7 C 5.59 g/m*3 2.7 C 0 km/h
961 03-12-2020 08:00:00 2.7 C 5.59 g/m*3 2.7 C 0 km/h
962 03-12-2020 08:05:00 2.7 C 5.59 g/m*3 2.7 C 0 km/h
963 03-12-2020 08:10:00 2.7 C 5.59 g/m*3 2.7 C 0 km/h
964 03-12-2020 08:15:00 2.8 C 5.63 g/m*3 2.8 C 3.2 km/h
965 03-12-2020 08:20:00 2.8 C 5.63 g/m*3 2.8 C 0 km/h
966 03-12-2020 08:25:00 2.8 C 5.63 g/m*3 2.8 C 0 km/h
967 03-12-2020 08:30:00 2.7 C 5.59 g/m*3 2.7 C 0 km/h
968 03-12-2020 08:35:00 2.7 C 5.59 g/m*3 2.7 C 0 km/h
969 03-12-2020 08:40:00 2.7 C 5.59 g/m*3 2.7 C 0 km/h
970 03-12-2020 08:45:00 2.7 C 5.59 g/m*3 2.7 C 4.8 km/h
971 03-12-2020 08:50:00 2.8 C 5.63 g/m*3 2.8 C 0 km/h
972 03-12-2020 08:55:00 2.8 C 5.63 g/m*3 2.8 C 0 km/h
973 03-12-2020 09:00:00 2.9 C 5.67 g/m*3 2.9 C 0 km/h
974 03-12-2020 09:05:00 2.9 C 5.67 g/m*3 2.9 C 4.8 km/h
975 03-12-2020 09:10:00 3 C 5.71 g/m*3 3 C 4.8 km/h
Sensor: Nr:Datum:Temp:Abs-Feuchte:Windchill:Wind:
Aussen-T/F 976 03-12-2020 09:15:00 3 C 5.71 g/m*3 3 C 1.6 km/h
977 03-12-2020 09:20:00 3.1 C 5.75 g/m*3 3.1 C 0 km/h
978 03-12-2020 09:25:00 3.1 C 5.75 g/m*3 3.1 C 3.2 km/h
979 03-12-2020 09:30:00 3.2 C 5.79 g/m*3 3.2 C 1.6 km/h
980 03-12-2020 09:35:00 3.2 C 5.79 g/m*3 3.2 C 0 km/h
981 03-12-2020 09:40:00 3.3 C 5.82 g/m*3 3.3 C 3.2 km/h
982 03-12-2020 09:45:00 3.4 C 5.86 g/m*3 3.4 C 1.6 km/h
983 03-12-2020 09:50:00 3.5 C 5.9 g/m*3 3.5 C 0 km/h
984 03-12-2020 09:55:00 3.6 C 5.88 g/m*3 3.6 C 3.2 km/h
985 03-12-2020 10:00:00 3.7 C 5.92 g/m*3 3.7 C 3.2 km/h
986 03-12-2020 10:05:00 3.7 C 5.92 g/m*3 3.7 C 4.8 km/h
987 03-12-2020 10:10:00 3.8 C 5.96 g/m*3 3.8 C 4.8 km/h
988 03-12-2020 10:15:00 4 C 5.98 g/m*3 4 C 4.8 km/h
989 03-12-2020 10:20:00 4.1 C 6.02 g/m*3 2.05 C 8.1 km/h
990 03-12-2020 10:25:00 4.1 C 6.02 g/m*3 4.1 C 1.6 km/h
991 03-12-2020 10:30:00 4.2 C 5.99 g/m*3 4.2 C 3.2 km/h
992 03-12-2020 10:35:00 4.2 C 5.99 g/m*3 4.2 C 1.6 km/h
993 03-12-2020 10:40:00 4.2 C 5.93 g/m*3 4.2 C 0 km/h
994 03-12-2020 10:45:00 4.2 C 5.99 g/m*3 4.2 C 3.2 km/h
995 03-12-2020 10:50:00 4.2 C 5.99 g/m*3 4.2 C 3.2 km/h
996 03-12-2020 10:55:00 4.2 C 5.93 g/m*3 4.2 C 3.2 km/h
997 03-12-2020 11:00:00 4.2 C 5.93 g/m*3 4.2 C 1.6 km/h
998 03-12-2020 11:05:00 4.2 C 5.93 g/m*3 4.2 C 4.8 km/h
999 03-12-2020 11:10:00 4.2 C 5.93 g/m*3 4.2 C 1.6 km/h
1000 03-12-2020 11:15:00 4.3 C 6.03 g/m*3 4.3 C 3.2 km/h
Sensor: Nr:Datum:Temp:Abs-Feuchte:Windchill:Wind:
Aussen-T/F 1001 03-12-2020 11:20:00 4.3 C 5.97 g/m*3 2.78 C 6.4 km/h
1002 03-12-2020 11:25:00 4.4 C 6.01 g/m*3 4.4 C 3.2 km/h
1003 03-12-2020 11:30:00 4.4 C 6.01 g/m*3 4.4 C 4.8 km/h
1004 03-12-2020 11:35:00 4.6 C 6.09 g/m*3 4.6 C 4.8 km/h
1005 03-12-2020 11:40:00 4.6 C 6.02 g/m*3 2.25 C 9.7 km/h
1006 03-12-2020 11:45:00 4.7 C 6.06 g/m*3 3.25 C 6.4 km/h
1007 03-12-2020 11:50:00 4.7 C 6.06 g/m*3 2.76 C 8.1 km/h
1008 03-12-2020 11:55:00 4.6 C 6.02 g/m*3 3.13 C 6.4 km/h
1009 03-12-2020 12:00:00 4.7 C 6.06 g/m*3 2.76 C 8.1 km/h
1010 03-12-2020 12:05:00 4.7 C 6.06 g/m*3 4.7 C 4.8 km/h
1011 03-12-2020 12:10:00 4.7 C 6 g/m*3 2.76 C 8.1 km/h
1012 03-12-2020 12:15:00 4.7 C 6 g/m*3 4.7 C 4.8 km/h
1013 03-12-2020 12:20:00 4.8 C 6.04 g/m*3 4.8 C 1.6 km/h
1014 03-12-2020 12:25:00 4.8 C 6.04 g/m*3 4.8 C 4.8 km/h
1015 03-12-2020 12:30:00 4.8 C 6.04 g/m*3 4.8 C 3.2 km/h
1016 03-12-2020 12:35:00 4.8 C 6.04 g/m*3 3.36 C 6.4 km/h
1017 03-12-2020 12:40:00 4.8 C 6.04 g/m*3 4.8 C 4.8 km/h
1018 03-12-2020 12:45:00 4.9 C 6.08 g/m*3 4.9 C 4.8 km/h
1019 03-12-2020 12:50:00 4.9 C 6.08 g/m*3 4.9 C 4.8 km/h
1020 03-12-2020 12:55:00 4.9 C 6.08 g/m*3 2.61 C 9.7 km/h
1021 03-12-2020 13:00:00 4.9 C 6.01 g/m*3 2.27 C 11.3 km/h
1022 03-12-2020 13:05:00 4.9 C 6.01 g/m*3 4.9 C 4.8 km/h
1023 03-12-2020 13:10:00 5 C 6.05 g/m*3 5 C 4.8 km/h
1024 03-12-2020 13:15:00 5.1 C 6.16 g/m*3 5.1 C 1.6 km/h
1025 03-12-2020 13:20:00 5.2 C 6.13 g/m*3 3.82 C 6.4 km/h
Sensor: Nr:Datum:Temp:Abs-Feuchte:Windchill:Wind:
Aussen-T/F 1026 03-12-2020 13:25:00 5.2 C 6.13 g/m*3 5.2 C 4.8 km/h
1027 03-12-2020 13:30:00 5.3 C 6.17 g/m*3 3.94 C 6.4 km/h
1028 03-12-2020 13:35:00 5.3 C 6.1 g/m*3 3.94 C 6.4 km/h
1029 03-12-2020 13:40:00 5.2 C 6.06 g/m*3 3.34 C 8.1 km/h
1030 03-12-2020 13:45:00 5.2 C 5.99 g/m*3 2.63 C 11.3 km/h
1031 03-12-2020 13:50:00 5.2 C 6.06 g/m*3 5.2 C 4.8 km/h
1032 03-12-2020 13:55:00 5.2 C 6.06 g/m*3 3.82 C 6.4 km/h
1033 03-12-2020 14:00:00 5.2 C 6.06 g/m*3 3.82 C 6.4 km/h
1034 03-12-2020 14:05:00 5.2 C 6.06 g/m*3 3.34 C 8.1 km/h
1035 03-12-2020 14:10:00 5.2 C 6.06 g/m*3 3.34 C 8.1 km/h
1036 03-12-2020 14:15:00 5.2 C 6.06 g/m*3 2.96 C 9.7 km/h
1037 03-12-2020 14:20:00 5.2 C 6.06 g/m*3 3.82 C 6.4 km/h
1038 03-12-2020 14:25:00 5.1 C 6.02 g/m*3 3.71 C 6.4 km/h
1039 03-12-2020 14:30:00 5.1 C 5.95 g/m*3 5.1 C 4.8 km/h
1040 03-12-2020 14:35:00 5 C 5.98 g/m*3 5 C 3.2 km/h
1041 03-12-2020 14:40:00 4.9 C 5.87 g/m*3 3.48 C 6.4 km/h
1042 03-12-2020 14:45:00 4.9 C 5.94 g/m*3 4.9 C 1.6 km/h
1043 03-12-2020 14:50:00 4.9 C 5.94 g/m*3 4.9 C 4.8 km/h
1044 03-12-2020 14:55:00 4.8 C 5.9 g/m*3 4.8 C 4.8 km/h
1045 03-12-2020 15:00:00 4.8 C 5.9 g/m*3 3.36 C 6.4 km/h
1046 03-12-2020 15:05:00 4.8 C 5.9 g/m*3 4.8 C 4.8 km/h
1047 03-12-2020 15:10:00 4.8 C 5.97 g/m*3 4.8 C 0 km/h
1048 03-12-2020 15:15:00 4.8 C 5.9 g/m*3 4.8 C 0 km/h
1049 03-12-2020 15:20:00 4.7 C 5.86 g/m*3 4.7 C 4.8 km/h
1050 03-12-2020 15:25:00 4.7 C 5.93 g/m*3 4.7 C 0 km/h
Sensor: Nr:Datum:Temp:Abs-Feuchte:Windchill:Wind:
Aussen-T/F 1051 03-12-2020 15:30:00 4.7 C 5.93 g/m*3 4.7 C 0 km/h
1052 03-12-2020 15:35:00 4.7 C 5.93 g/m*3 4.7 C 0 km/h
1053 03-12-2020 15:40:00 4.6 C 5.89 g/m*3 4.6 C 3.2 km/h
1054 03-12-2020 15:45:00 4.6 C 5.89 g/m*3 4.6 C 1.6 km/h
1055 03-12-2020 15:50:00 4.6 C 5.89 g/m*3 4.6 C 1.6 km/h
1056 03-12-2020 15:55:00 4.6 C 5.89 g/m*3 4.6 C 0 km/h
1057 03-12-2020 16:00:00 4.6 C 5.89 g/m*3 4.6 C 1.6 km/h
1058 03-12-2020 16:05:00 4.6 C 5.89 g/m*3 4.6 C 0 km/h
1059 03-12-2020 16:10:00 4.6 C 5.96 g/m*3 4.6 C 1.6 km/h
1060 03-12-2020 16:15:00 4.5 C 5.85 g/m*3 4.5 C 4.8 km/h
1061 03-12-2020 16:20:00 4.4 C 5.81 g/m*3 4.4 C 4.8 km/h
1062 03-12-2020 16:25:00 4.4 C 5.81 g/m*3 4.4 C 0 km/h
1063 03-12-2020 16:30:00 4.5 C 5.85 g/m*3 4.5 C 0 km/h
1064 03-12-2020 16:35:00 4.4 C 5.88 g/m*3 4.4 C 0 km/h
1065 03-12-2020 16:40:00 4.4 C 5.88 g/m*3 4.4 C 1.6 km/h
1066 03-12-2020 16:45:00 4.4 C 5.88 g/m*3 4.4 C 0 km/h
1067 03-12-2020 16:50:00 4.4 C 5.88 g/m*3 4.4 C 0 km/h
1068 03-12-2020 16:55:00 4.4 C 5.88 g/m*3 4.4 C 0 km/h
1069 03-12-2020 17:00:00 4.3 C 5.84 g/m*3 4.3 C 4.8 km/h
1070 03-12-2020 17:05:00 4.3 C 5.84 g/m*3 2.29 C 8.1 km/h
1071 03-12-2020 17:10:00 4.3 C 5.84 g/m*3 4.3 C 0 km/h
1072 03-12-2020 17:15:00 4.3 C 5.9 g/m*3 1.55 C 11.3 km/h
1073 03-12-2020 17:20:00 4.3 C 5.9 g/m*3 4.3 C 4.8 km/h
1074 03-12-2020 17:25:00 4.3 C 5.9 g/m*3 4.3 C 3.2 km/h
1075 03-12-2020 17:30:00 4.3 C 5.9 g/m*3 4.3 C 0 km/h
Sensor: Nr:Datum:Temp:Abs-Feuchte:Windchill:Wind:
Aussen-T/F 1076 03-12-2020 17:35:00 4.2 C 5.8 g/m*3 4.2 C 1.6 km/h
1077 03-12-2020 17:40:00 4.2 C 5.8 g/m*3 2.67 C 6.4 km/h
1078 03-12-2020 17:45:00 4.3 C 5.84 g/m*3 1.89 C 9.7 km/h
1079 03-12-2020 17:50:00 4.3 C 5.84 g/m*3 4.3 C 1.6 km/h
1080 03-12-2020 17:55:00 4.3 C 5.84 g/m*3 4.3 C 4.8 km/h
1081 03-12-2020 18:00:00 4.3 C 5.84 g/m*3 4.3 C 3.2 km/h
1082 03-12-2020 18:05:00 4.3 C 5.84 g/m*3 1.89 C 9.7 km/h
1083 03-12-2020 18:10:00 4.3 C 5.84 g/m*3 2.78 C 6.4 km/h
1084 03-12-2020 18:15:00 4.3 C 5.84 g/m*3 4.3 C 3.2 km/h
1085 03-12-2020 18:20:00 4.3 C 5.84 g/m*3 1.55 C 11.3 km/h
1086 03-12-2020 18:25:00 4.3 C 5.84 g/m*3 4.3 C 4.8 km/h
1087 03-12-2020 18:30:00 4.3 C 5.77 g/m*3 2.78 C 6.4 km/h
1088 03-12-2020 18:35:00 4.3 C 5.77 g/m*3 4.3 C 4.8 km/h
1089 03-12-2020 18:40:00 4.3 C 5.77 g/m*3 4.3 C 4.8 km/h
1090 03-12-2020 18:45:00 4.3 C 5.77 g/m*3 1.89 C 9.7 km/h
1091 03-12-2020 18:50:00 4.3 C 5.77 g/m*3 4.3 C 4.8 km/h
1092 03-12-2020 18:55:00 4.3 C 5.77 g/m*3 4.3 C 3.2 km/h
1093 03-12-2020 19:00:00 4.3 C 5.77 g/m*3 2.78 C 6.4 km/h
1094 03-12-2020 19:05:00 4.3 C 5.77 g/m*3 4.3 C 0 km/h
1095 03-12-2020 19:10:00 4.3 C 5.77 g/m*3 2.78 C 6.4 km/h
1096 03-12-2020 19:15:00 4.3 C 5.77 g/m*3 2.78 C 6.4 km/h
1097 03-12-2020 19:20:00 4.3 C 5.77 g/m*3 2.78 C 6.4 km/h
1098 03-12-2020 19:25:00 4.3 C 5.77 g/m*3 1.55 C 11.3 km/h
1099 03-12-2020 19:30:00 4.3 C 5.77 g/m*3 4.3 C 3.2 km/h
1100 03-12-2020 19:35:00 4.3 C 5.77 g/m*3 1.89 C 9.7 km/h
Sensor: Nr:Datum:Temp:Abs-Feuchte:Windchill:Wind:
Aussen-T/F 1101 03-12-2020 19:40:00 4.2 C 5.73 g/m*3 2.67 C 6.4 km/h
1102 03-12-2020 19:45:00 4.2 C 5.67 g/m*3 4.2 C 4.8 km/h
1103 03-12-2020 19:50:00 4.1 C 5.63 g/m*3 4.1 C 3.2 km/h
1104 03-12-2020 19:55:00 4.1 C 5.63 g/m*3 4.1 C 4.8 km/h
1105 03-12-2020 20:00:00 4.1 C 5.63 g/m*3 2.05 C 8.1 km/h
1106 03-12-2020 20:05:00 4.1 C 5.63 g/m*3 2.05 C 8.1 km/h
1107 03-12-2020 20:10:00 4.1 C 5.63 g/m*3 1.65 C 9.7 km/h
1108 03-12-2020 20:15:00 4.1 C 5.63 g/m*3 2.05 C 8.1 km/h
1109 03-12-2020 20:20:00 4 C 5.59 g/m*3 2.44 C 6.4 km/h
1110 03-12-2020 20:25:00 4 C 5.59 g/m*3 2.44 C 6.4 km/h
1111 03-12-2020 20:30:00 4 C 5.59 g/m*3 2.44 C 6.4 km/h
1112 03-12-2020 20:35:00 4 C 5.59 g/m*3 4 C 1.6 km/h
1113 03-12-2020 20:40:00 4 C 5.59 g/m*3 2.44 C 6.4 km/h
1114 03-12-2020 20:45:00 3.9 C 5.56 g/m*3 3.9 C 4.8 km/h
1115 03-12-2020 20:50:00 3.9 C 5.56 g/m*3 3.9 C 1.6 km/h
1116 03-12-2020 20:55:00 3.9 C 5.56 g/m*3 3.9 C 4.8 km/h
1117 03-12-2020 21:00:00 3.9 C 5.56 g/m*3 1.82 C 8.1 km/h
1118 03-12-2020 21:05:00 3.9 C 5.56 g/m*3 3.9 C 3.2 km/h
1119 03-12-2020 21:10:00 3.9 C 5.56 g/m*3 2.32 C 6.4 km/h
1120 03-12-2020 21:15:00 3.9 C 5.56 g/m*3 1.41 C 9.7 km/h
1121 03-12-2020 21:20:00 3.9 C 5.56 g/m*3 3.9 C 4.8 km/h
1122 03-12-2020 21:25:00 3.9 C 5.56 g/m*3 2.32 C 6.4 km/h
1123 03-12-2020 21:30:00 3.9 C 5.56 g/m*3 1.06 C 11.3 km/h
1124 03-12-2020 21:35:00 3.8 C 5.52 g/m*3 0.94 C 11.3 km/h
1125 03-12-2020 21:40:00 3.8 C 5.52 g/m*3 0.35 C 14.5 km/h
Sensor: Nr:Datum:Temp:Abs-Feuchte:Windchill:Wind:
Aussen-T/F 1126 03-12-2020 21:45:00 3.7 C 5.48 g/m*3 2.09 C 6.4 km/h
1127 03-12-2020 21:50:00 3.7 C 5.48 g/m*3 3.7 C 0 km/h
1128 03-12-2020 21:55:00 3.6 C 5.45 g/m*3 1.98 C 6.4 km/h
1129 03-12-2020 22:00:00 3.6 C 5.45 g/m*3 1.06 C 9.7 km/h
1130 03-12-2020 22:05:00 3.6 C 5.45 g/m*3 0.7 C 11.3 km/h
1131 03-12-2020 22:10:00 3.6 C 5.45 g/m*3 3.6 C 4.8 km/h
1132 03-12-2020 22:15:00 3.6 C 5.45 g/m*3 1.06 C 9.7 km/h
1133 03-12-2020 22:20:00 3.5 C 5.41 g/m*3 1.34 C 8.1 km/h
1134 03-12-2020 22:25:00 3.5 C 5.41 g/m*3 3.5 C 3.2 km/h
1135 03-12-2020 22:30:00 3.5 C 5.41 g/m*3 0.94 C 9.7 km/h
1136 03-12-2020 22:35:00 3.5 C 5.41 g/m*3 3.5 C 3.2 km/h
1137 03-12-2020 22:40:00 3.5 C 5.41 g/m*3 1.86 C 6.4 km/h
1138 03-12-2020 22:45:00 3.6 C 5.51 g/m*3 1.06 C 9.7 km/h
1139 03-12-2020 22:50:00 3.6 C 5.51 g/m*3 1.06 C 9.7 km/h
1140 03-12-2020 22:55:00 3.6 C 5.51 g/m*3 3.6 C 4.8 km/h
1141 03-12-2020 23:00:00 3.6 C 5.51 g/m*3 3.6 C 3.2 km/h
1142 03-12-2020 23:05:00 3.5 C 5.53 g/m*3 1.34 C 8.1 km/h
1143 03-12-2020 23:10:00 3.4 C 5.5 g/m*3 1.23 C 8.1 km/h
1144 03-12-2020 23:15:00 3.4 C 5.5 g/m*3 1.75 C 6.4 km/h
1145 03-12-2020 23:20:00 3.4 C 5.5 g/m*3 3.4 C 4.8 km/h
1146 03-12-2020 23:25:00 3.4 C 5.5 g/m*3 3.4 C 4.8 km/h
1147 03-12-2020 23:30:00 3.3 C 5.46 g/m*3 1.63 C 6.4 km/h
1148 03-12-2020 23:35:00 3.3 C 5.52 g/m*3 1.11 C 8.1 km/h
1149 03-12-2020 23:40:00 3.3 C 5.52 g/m*3 3.3 C 1.6 km/h
1150 03-12-2020 23:45:00 3.3 C 5.52 g/m*3 1.63 C 6.4 km/h
Sensor: Nr:Datum:Temp:Abs-Feuchte:Windchill:Wind:
Aussen-T/F 1151 03-12-2020 23:50:00 3.3 C 5.46 g/m*3 0.7 C 9.7 km/h
1152 03-12-2020 23:55:00 3.3 C 5.46 g/m*3 1.63 C 6.4 km/h
1153 04-12-2020 00:00:00 3.3 C 5.46 g/m*3 1.63 C 6.4 km/h
1154 04-12-2020 00:05:00 3.3 C 5.52 g/m*3 0.7 C 9.7 km/h
1155 04-12-2020 00:10:00 3.3 C 5.52 g/m*3 3.3 C 4.8 km/h
1156 04-12-2020 00:15:00 3.3 C 5.46 g/m*3 1.63 C 6.4 km/h
1157 04-12-2020 00:20:00 3.2 C 5.48 g/m*3 1.51 C 6.4 km/h
1158 04-12-2020 00:25:00 3.2 C 5.48 g/m*3 0.99 C 8.1 km/h
1159 04-12-2020 00:30:00 3.2 C 5.48 g/m*3 3.2 C 4.8 km/h
1160 04-12-2020 00:35:00 3.2 C 5.48 g/m*3 1.51 C 6.4 km/h
1161 04-12-2020 00:40:00 3.1 C 5.51 g/m*3 0.87 C 8.1 km/h
1162 04-12-2020 00:45:00 3.1 C 5.51 g/m*3 1.4 C 6.4 km/h
1163 04-12-2020 00:50:00 3.1 C 5.45 g/m*3 -0.22 C 12.9 km/h
1164 04-12-2020 00:55:00 3.1 C 5.45 g/m*3 -0.22 C 12.9 km/h
1165 04-12-2020 01:00:00 3.1 C 5.45 g/m*3 -1.45 C 20.9 km/h
1166 04-12-2020 01:05:00 3.1 C 5.45 g/m*3 -0.51 C 14.5 km/h
1167 04-12-2020 01:10:00 3.1 C 5.45 g/m*3 0.46 C 9.7 km/h
1168 04-12-2020 01:15:00 3.1 C 5.45 g/m*3 1.4 C 6.4 km/h
1169 04-12-2020 01:20:00 3 C 5.41 g/m*3 0.34 C 9.7 km/h
1170 04-12-2020 01:25:00 3 C 5.41 g/m*3 0.34 C 9.7 km/h
1171 04-12-2020 01:30:00 3 C 5.41 g/m*3 -0.34 C 12.9 km/h
1172 04-12-2020 01:35:00 3 C 5.41 g/m*3 -0.34 C 12.9 km/h
1173 04-12-2020 01:40:00 3 C 5.41 g/m*3 0.76 C 8.1 km/h
1174 04-12-2020 01:45:00 2.9 C 5.37 g/m*3 -0.46 C 12.9 km/h
1175 04-12-2020 01:50:00 2.9 C 5.37 g/m*3 -0.76 C 14.5 km/h
Sensor: Nr:Datum:Temp:Abs-Feuchte:Windchill:Wind:
Aussen-T/F 1176 04-12-2020 01:55:00 2.9 C 5.37 g/m*3 0.64 C 8.1 km/h
1177 04-12-2020 02:00:00 2.9 C 5.37 g/m*3 0.64 C 8.1 km/h
1178 04-12-2020 02:05:00 2.9 C 5.37 g/m*3 -0.14 C 11.3 km/h
1179 04-12-2020 02:10:00 2.8 C 5.34 g/m*3 0.1 C 9.7 km/h
1180 04-12-2020 02:15:00 2.8 C 5.34 g/m*3 -0.26 C 11.3 km/h
1181 04-12-2020 02:20:00 2.8 C 5.34 g/m*3 1.05 C 6.4 km/h
1182 04-12-2020 02:25:00 2.9 C 5.37 g/m*3 -1.02 C 16.1 km/h
1183 04-12-2020 02:30:00 2.9 C 5.43 g/m*3 -0.46 C 12.9 km/h
1184 04-12-2020 02:35:00 2.9 C 5.37 g/m*3 0.22 C 9.7 km/h
1185 04-12-2020 02:40:00 2.9 C 5.43 g/m*3 -0.76 C 14.5 km/h
1186 04-12-2020 02:45:00 2.9 C 5.43 g/m*3 -0.46 C 12.9 km/h
1187 04-12-2020 02:50:00 2.9 C 5.43 g/m*3 -0.46 C 12.9 km/h
1188 04-12-2020 02:55:00 2.9 C 5.43 g/m*3 0.22 C 9.7 km/h
1189 04-12-2020 03:00:00 2.9 C 5.43 g/m*3 -0.14 C 11.3 km/h
1190 04-12-2020 03:05:00 3 C 5.47 g/m*3 0.76 C 8.1 km/h
1191 04-12-2020 03:10:00 3 C 5.47 g/m*3 0.76 C 8.1 km/h
1192 04-12-2020 03:15:00 3 C 5.53 g/m*3 -0.02 C 11.3 km/h
1193 04-12-2020 03:20:00 3.1 C 5.57 g/m*3 1.4 C 6.4 km/h
1194 04-12-2020 03:25:00 3.1 C 5.57 g/m*3 0.87 C 8.1 km/h
1195 04-12-2020 03:30:00 3.1 C 5.57 g/m*3 0.87 C 8.1 km/h
1196 04-12-2020 03:35:00 3.1 C 5.57 g/m*3 1.4 C 6.4 km/h
1197 04-12-2020 03:40:00 3.1 C 5.57 g/m*3 0.46 C 9.7 km/h
1198 04-12-2020 03:45:00 3.1 C 5.57 g/m*3 0.1 C 11.3 km/h
1199 04-12-2020 03:50:00 3.1 C 5.57 g/m*3 0.46 C 9.7 km/h
1200 04-12-2020 03:55:00 3.1 C 5.57 g/m*3 0.87 C 8.1 km/h
Sensor: Nr:Datum:Temp:Abs-Feuchte:Windchill:Wind:
Aussen-T/F 1201 04-12-2020 04:00:00 3.2 C 5.6 g/m*3 -0.1 C 12.9 km/h
1202 04-12-2020 04:05:00 3.2 C 5.6 g/m*3 -0.89 C 17.7 km/h
1203 04-12-2020 04:10:00 3.2 C 5.6 g/m*3 0.22 C 11.3 km/h
1204 04-12-2020 04:15:00 3.3 C 5.64 g/m*3 0.02 C 12.9 km/h
1205 04-12-2020 04:20:00 3.3 C 5.64 g/m*3 -0.26 C 14.5 km/h
1206 04-12-2020 04:25:00 3.3 C 5.64 g/m*3 0.7 C 9.7 km/h
1207 04-12-2020 04:30:00 3.2 C 5.6 g/m*3 0.22 C 11.3 km/h
1208 04-12-2020 04:35:00 3.2 C 5.6 g/m*3 0.58 C 9.7 km/h
1209 04-12-2020 04:40:00 3.2 C 5.6 g/m*3 -0.65 C 16.1 km/h
1210 04-12-2020 04:45:00 3.2 C 5.6 g/m*3 0.99 C 8.1 km/h
1211 04-12-2020 04:50:00 3.2 C 5.6 g/m*3 0.22 C 11.3 km/h
1212 04-12-2020 04:55:00 3.3 C 5.64 g/m*3 0.02 C 12.9 km/h
1213 04-12-2020 05:00:00 3.3 C 5.64 g/m*3 1.11 C 8.1 km/h
1214 04-12-2020 05:05:00 3.3 C 5.64 g/m*3 1.63 C 6.4 km/h
1215 04-12-2020 05:10:00 3.3 C 5.64 g/m*3 1.11 C 8.1 km/h
1216 04-12-2020 05:15:00 3.4 C 5.68 g/m*3 1.75 C 6.4 km/h
1217 04-12-2020 05:20:00 3.4 C 5.68 g/m*3 1.23 C 8.1 km/h
1218 04-12-2020 05:25:00 3.4 C 5.68 g/m*3 1.23 C 8.1 km/h
1219 04-12-2020 05:30:00 3.4 C 5.68 g/m*3 3.4 C 4.8 km/h
1220 04-12-2020 05:35:00 3.4 C 5.68 g/m*3 1.23 C 8.1 km/h
1221 04-12-2020 05:40:00 3.5 C 5.72 g/m*3 3.5 C 4.8 km/h
1222 04-12-2020 05:45:00 3.5 C 5.78 g/m*3 3.5 C 3.2 km/h
1223 04-12-2020 05:50:00 3.5 C 5.78 g/m*3 3.5 C 0 km/h
1224 04-12-2020 05:55:00 3.5 C 5.78 g/m*3 3.5 C 1.6 km/h
1225 04-12-2020 06:00:00 3.5 C 5.78 g/m*3 3.5 C 4.8 km/h
Sensor: Nr:Datum:Temp:Abs-Feuchte:Windchill:Wind:
Aussen-T/F 1226 04-12-2020 06:05:00 3.6 C 5.82 g/m*3 3.6 C 3.2 km/h
1227 04-12-2020 06:10:00 3.6 C 5.82 g/m*3 3.6 C 0 km/h
1228 04-12-2020 06:15:00 3.6 C 5.82 g/m*3 1.06 C 9.7 km/h
1229 04-12-2020 06:20:00 3.6 C 5.88 g/m*3 3.6 C 4.8 km/h
1230 04-12-2020 06:25:00 3.7 C 5.92 g/m*3 3.7 C 0 km/h
1231 04-12-2020 06:30:00 3.7 C 5.92 g/m*3 3.7 C 3.2 km/h
1232 04-12-2020 06:35:00 3.7 C 5.92 g/m*3 3.7 C 1.6 km/h
1233 04-12-2020 06:40:00 3.7 C 5.92 g/m*3 2.09 C 6.4 km/h
1234 04-12-2020 06:45:00 3.8 C 5.96 g/m*3 3.8 C 4.8 km/h
1235 04-12-2020 06:50:00 3.8 C 5.96 g/m*3 3.8 C 4.8 km/h
1236 04-12-2020 06:55:00 3.8 C 5.96 g/m*3 3.8 C 4.8 km/h
1237 04-12-2020 07:00:00 3.8 C 5.96 g/m*3 3.8 C 1.6 km/h
1238 04-12-2020 07:05:00 3.8 C 5.96 g/m*3 3.8 C 1.6 km/h
1239 04-12-2020 07:10:00 3.7 C 5.92 g/m*3 3.7 C 4.8 km/h
1240 04-12-2020 07:15:00 3.8 C 5.96 g/m*3 3.8 C 3.2 km/h
1241 04-12-2020 07:20:00 3.7 C 5.92 g/m*3 3.7 C 4.8 km/h
1242 04-12-2020 07:25:00 3.7 C 5.92 g/m*3 1.58 C 8.1 km/h
1243 04-12-2020 07:30:00 3.8 C 5.96 g/m*3 3.8 C 3.2 km/h
1244 04-12-2020 07:35:00 3.8 C 5.96 g/m*3 3.8 C 0 km/h
1245 04-12-2020 07:40:00 3.8 C 5.96 g/m*3 3.8 C 4.8 km/h
1246 04-12-2020 07:45:00 3.8 C 5.96 g/m*3 3.8 C 0 km/h
1247 04-12-2020 07:50:00 3.8 C 5.96 g/m*3 3.8 C 0 km/h
1248 04-12-2020 07:55:00 3.8 C 5.96 g/m*3 3.8 C 0 km/h
1249 04-12-2020 08:00:00 3.8 C 5.96 g/m*3 3.8 C 1.6 km/h
1250 04-12-2020 08:05:00 3.9 C 6.06 g/m*3 3.9 C 4.8 km/h
Sensor: Nr:Datum:Temp:Abs-Feuchte:Windchill:Wind:
Aussen-T/F 1251 04-12-2020 08:10:00 4 C 6.1 g/m*3 4 C 1.6 km/h
1252 04-12-2020 08:15:00 4 C 6.1 g/m*3 4 C 3.2 km/h
1253 04-12-2020 08:20:00 4 C 6.1 g/m*3 4 C 0 km/h
1254 04-12-2020 08:25:00 4 C 6.1 g/m*3 4 C 1.6 km/h
1255 04-12-2020 08:30:00 4.1 C 6.14 g/m*3 4.1 C 1.6 km/h
1256 04-12-2020 08:35:00 4.2 C 6.19 g/m*3 1.77 C 9.7 km/h
1257 04-12-2020 08:40:00 4.3 C 6.23 g/m*3 4.3 C 1.6 km/h
1258 04-12-2020 08:45:00 4.3 C 6.23 g/m*3 4.3 C 1.6 km/h
1259 04-12-2020 08:50:00 4.3 C 6.23 g/m*3 1.55 C 11.3 km/h
1260 04-12-2020 08:55:00 4.4 C 6.27 g/m*3 4.4 C 1.6 km/h
1261 04-12-2020 09:00:00 4.4 C 6.27 g/m*3 4.4 C 3.2 km/h
1262 04-12-2020 09:05:00 4.4 C 6.27 g/m*3 4.4 C 1.6 km/h
1263 04-12-2020 09:10:00 4.4 C 6.27 g/m*3 4.4 C 0 km/h
1264 04-12-2020 09:15:00 4.4 C 6.27 g/m*3 4.4 C 4.8 km/h
1265 04-12-2020 09:20:00 4.4 C 6.27 g/m*3 2.9 C 6.4 km/h
1266 04-12-2020 09:25:00 4.5 C 6.31 g/m*3 4.5 C 3.2 km/h
1267 04-12-2020 09:30:00 4.6 C 6.35 g/m*3 3.13 C 6.4 km/h
1268 04-12-2020 09:35:00 4.7 C 6.39 g/m*3 3.25 C 6.4 km/h
1269 04-12-2020 09:40:00 4.8 C 6.44 g/m*3 4.8 C 4.8 km/h
1270 04-12-2020 09:45:00 4.9 C 6.48 g/m*3 4.9 C 4.8 km/h
1271 04-12-2020 09:50:00 5 C 6.52 g/m*3 5 C 0 km/h
1272 04-12-2020 09:55:00 5.1 C 6.57 g/m*3 5.1 C 1.6 km/h
1273 04-12-2020 10:00:00 5.2 C 6.61 g/m*3 3.82 C 6.4 km/h
1274 04-12-2020 10:05:00 5.3 C 6.65 g/m*3 5.3 C 1.6 km/h
1275 04-12-2020 10:10:00 5.3 C 6.65 g/m*3 5.3 C 3.2 km/h
Sensor: Nr:Datum:Temp:Abs-Feuchte:Windchill:Wind:
Aussen-T/F 1276 04-12-2020 10:15:00 5.3 C 6.65 g/m*3 5.3 C 1.6 km/h
1277 04-12-2020 10:20:00 5.3 C 6.65 g/m*3 3.94 C 6.4 km/h
1278 04-12-2020 10:25:00 5.3 C 6.65 g/m*3 5.3 C 1.6 km/h
1279 04-12-2020 10:30:00 5.4 C 6.7 g/m*3 5.4 C 0 km/h
1280 04-12-2020 10:35:00 5.4 C 6.7 g/m*3 3.58 C 8.1 km/h
1281 04-12-2020 10:40:00 5.4 C 6.7 g/m*3 5.4 C 1.6 km/h
1282 04-12-2020 10:45:00 5.5 C 6.74 g/m*3 5.5 C 3.2 km/h
1283 04-12-2020 10:50:00 5.5 C 6.74 g/m*3 5.5 C 3.2 km/h
1284 04-12-2020 10:55:00 5.5 C 6.74 g/m*3 5.5 C 4.8 km/h
1285 04-12-2020 11:00:00 5.5 C 6.74 g/m*3 5.5 C 1.6 km/h
1286 04-12-2020 11:05:00 5.6 C 6.79 g/m*3 5.6 C 4.8 km/h
1287 04-12-2020 11:10:00 5.6 C 6.79 g/m*3 5.6 C 3.2 km/h
1288 04-12-2020 11:15:00 5.7 C 6.83 g/m*3 3.93 C 8.1 km/h
1289 04-12-2020 11:20:00 5.8 C 6.88 g/m*3 5.8 C 3.2 km/h
1290 04-12-2020 11:25:00 5.9 C 6.92 g/m*3 5.9 C 3.2 km/h
1291 04-12-2020 11:30:00 6.1 C 7.01 g/m*3 6.1 C 0 km/h
1292 04-12-2020 11:35:00 6.2 C 7.06 g/m*3 6.2 C 4.8 km/h
1293 04-12-2020 11:40:00 6.3 C 7.11 g/m*3 6.3 C 0 km/h
1294 04-12-2020 11:45:00 6.5 C 7.2 g/m*3 6.5 C 0 km/h
1295 04-12-2020 11:50:00 6.7 C 7.29 g/m*3 6.7 C 1.6 km/h
1296 04-12-2020 11:55:00 6.7 C 7.22 g/m*3 6.7 C 1.6 km/h
1297 04-12-2020 12:00:00 6.7 C 7.22 g/m*3 6.7 C 3.2 km/h
1298 04-12-2020 12:05:00 6.7 C 7.14 g/m*3 6.7 C 4.8 km/h
1299 04-12-2020 12:10:00 6.7 C 7.14 g/m*3 6.7 C 0 km/h
1300 04-12-2020 12:15:00 6.8 C 7.19 g/m*3 6.8 C 0 km/h
Sensor: Nr:Datum:Temp:Abs-Feuchte:Windchill:Wind:
Aussen-T/F 1301 04-12-2020 12:20:00 6.9 C 7.31 g/m*3 6.9 C 0 km/h
1302 04-12-2020 12:25:00 7.1 C 7.33 g/m*3 7.1 C 4.8 km/h
1303 04-12-2020 12:30:00 7.1 C 7.33 g/m*3 7.1 C 0 km/h
1304 04-12-2020 12:35:00 7.1 C 7.25 g/m*3 7.1 C 3.2 km/h
1305 04-12-2020 12:40:00 7.1 C 7.25 g/m*3 7.1 C 0 km/h
1306 04-12-2020 12:45:00 7.1 C 7.25 g/m*3 7.1 C 1.6 km/h
1307 04-12-2020 12:50:00 7.2 C 7.3 g/m*3 7.2 C 1.6 km/h
1308 04-12-2020 12:55:00 7.2 C 7.3 g/m*3 7.2 C 0 km/h
1309 04-12-2020 13:00:00 7.2 C 7.3 g/m*3 7.2 C 0 km/h
1310 04-12-2020 13:05:00 7.2 C 7.3 g/m*3 7.2 C 0 km/h
1311 04-12-2020 13:10:00 7.2 C 7.3 g/m*3 7.2 C 3.2 km/h
1312 04-12-2020 13:15:00 7.2 C 7.22 g/m*3 7.2 C 4.8 km/h
1313 04-12-2020 13:20:00 7.2 C 7.22 g/m*3 7.2 C 0 km/h
1314 04-12-2020 13:25:00 7.3 C 7.27 g/m*3 7.3 C 1.6 km/h
1315 04-12-2020 13:30:00 7.3 C 7.27 g/m*3 7.3 C 4.8 km/h
1316 04-12-2020 13:35:00 7.4 C 7.32 g/m*3 7.4 C 3.2 km/h
1317 04-12-2020 13:40:00 7.4 C 7.32 g/m*3 7.4 C 3.2 km/h
1318 04-12-2020 13:45:00 7.4 C 7.24 g/m*3 6.37 C 6.4 km/h
1319 04-12-2020 13:50:00 7.5 C 7.28 g/m*3 7.5 C 0 km/h
1320 04-12-2020 13:55:00 7.6 C 7.41 g/m*3 7.6 C 0 km/h
1321 04-12-2020 14:00:00 7.6 C 7.41 g/m*3 7.6 C 0 km/h
1322 04-12-2020 14:05:00 7.6 C 7.33 g/m*3 7.6 C 0 km/h
1323 04-12-2020 14:10:00 7.6 C 7.33 g/m*3 7.6 C 0 km/h
1324 04-12-2020 14:15:00 7.6 C 7.33 g/m*3 7.6 C 0 km/h
1325 04-12-2020 14:20:00 7.7 C 7.38 g/m*3 7.7 C 0 km/h
Sensor: Nr:Datum:Temp:Abs-Feuchte:Windchill:Wind:
Aussen-T/F 1326 04-12-2020 14:25:00 7.7 C 7.46 g/m*3 7.7 C 0 km/h
1327 04-12-2020 14:30:00 7.7 C 7.38 g/m*3 7.7 C 0 km/h
1328 04-12-2020 14:35:00 7.7 C 7.38 g/m*3 7.7 C 0 km/h
1329 04-12-2020 14:40:00 7.7 C 7.46 g/m*3 7.7 C 0 km/h
1330 04-12-2020 14:45:00 7.6 C 7.41 g/m*3 7.6 C 0 km/h
1331 04-12-2020 14:50:00 7.6 C 7.41 g/m*3 7.6 C 1.6 km/h
1332 04-12-2020 14:55:00 7.6 C 7.41 g/m*3 7.6 C 0 km/h
1333 04-12-2020 15:00:00 7.4 C 7.32 g/m*3 7.4 C 3.2 km/h
1334 04-12-2020 15:05:00 7.4 C 7.32 g/m*3 7.4 C 0 km/h
1335 04-12-2020 15:10:00 7.3 C 7.27 g/m*3 7.3 C 0 km/h
1336 04-12-2020 15:15:00 7.3 C 7.27 g/m*3 7.3 C 0 km/h
1337 04-12-2020 15:20:00 7.2 C 7.22 g/m*3 7.2 C 0 km/h
1338 04-12-2020 15:25:00 7.1 C 7.18 g/m*3 7.1 C 0 km/h
1339 04-12-2020 15:30:00 7 C 7.13 g/m*3 7 C 3.2 km/h
1340 04-12-2020 15:35:00 6.9 C 7.08 g/m*3 6.9 C 0 km/h
1341 04-12-2020 15:40:00 6.8 C 7.04 g/m*3 6.8 C 1.6 km/h
1342 04-12-2020 15:45:00 6.8 C 7.04 g/m*3 6.8 C 0 km/h
1343 04-12-2020 15:50:00 6.7 C 7.07 g/m*3 6.7 C 3.2 km/h
1344 04-12-2020 15:55:00 6.7 C 6.99 g/m*3 6.7 C 0 km/h
1345 04-12-2020 16:00:00 6.6 C 7.02 g/m*3 6.6 C 0 km/h
1346 04-12-2020 16:05:00 6.5 C 6.97 g/m*3 6.5 C 3.2 km/h
1347 04-12-2020 16:10:00 6.4 C 6.93 g/m*3 6.4 C 1.6 km/h
1348 04-12-2020 16:15:00 6.3 C 6.88 g/m*3 6.3 C 0 km/h
1349 04-12-2020 16:20:00 6.2 C 6.84 g/m*3 6.2 C 0 km/h
1350 04-12-2020 16:25:00 6.2 C 6.84 g/m*3 6.2 C 3.2 km/h
Sensor: Nr:Datum:Temp:Abs-Feuchte:Windchill:Wind:
Aussen-T/F 1351 04-12-2020 16:30:00 6.1 C 6.79 g/m*3 6.1 C 4.8 km/h
1352 04-12-2020 16:35:00 6 C 6.75 g/m*3 6 C 0 km/h
1353 04-12-2020 16:40:00 5.9 C 6.71 g/m*3 5.9 C 0 km/h
1354 04-12-2020 16:45:00 5.8 C 6.66 g/m*3 5.8 C 3.2 km/h
1355 04-12-2020 16:50:00 5.7 C 6.62 g/m*3 5.7 C 4.8 km/h
1356 04-12-2020 16:55:00 5.7 C 6.62 g/m*3 5.7 C 3.2 km/h
1357 04-12-2020 17:00:00 5.6 C 6.57 g/m*3 5.6 C 3.2 km/h
1358 04-12-2020 17:05:00 5.5 C 6.53 g/m*3 5.5 C 3.2 km/h
1359 04-12-2020 17:10:00 5.4 C 6.56 g/m*3 5.4 C 4.8 km/h
1360 04-12-2020 17:15:00 5.3 C 6.52 g/m*3 5.3 C 4.8 km/h
1361 04-12-2020 17:20:00 5.3 C 6.52 g/m*3 5.3 C 1.6 km/h
1362 04-12-2020 17:25:00 5.2 C 6.47 g/m*3 5.2 C 1.6 km/h
1363 04-12-2020 17:30:00 5.2 C 6.47 g/m*3 5.2 C 0 km/h
1364 04-12-2020 17:35:00 5.1 C 6.43 g/m*3 5.1 C 4.8 km/h
1365 04-12-2020 17:40:00 5 C 6.39 g/m*3 5 C 4.8 km/h
1366 04-12-2020 17:45:00 4.9 C 6.35 g/m*3 4.9 C 3.2 km/h
1367 04-12-2020 17:50:00 4.9 C 6.35 g/m*3 4.9 C 3.2 km/h
1368 04-12-2020 17:55:00 4.9 C 6.35 g/m*3 4.9 C 3.2 km/h
1369 04-12-2020 18:00:00 4.8 C 6.3 g/m*3 4.8 C 3.2 km/h
1370 04-12-2020 18:05:00 4.8 C 6.3 g/m*3 4.8 C 4.8 km/h
1371 04-12-2020 18:10:00 4.7 C 6.26 g/m*3 4.7 C 4.8 km/h
1372 04-12-2020 18:15:00 4.6 C 6.22 g/m*3 4.6 C 4.8 km/h
1373 04-12-2020 18:20:00 4.6 C 6.29 g/m*3 4.6 C 4.8 km/h
1374 04-12-2020 18:25:00 4.5 C 6.24 g/m*3 4.5 C 4.8 km/h
1375 04-12-2020 18:30:00 4.4 C 6.14 g/m*3 4.4 C 4.8 km/h
Sensor: Nr:Datum:Temp:Abs-Feuchte:Windchill:Wind:
Aussen-T/F 1376 04-12-2020 18:35:00 4.4 C 6.2 g/m*3 4.4 C 4.8 km/h
1377 04-12-2020 18:40:00 4.4 C 6.2 g/m*3 4.4 C 4.8 km/h
1378 04-12-2020 18:45:00 4.3 C 6.16 g/m*3 4.3 C 4.8 km/h
1379 04-12-2020 18:50:00 4.3 C 6.16 g/m*3 4.3 C 4.8 km/h
1380 04-12-2020 18:55:00 4.2 C 6.12 g/m*3 4.2 C 3.2 km/h
1381 04-12-2020 19:00:00 4 C 5.98 g/m*3 4 C 4.8 km/h
1382 04-12-2020 19:05:00 3.8 C 5.96 g/m*3 3.8 C 4.8 km/h
1383 04-12-2020 19:10:00 3.8 C 5.96 g/m*3 3.8 C 4.8 km/h
1384 04-12-2020 19:15:00 3.7 C 5.92 g/m*3 3.7 C 0 km/h
1385 04-12-2020 19:20:00 3.7 C 5.92 g/m*3 3.7 C 4.8 km/h
1386 04-12-2020 19:25:00 3.6 C 5.88 g/m*3 3.6 C 4.8 km/h
1387 04-12-2020 19:30:00 3.6 C 5.88 g/m*3 3.6 C 4.8 km/h
1388 04-12-2020 19:35:00 3.5 C 5.84 g/m*3 3.5 C 4.8 km/h
1389 04-12-2020 19:40:00 3.5 C 5.84 g/m*3 3.5 C 4.8 km/h
1390 04-12-2020 19:45:00 3.6 C 5.88 g/m*3 3.6 C 1.6 km/h
1391 04-12-2020 19:50:00 3.7 C 5.98 g/m*3 3.7 C 0 km/h
1392 04-12-2020 19:55:00 3.7 C 5.98 g/m*3 3.7 C 0 km/h
1393 04-12-2020 20:00:00 3.7 C 5.98 g/m*3 3.7 C 0 km/h
1394 04-12-2020 20:05:00 3.8 C 6.02 g/m*3 3.8 C 0 km/h
1395 04-12-2020 20:10:00 3.8 C 6.02 g/m*3 3.8 C 0 km/h
1396 04-12-2020 20:15:00 3.9 C 6.06 g/m*3 3.9 C 0 km/h
1397 04-12-2020 20:20:00 3.9 C 6.06 g/m*3 3.9 C 0 km/h
1398 04-12-2020 20:25:00 4 C 6.1 g/m*3 4 C 0 km/h
1399 04-12-2020 20:30:00 4 C 6.1 g/m*3 4 C 0 km/h
1400 04-12-2020 20:35:00 4 C 6.1 g/m*3 4 C 0 km/h
Sensor: Nr:Datum:Temp:Abs-Feuchte:Windchill:Wind:
Aussen-T/F 1401 04-12-2020 20:40:00 3.9 C 6.06 g/m*3 3.9 C 0 km/h
1402 04-12-2020 20:45:00 3.8 C 6.02 g/m*3 3.8 C 0 km/h
1403 04-12-2020 20:50:00 3.7 C 5.92 g/m*3 3.7 C 0 km/h
1404 04-12-2020 20:55:00 3.6 C 5.94 g/m*3 3.6 C 0 km/h
1405 04-12-2020 21:00:00 3.5 C 5.9 g/m*3 3.5 C 0 km/h
1406 04-12-2020 21:05:00 3.4 C 5.8 g/m*3 3.4 C 0 km/h
1407 04-12-2020 21:10:00 3.3 C 5.82 g/m*3 3.3 C 0 km/h
1408 04-12-2020 21:15:00 3.3 C 5.82 g/m*3 3.3 C 0 km/h
1409 04-12-2020 21:20:00 3.3 C 5.82 g/m*3 3.3 C 0 km/h
1410 04-12-2020 21:25:00 3.3 C 5.82 g/m*3 3.3 C 0 km/h
1411 04-12-2020 21:30:00 3.4 C 5.86 g/m*3 3.4 C 0 km/h
1412 04-12-2020 21:35:00 3.4 C 5.86 g/m*3 3.4 C 0 km/h
1413 04-12-2020 21:40:00 3.3 C 5.82 g/m*3 3.3 C 0 km/h
1414 04-12-2020 21:45:00 3.3 C 5.82 g/m*3 3.3 C 0 km/h
1415 04-12-2020 21:50:00 3.3 C 5.82 g/m*3 3.3 C 0 km/h
1416 04-12-2020 21:55:00 3.3 C 5.82 g/m*3 3.3 C 0 km/h
1417 04-12-2020 22:00:00 3.3 C 5.82 g/m*3 3.3 C 0 km/h
1418 04-12-2020 22:05:00 3.3 C 5.82 g/m*3 3.3 C 0 km/h
1419 04-12-2020 22:10:00 3.3 C 5.82 g/m*3 3.3 C 0 km/h
1420 04-12-2020 22:15:00 3.3 C 5.82 g/m*3 3.3 C 0 km/h
1421 04-12-2020 22:20:00 3.3 C 5.82 g/m*3 3.3 C 0 km/h
1422 04-12-2020 22:25:00 3.3 C 5.82 g/m*3 3.3 C 0 km/h
1423 04-12-2020 22:30:00 3.3 C 5.82 g/m*3 3.3 C 0 km/h
1424 04-12-2020 22:35:00 3.4 C 5.86 g/m*3 3.4 C 0 km/h
1425 04-12-2020 22:40:00 3.4 C 5.86 g/m*3 3.4 C 0 km/h
Sensor: Nr:Datum:Temp:Abs-Feuchte:Windchill:Wind:
Aussen-T/F 1426 04-12-2020 22:45:00 3.4 C 5.86 g/m*3 3.4 C 0 km/h
1427 04-12-2020 22:50:00 3.4 C 5.86 g/m*3 3.4 C 0 km/h
1428 04-12-2020 22:55:00 3.6 C 5.94 g/m*3 3.6 C 0 km/h
1429 04-12-2020 23:00:00 3.7 C 5.98 g/m*3 3.7 C 0 km/h
1430 04-12-2020 23:05:00 3.8 C 6.09 g/m*3 1.7 C 8.1 km/h
1431 04-12-2020 23:10:00 4.2 C 6.25 g/m*3 4.2 C 3.2 km/h
1432 04-12-2020 23:15:00 4.3 C 6.29 g/m*3 4.3 C 0 km/h
1433 04-12-2020 23:20:00 4.4 C 6.33 g/m*3 4.4 C 1.6 km/h
1434 04-12-2020 23:25:00 4.4 C 6.33 g/m*3 4.4 C 0 km/h
1435 04-12-2020 23:30:00 4.5 C 6.38 g/m*3 4.5 C 0 km/h
1436 04-12-2020 23:35:00 4.5 C 6.38 g/m*3 4.5 C 3.2 km/h
1437 04-12-2020 23:40:00 4.6 C 6.42 g/m*3 4.6 C 0 km/h
1438 04-12-2020 23:45:00 4.6 C 6.42 g/m*3 4.6 C 3.2 km/h
1439 04-12-2020 23:50:00 4.6 C 6.42 g/m*3 4.6 C 0 km/h
1440 04-12-2020 23:55:00 4.6 C 6.42 g/m*3 4.6 C 0 km/h
1441 05-12-2020 00:00:00 4.6 C 6.42 g/m*3 4.6 C 0 km/h
1442 05-12-2020 00:05:00 4.6 C 6.42 g/m*3 4.6 C 0 km/h
1443 05-12-2020 00:10:00 4.6 C 6.42 g/m*3 4.6 C 0 km/h
1444 05-12-2020 00:15:00 4.6 C 6.42 g/m*3 4.6 C 0 km/h
1445 05-12-2020 00:20:00 4.5 C 6.38 g/m*3 4.5 C 0 km/h
1446 05-12-2020 00:25:00 4.5 C 6.38 g/m*3 4.5 C 0 km/h
1447 05-12-2020 00:30:00 4.5 C 6.38 g/m*3 4.5 C 0 km/h
1448 05-12-2020 00:35:00 4.5 C 6.38 g/m*3 4.5 C 0 km/h
1449 05-12-2020 00:40:00 4.5 C 6.38 g/m*3 4.5 C 0 km/h
1450 05-12-2020 00:45:00 4.4 C 6.33 g/m*3 4.4 C 0 km/h
Sensor: Nr:Datum:Temp:Abs-Feuchte:Windchill:Wind:
Aussen-T/F 1451 05-12-2020 00:50:00 4.4 C 6.33 g/m*3 4.4 C 0 km/h
1452 05-12-2020 00:55:00 4.4 C 6.33 g/m*3 4.4 C 0 km/h
1453 05-12-2020 01:00:00 4.4 C 6.33 g/m*3 4.4 C 0 km/h
1454 05-12-2020 01:05:00 4.5 C 6.38 g/m*3 4.5 C 0 km/h
1455 05-12-2020 01:10:00 4.5 C 6.38 g/m*3 4.5 C 0 km/h
1456 05-12-2020 01:15:00 4.4 C 6.33 g/m*3 4.4 C 0 km/h
1457 05-12-2020 01:20:00 4.4 C 6.33 g/m*3 4.4 C 0 km/h
1458 05-12-2020 01:25:00 4.4 C 6.33 g/m*3 4.4 C 0 km/h
1459 05-12-2020 01:30:00 4.4 C 6.33 g/m*3 4.4 C 0 km/h
1460 05-12-2020 01:35:00 4.4 C 6.33 g/m*3 4.4 C 0 km/h
1461 05-12-2020 01:40:00 4.4 C 6.33 g/m*3 4.4 C 0 km/h
1462 05-12-2020 01:45:00 4.4 C 6.33 g/m*3 4.4 C 0 km/h
1463 05-12-2020 01:50:00 4.4 C 6.33 g/m*3 4.4 C 0 km/h
1464 05-12-2020 01:55:00 4.4 C 6.33 g/m*3 4.4 C 0 km/h
1465 05-12-2020 02:00:00 4.4 C 6.33 g/m*3 4.4 C 0 km/h
1466 05-12-2020 02:05:00 4.4 C 6.33 g/m*3 4.4 C 0 km/h
1467 05-12-2020 02:10:00 4.4 C 6.33 g/m*3 4.4 C 0 km/h
1468 05-12-2020 02:15:00 4.4 C 6.33 g/m*3 4.4 C 0 km/h
1469 05-12-2020 02:20:00 4.4 C 6.33 g/m*3 4.4 C 0 km/h
1470 05-12-2020 02:25:00 4.4 C 6.33 g/m*3 4.4 C 0 km/h
1471 05-12-2020 02:30:00 4.4 C 6.33 g/m*3 4.4 C 0 km/h
1472 05-12-2020 02:35:00 4.4 C 6.33 g/m*3 4.4 C 0 km/h
1473 05-12-2020 02:40:00 4.4 C 6.33 g/m*3 4.4 C 0 km/h
1474 05-12-2020 02:45:00 4.4 C 6.33 g/m*3 4.4 C 0 km/h
1475 05-12-2020 02:50:00 4.4 C 6.33 g/m*3 4.4 C 0 km/h
Sensor: Nr:Datum:Temp:Abs-Feuchte:Windchill:Wind:
Aussen-T/F 1476 05-12-2020 02:55:00 4.5 C 6.38 g/m*3 4.5 C 0 km/h
1477 05-12-2020 03:00:00 4.5 C 6.38 g/m*3 4.5 C 0 km/h
1478 05-12-2020 03:05:00 4.6 C 6.42 g/m*3 4.6 C 0 km/h
1479 05-12-2020 03:10:00 4.6 C 6.42 g/m*3 4.6 C 0 km/h
1480 05-12-2020 03:15:00 4.5 C 6.38 g/m*3 4.5 C 0 km/h
1481 05-12-2020 03:20:00 4.5 C 6.38 g/m*3 4.5 C 0 km/h
1482 05-12-2020 03:25:00 4.5 C 6.38 g/m*3 4.5 C 0 km/h
1483 05-12-2020 03:30:00 4.5 C 6.38 g/m*3 4.5 C 0 km/h
1484 05-12-2020 03:35:00 4.5 C 6.38 g/m*3 4.5 C 0 km/h
1485 05-12-2020 03:40:00 4.5 C 6.38 g/m*3 4.5 C 0 km/h
1486 05-12-2020 03:45:00 4.4 C 6.33 g/m*3 4.4 C 0 km/h
1487 05-12-2020 03:50:00 4.4 C 6.33 g/m*3 4.4 C 0 km/h
1488 05-12-2020 03:55:00 4.4 C 6.33 g/m*3 4.4 C 0 km/h
1489 05-12-2020 04:00:00 4.4 C 6.33 g/m*3 4.4 C 0 km/h
1490 05-12-2020 04:05:00 4.4 C 6.33 g/m*3 4.4 C 0 km/h
1491 05-12-2020 04:10:00 4.4 C 6.33 g/m*3 4.4 C 0 km/h
1492 05-12-2020 04:15:00 4.4 C 6.33 g/m*3 4.4 C 0 km/h
1493 05-12-2020 04:20:00 4.4 C 6.33 g/m*3 4.4 C 0 km/h
1494 05-12-2020 04:25:00 4.3 C 6.29 g/m*3 4.3 C 0 km/h
1495 05-12-2020 04:30:00 4.3 C 6.29 g/m*3 4.3 C 0 km/h
1496 05-12-2020 04:35:00 4.2 C 6.19 g/m*3 4.2 C 0 km/h
1497 05-12-2020 04:40:00 4.2 C 6.19 g/m*3 4.2 C 0 km/h
1498 05-12-2020 04:45:00 4.2 C 6.25 g/m*3 4.2 C 0 km/h
1499 05-12-2020 04:50:00 4.2 C 6.25 g/m*3 4.2 C 0 km/h
1500 05-12-2020 04:55:00 4.1 C 6.21 g/m*3 4.1 C 0 km/h
Sensor: Nr:Datum:Temp:Abs-Feuchte:Windchill:Wind:
Aussen-T/F 1501 05-12-2020 05:00:00 4.1 C 6.21 g/m*3 4.1 C 0 km/h
1502 05-12-2020 05:05:00 3.9 C 6.06 g/m*3 3.9 C 0 km/h
1503 05-12-2020 05:10:00 3.9 C 6.06 g/m*3 3.9 C 0 km/h
1504 05-12-2020 05:15:00 3.8 C 6.02 g/m*3 3.8 C 0 km/h
1505 05-12-2020 05:20:00 3.8 C 6.02 g/m*3 3.8 C 0 km/h
1506 05-12-2020 05:25:00 3.7 C 6.04 g/m*3 3.7 C 0 km/h
1507 05-12-2020 05:30:00 3.7 C 6.04 g/m*3 3.7 C 0 km/h
1508 05-12-2020 05:35:00 3.7 C 6.04 g/m*3 3.7 C 0 km/h
1509 05-12-2020 05:40:00 3.7 C 5.98 g/m*3 3.7 C 0 km/h
1510 05-12-2020 05:45:00 3.7 C 5.98 g/m*3 3.7 C 0 km/h
1511 05-12-2020 05:50:00 3.8 C 6.09 g/m*3 3.8 C 0 km/h
1512 05-12-2020 05:55:00 3.8 C 6.09 g/m*3 3.8 C 0 km/h
1513 05-12-2020 06:00:00 3.8 C 6.09 g/m*3 3.8 C 0 km/h
1514 05-12-2020 06:05:00 3.8 C 6.09 g/m*3 3.8 C 0 km/h
1515 05-12-2020 06:10:00 3.8 C 6.09 g/m*3 3.8 C 0 km/h
1516 05-12-2020 06:15:00 3.8 C 6.09 g/m*3 3.8 C 0 km/h
1517 05-12-2020 06:20:00 3.8 C 6.09 g/m*3 3.8 C 0 km/h
1518 05-12-2020 06:25:00 3.8 C 6.09 g/m*3 3.8 C 0 km/h
1519 05-12-2020 06:30:00 3.8 C 6.09 g/m*3 3.8 C 0 km/h
1520 05-12-2020 06:35:00 3.7 C 6.04 g/m*3 3.7 C 0 km/h
1521 05-12-2020 06:40:00 3.7 C 6.04 g/m*3 3.7 C 0 km/h
1522 05-12-2020 06:45:00 3.7 C 6.04 g/m*3 3.7 C 0 km/h
1523 05-12-2020 06:50:00 3.7 C 6.04 g/m*3 3.7 C 0 km/h
1524 05-12-2020 06:55:00 3.7 C 6.04 g/m*3 3.7 C 0 km/h
1525 05-12-2020 07:00:00 3.7 C 6.04 g/m*3 3.7 C 0 km/h
Sensor: Nr:Datum:Temp:Abs-Feuchte:Windchill:Wind:
Aussen-T/F 1526 05-12-2020 07:05:00 3.8 C 6.09 g/m*3 3.8 C 0 km/h
1527 05-12-2020 07:10:00 3.8 C 6.09 g/m*3 3.8 C 0 km/h
1528 05-12-2020 07:15:00 3.8 C 6.09 g/m*3 3.8 C 0 km/h
1529 05-12-2020 07:20:00 3.9 C 6.13 g/m*3 3.9 C 0 km/h
1530 05-12-2020 07:25:00 3.9 C 6.13 g/m*3 3.9 C 0 km/h
1531 05-12-2020 07:30:00 3.8 C 6.09 g/m*3 3.8 C 0 km/h
1532 05-12-2020 07:35:00 3.8 C 6.09 g/m*3 3.8 C 0 km/h
1533 05-12-2020 07:40:00 3.8 C 6.09 g/m*3 3.8 C 0 km/h
1534 05-12-2020 07:45:00 3.7 C 6.04 g/m*3 3.7 C 0 km/h
1535 05-12-2020 07:50:00 3.5 C 5.96 g/m*3 3.5 C 0 km/h
1536 05-12-2020 07:55:00 3.4 C 5.86 g/m*3 3.4 C 0 km/h
1537 05-12-2020 08:00:00 3.3 C 5.88 g/m*3 3.3 C 0 km/h
1538 05-12-2020 08:05:00 3.4 C 5.92 g/m*3 3.4 C 0 km/h
1539 05-12-2020 08:10:00 3.4 C 5.92 g/m*3 3.4 C 0 km/h
1540 05-12-2020 08:15:00 3.6 C 6 g/m*3 3.6 C 0 km/h
1541 05-12-2020 08:20:00 3.6 C 6 g/m*3 3.6 C 0 km/h
1542 05-12-2020 08:25:00 3.7 C 6.04 g/m*3 3.7 C 0 km/h
1543 05-12-2020 08:30:00 3.8 C 6.09 g/m*3 3.8 C 0 km/h
1544 05-12-2020 08:35:00 3.8 C 6.09 g/m*3 3.8 C 0 km/h
1545 05-12-2020 08:40:00 3.9 C 6.13 g/m*3 3.9 C 0 km/h
1546 05-12-2020 08:45:00 4 C 6.17 g/m*3 4 C 0 km/h
1547 05-12-2020 08:50:00 4.1 C 6.21 g/m*3 4.1 C 0 km/h
1548 05-12-2020 08:55:00 4.2 C 6.25 g/m*3 4.2 C 0 km/h
1549 05-12-2020 09:00:00 4.2 C 6.25 g/m*3 4.2 C 0 km/h
1550 05-12-2020 09:05:00 4.2 C 6.25 g/m*3 4.2 C 0 km/h
Sensor: Nr:Datum:Temp:Abs-Feuchte:Windchill:Wind:
Aussen-T/F 1551 05-12-2020 09:10:00 4.3 C 6.29 g/m*3 4.3 C 0 km/h
1552 05-12-2020 09:15:00 4.3 C 6.29 g/m*3 4.3 C 0 km/h
1553 05-12-2020 09:20:00 4.3 C 6.29 g/m*3 4.3 C 0 km/h
1554 05-12-2020 09:25:00 4.4 C 6.33 g/m*3 4.4 C 0 km/h
1555 05-12-2020 09:30:00 4.5 C 6.38 g/m*3 4.5 C 0 km/h
1556 05-12-2020 09:35:00 4.6 C 6.42 g/m*3 4.6 C 0 km/h
1557 05-12-2020 09:40:00 4.6 C 6.42 g/m*3 4.6 C 0 km/h
1558 05-12-2020 09:45:00 4.7 C 6.46 g/m*3 4.7 C 0 km/h
1559 05-12-2020 09:50:00 4.7 C 6.46 g/m*3 4.7 C 0 km/h
1560 05-12-2020 09:55:00 4.8 C 6.5 g/m*3 4.8 C 0 km/h
1561 05-12-2020 10:00:00 4.8 C 6.5 g/m*3 4.8 C 0 km/h
1562 05-12-2020 10:05:00 4.8 C 6.5 g/m*3 4.8 C 0 km/h
1563 05-12-2020 10:10:00 4.8 C 6.5 g/m*3 4.8 C 0 km/h
1564 05-12-2020 10:15:00 4.8 C 6.5 g/m*3 4.8 C 0 km/h
1565 05-12-2020 10:20:00 4.7 C 6.46 g/m*3 4.7 C 0 km/h
1566 05-12-2020 10:25:00 4.6 C 6.42 g/m*3 4.6 C 0 km/h
1567 05-12-2020 10:30:00 4.5 C 6.38 g/m*3 4.5 C 0 km/h
1568 05-12-2020 10:35:00 4.4 C 6.33 g/m*3 4.4 C 0 km/h
1569 05-12-2020 10:40:00 4.4 C 6.33 g/m*3 4.4 C 0 km/h
1570 05-12-2020 10:45:00 4.4 C 6.33 g/m*3 4.4 C 0 km/h
1571 05-12-2020 10:50:00 4.4 C 6.33 g/m*3 4.4 C 0 km/h
1572 05-12-2020 10:55:00 4.3 C 6.29 g/m*3 4.3 C 0 km/h
1573 05-12-2020 11:00:00 4.3 C 6.29 g/m*3 2.78 C 6.4 km/h
1574 05-12-2020 11:05:00 4.3 C 6.29 g/m*3 4.3 C 0 km/h
1575 05-12-2020 11:10:00 4.3 C 6.29 g/m*3 4.3 C 1.6 km/h
Sensor: Nr:Datum:Temp:Abs-Feuchte:Windchill:Wind:
Aussen-T/F 1576 05-12-2020 11:15:00 4.4 C 6.33 g/m*3 4.4 C 4.8 km/h
1577 05-12-2020 11:20:00 4.4 C 6.33 g/m*3 4.4 C 4.8 km/h
1578 05-12-2020 11:25:00 4.3 C 6.29 g/m*3 4.3 C 3.2 km/h
1579 05-12-2020 11:30:00 4.4 C 6.33 g/m*3 4.4 C 3.2 km/h
1580 05-12-2020 11:35:00 4.4 C 6.33 g/m*3 4.4 C 3.2 km/h
1581 05-12-2020 11:40:00 4.4 C 6.33 g/m*3 4.4 C 3.2 km/h
1582 05-12-2020 11:45:00 4.6 C 6.42 g/m*3 4.6 C 1.6 km/h
1583 05-12-2020 11:50:00 4.8 C 6.5 g/m*3 4.8 C 3.2 km/h
1584 05-12-2020 11:55:00 4.9 C 6.55 g/m*3 4.9 C 0 km/h
1585 05-12-2020 12:00:00 5.1 C 6.7 g/m*3 5.1 C 0 km/h
1586 05-12-2020 12:05:00 5.2 C 6.68 g/m*3 5.2 C 0 km/h
1587 05-12-2020 12:10:00 5.3 C 6.79 g/m*3 5.3 C 0 km/h
1588 05-12-2020 12:15:00 5.4 C 6.84 g/m*3 5.4 C 0 km/h
1589 05-12-2020 12:20:00 5.4 C 6.77 g/m*3 5.4 C 0 km/h
1590 05-12-2020 12:25:00 5.6 C 6.86 g/m*3 5.6 C 1.6 km/h
1591 05-12-2020 12:30:00 5.5 C 6.81 g/m*3 5.5 C 1.6 km/h
1592 05-12-2020 12:35:00 5.4 C 6.77 g/m*3 5.4 C 0 km/h
1593 05-12-2020 12:40:00 5.4 C 6.77 g/m*3 5.4 C 1.6 km/h
1594 05-12-2020 12:45:00 5.3 C 6.72 g/m*3 5.3 C 4.8 km/h
1595 05-12-2020 12:50:00 5.3 C 6.72 g/m*3 5.3 C 3.2 km/h
1596 05-12-2020 12:55:00 5.4 C 6.77 g/m*3 5.4 C 4.8 km/h
1597 05-12-2020 13:00:00 5.4 C 6.77 g/m*3 5.4 C 3.2 km/h
1598 05-12-2020 13:05:00 5.4 C 6.7 g/m*3 5.4 C 3.2 km/h
1599 05-12-2020 13:10:00 5.3 C 6.52 g/m*3 3.94 C 6.4 km/h
1600 05-12-2020 13:15:00 5.3 C 6.45 g/m*3 5.3 C 4.8 km/h
Sensor: Nr:Datum:Temp:Abs-Feuchte:Windchill:Wind:
Aussen-T/F 1601 05-12-2020 13:20:00 5.4 C 6.49 g/m*3 5.4 C 4.8 km/h
1602 05-12-2020 13:25:00 5.3 C 6.38 g/m*3 5.3 C 3.2 km/h
1603 05-12-2020 13:30:00 5.3 C 6.38 g/m*3 3.46 C 8.1 km/h
1604 05-12-2020 13:35:00 5.4 C 6.28 g/m*3 3.58 C 8.1 km/h
1605 05-12-2020 13:40:00 5.5 C 6.32 g/m*3 4.17 C 6.4 km/h
1606 05-12-2020 13:45:00 5.6 C 6.29 g/m*3 5.6 C 3.2 km/h
1607 05-12-2020 13:50:00 5.7 C 6.33 g/m*3 5.7 C 3.2 km/h
1608 05-12-2020 13:55:00 5.8 C 6.38 g/m*3 5.8 C 3.2 km/h
1609 05-12-2020 14:00:00 5.9 C 6.49 g/m*3 5.9 C 0 km/h
1610 05-12-2020 14:05:00 5.9 C 6.56 g/m*3 5.9 C 1.6 km/h
1611 05-12-2020 14:10:00 5.9 C 6.56 g/m*3 5.9 C 1.6 km/h
1612 05-12-2020 14:15:00 5.9 C 6.56 g/m*3 5.9 C 0 km/h
1613 05-12-2020 14:20:00 5.9 C 6.56 g/m*3 5.9 C 1.6 km/h
1614 05-12-2020 14:25:00 5.8 C 6.45 g/m*3 5.8 C 4.8 km/h
1615 05-12-2020 14:30:00 5.8 C 6.52 g/m*3 5.8 C 0 km/h
1616 05-12-2020 14:35:00 5.7 C 6.48 g/m*3 5.7 C 1.6 km/h
1617 05-12-2020 14:40:00 5.6 C 6.43 g/m*3 5.6 C 0 km/h
1618 05-12-2020 14:45:00 5.4 C 6.35 g/m*3 5.4 C 0 km/h
1619 05-12-2020 14:50:00 5.3 C 6.31 g/m*3 5.3 C 1.6 km/h
1620 05-12-2020 14:55:00 5.2 C 6.27 g/m*3 5.2 C 0 km/h
1621 05-12-2020 15:00:00 5.1 C 6.22 g/m*3 5.1 C 1.6 km/h
1622 05-12-2020 15:05:00 4.9 C 6.14 g/m*3 4.9 C 0 km/h
1623 05-12-2020 15:10:00 4.8 C 6.1 g/m*3 4.8 C 1.6 km/h
1624 05-12-2020 15:15:00 4.6 C 6.09 g/m*3 4.6 C 4.8 km/h
1625 05-12-2020 15:20:00 4.5 C 6.05 g/m*3 4.5 C 4.8 km/h
Sensor: Nr:Datum:Temp:Abs-Feuchte:Windchill:Wind:
Aussen-T/F 1626 05-12-2020 15:25:00 4.3 C 5.97 g/m*3 4.3 C 3.2 km/h
1627 05-12-2020 15:30:00 4.2 C 5.93 g/m*3 4.2 C 3.2 km/h
1628 05-12-2020 15:35:00 4.1 C 5.89 g/m*3 4.1 C 3.2 km/h
1629 05-12-2020 15:40:00 3.9 C 5.81 g/m*3 3.9 C 4.8 km/h
1630 05-12-2020 15:45:00 3.8 C 5.83 g/m*3 2.21 C 6.4 km/h
1631 05-12-2020 15:50:00 3.7 C 5.8 g/m*3 3.7 C 4.8 km/h
1632 05-12-2020 15:55:00 3.6 C 5.76 g/m*3 3.6 C 3.2 km/h
1633 05-12-2020 16:00:00 3.5 C 5.72 g/m*3 3.5 C 1.6 km/h
1634 05-12-2020 16:05:00 3.4 C 5.68 g/m*3 3.4 C 0 km/h
1635 05-12-2020 16:10:00 3.3 C 5.64 g/m*3 3.3 C 0 km/h
1636 05-12-2020 16:15:00 3.3 C 5.64 g/m*3 3.3 C 0 km/h
1637 05-12-2020 16:20:00 3.2 C 5.6 g/m*3 3.2 C 0 km/h
1638 05-12-2020 16:25:00 3.1 C 5.57 g/m*3 3.1 C 0 km/h
1639 05-12-2020 16:30:00 3 C 5.59 g/m*3 3 C 0 km/h
1640 05-12-2020 16:35:00 2.9 C 5.55 g/m*3 2.9 C 0 km/h
1641 05-12-2020 16:40:00 2.8 C 5.51 g/m*3 2.8 C 0 km/h
1642 05-12-2020 16:45:00 2.8 C 5.51 g/m*3 2.8 C 0 km/h
1643 05-12-2020 16:50:00 2.8 C 5.51 g/m*3 2.8 C 4.8 km/h
1644 05-12-2020 16:55:00 2.8 C 5.51 g/m*3 2.8 C 0 km/h
1645 05-12-2020 17:00:00 2.7 C 5.48 g/m*3 2.7 C 3.2 km/h
1646 05-12-2020 17:05:00 2.7 C 5.48 g/m*3 2.7 C 3.2 km/h
1647 05-12-2020 17:10:00 2.7 C 5.48 g/m*3 2.7 C 1.6 km/h
1648 05-12-2020 17:15:00 2.7 C 5.54 g/m*3 2.7 C 3.2 km/h
1649 05-12-2020 17:20:00 2.7 C 5.54 g/m*3 2.7 C 3.2 km/h
1650 05-12-2020 17:25:00 2.7 C 5.54 g/m*3 2.7 C 3.2 km/h
Sensor: Nr:Datum:Temp:Abs-Feuchte:Windchill:Wind:
Aussen-T/F 1651 05-12-2020 17:30:00 2.7 C 5.54 g/m*3 2.7 C 3.2 km/h
1652 05-12-2020 17:35:00 2.7 C 5.54 g/m*3 2.7 C 0 km/h
1653 05-12-2020 17:40:00 2.7 C 5.54 g/m*3 2.7 C 3.2 km/h
1654 05-12-2020 17:45:00 2.7 C 5.54 g/m*3 2.7 C 3.2 km/h
1655 05-12-2020 17:50:00 2.7 C 5.54 g/m*3 2.7 C 3.2 km/h
1656 05-12-2020 17:55:00 2.8 C 5.57 g/m*3 2.8 C 4.8 km/h
1657 05-12-2020 18:00:00 2.8 C 5.57 g/m*3 2.8 C 1.6 km/h
1658 05-12-2020 18:05:00 2.8 C 5.57 g/m*3 2.8 C 0 km/h
1659 05-12-2020 18:10:00 2.7 C 5.54 g/m*3 2.7 C 0 km/h
1660 05-12-2020 18:15:00 2.7 C 5.54 g/m*3 2.7 C 0 km/h
1661 05-12-2020 18:20:00 2.7 C 5.54 g/m*3 2.7 C 0 km/h
1662 05-12-2020 18:25:00 2.7 C 5.54 g/m*3 2.7 C 0 km/h
1663 05-12-2020 18:30:00 2.7 C 5.54 g/m*3 2.7 C 0 km/h
1664 05-12-2020 18:35:00 2.8 C 5.63 g/m*3 2.8 C 0 km/h
1665 05-12-2020 18:40:00 2.9 C 5.67 g/m*3 2.9 C 0 km/h
1666 05-12-2020 18:45:00 3.1 C 5.75 g/m*3 3.1 C 0 km/h
1667 05-12-2020 18:50:00 3.2 C 5.79 g/m*3 3.2 C 0 km/h
1668 05-12-2020 18:55:00 3.3 C 5.82 g/m*3 3.3 C 0 km/h
1669 05-12-2020 19:00:00 3.4 C 5.86 g/m*3 3.4 C 0 km/h
1670 05-12-2020 19:05:00 3.5 C 5.9 g/m*3 3.5 C 0 km/h
1671 05-12-2020 19:10:00 3.6 C 5.94 g/m*3 3.6 C 0 km/h
1672 05-12-2020 19:15:00 3.6 C 5.94 g/m*3 3.6 C 0 km/h
1673 05-12-2020 19:20:00 3.6 C 5.94 g/m*3 3.6 C 0 km/h
1674 05-12-2020 19:25:00 3.6 C 5.94 g/m*3 3.6 C 0 km/h
1675 05-12-2020 19:30:00 3.7 C 5.98 g/m*3 3.7 C 0 km/h
Sensor: Nr:Datum:Temp:Abs-Feuchte:Windchill:Wind:
Aussen-T/F 1676 05-12-2020 19:35:00 3.7 C 5.98 g/m*3 3.7 C 0 km/h
1677 05-12-2020 19:40:00 3.7 C 5.98 g/m*3 3.7 C 0 km/h
1678 05-12-2020 19:45:00 3.7 C 5.98 g/m*3 3.7 C 0 km/h
1679 05-12-2020 19:50:00 3.7 C 5.98 g/m*3 3.7 C 0 km/h
1680 05-12-2020 19:55:00 3.8 C 6.02 g/m*3 3.8 C 0 km/h
1681 05-12-2020 20:00:00 3.8 C 6.02 g/m*3 3.8 C 0 km/h
1682 05-12-2020 20:05:00 3.8 C 6.02 g/m*3 3.8 C 0 km/h
1683 05-12-2020 20:10:00 3.8 C 6.02 g/m*3 3.8 C 0 km/h
1684 05-12-2020 20:15:00 3.9 C 6.06 g/m*3 3.9 C 0 km/h
1685 05-12-2020 20:20:00 3.9 C 6.06 g/m*3 3.9 C 0 km/h
1686 05-12-2020 20:25:00 3.9 C 6.06 g/m*3 3.9 C 0 km/h
1687 05-12-2020 20:30:00 3.9 C 6.06 g/m*3 3.9 C 0 km/h
1688 05-12-2020 20:35:00 3.9 C 6.06 g/m*3 3.9 C 0 km/h
1689 05-12-2020 20:40:00 3.9 C 6.06 g/m*3 3.9 C 0 km/h
1690 05-12-2020 20:45:00 3.9 C 6.06 g/m*3 3.9 C 0 km/h
1691 05-12-2020 20:50:00 3.9 C 6.06 g/m*3 3.9 C 0 km/h
1692 05-12-2020 20:55:00 4 C 6.1 g/m*3 4 C 0 km/h
1693 05-12-2020 21:00:00 4 C 6.1 g/m*3 4 C 0 km/h
1694 05-12-2020 21:05:00 4 C 6.1 g/m*3 4 C 0 km/h
1695 05-12-2020 21:10:00 4 C 6.1 g/m*3 4 C 0 km/h
1696 05-12-2020 21:15:00 4.1 C 6.14 g/m*3 4.1 C 0 km/h
1697 05-12-2020 21:20:00 4.1 C 6.14 g/m*3 4.1 C 0 km/h
1698 05-12-2020 21:25:00 4.1 C 6.14 g/m*3 4.1 C 0 km/h
1699 05-12-2020 21:30:00 4.1 C 6.14 g/m*3 4.1 C 0 km/h
1700 05-12-2020 21:35:00 4.1 C 6.14 g/m*3 4.1 C 0 km/h
Sensor: Nr:Datum:Temp:Abs-Feuchte:Windchill:Wind:
Aussen-T/F 1701 05-12-2020 21:40:00 4.1 C 6.14 g/m*3 4.1 C 0 km/h
1702 05-12-2020 21:45:00 4.1 C 6.14 g/m*3 4.1 C 0 km/h
1703 05-12-2020 21:50:00 4.1 C 6.14 g/m*3 4.1 C 0 km/h
1704 05-12-2020 21:55:00 4.1 C 6.14 g/m*3 4.1 C 0 km/h
1705 05-12-2020 22:00:00 4.1 C 6.14 g/m*3 4.1 C 0 km/h
1706 05-12-2020 22:05:00 4.1 C 6.14 g/m*3 4.1 C 0 km/h
1707 05-12-2020 22:10:00 4 C 6.1 g/m*3 4 C 0 km/h
1708 05-12-2020 22:15:00 4 C 6.1 g/m*3 4 C 0 km/h
1709 05-12-2020 22:20:00 4 C 6.1 g/m*3 4 C 0 km/h
1710 05-12-2020 22:25:00 4 C 6.1 g/m*3 4 C 0 km/h
1711 05-12-2020 22:30:00 3.9 C 6.06 g/m*3 3.9 C 0 km/h
1712 05-12-2020 22:35:00 3.9 C 6.06 g/m*3 3.9 C 0 km/h
1713 05-12-2020 22:40:00 3.9 C 6.06 g/m*3 3.9 C 3.2 km/h
1714 05-12-2020 22:45:00 3.8 C 6.02 g/m*3 3.8 C 3.2 km/h
1715 05-12-2020 22:50:00 3.8 C 6.02 g/m*3 3.8 C 0 km/h
1716 05-12-2020 22:55:00 3.8 C 6.02 g/m*3 3.8 C 0 km/h
1717 05-12-2020 23:00:00 3.8 C 6.02 g/m*3 3.8 C 0 km/h
1718 05-12-2020 23:05:00 3.8 C 5.96 g/m*3 3.8 C 0 km/h
1719 05-12-2020 23:10:00 3.7 C 5.92 g/m*3 3.7 C 3.2 km/h
1720 05-12-2020 23:15:00 3.7 C 5.92 g/m*3 1.58 C 8.1 km/h
1721 05-12-2020 23:20:00 3.7 C 5.92 g/m*3 3.7 C 0 km/h
1722 05-12-2020 23:25:00 3.6 C 5.88 g/m*3 3.6 C 1.6 km/h
1723 05-12-2020 23:30:00 3.5 C 5.84 g/m*3 3.5 C 0 km/h
1724 05-12-2020 23:35:00 3.4 C 5.8 g/m*3 3.4 C 3.2 km/h
1725 05-12-2020 23:40:00 3.3 C 5.76 g/m*3 3.3 C 0 km/h
Sensor: Nr:Datum:Temp:Abs-Feuchte:Windchill:Wind:
Aussen-T/F 1726 05-12-2020 23:45:00 3.1 C 5.69 g/m*3 3.1 C 0 km/h
1727 05-12-2020 23:50:00 2.9 C 5.55 g/m*3 2.9 C 0 km/h
1728 05-12-2020 23:55:00 2.8 C 5.57 g/m*3 2.8 C 0 km/h
1729 06-12-2020 00:00:00 2.7 C 5.48 g/m*3 2.7 C 0 km/h
1730 06-12-2020 00:05:00 2.7 C 5.54 g/m*3 2.7 C 0 km/h
1731 06-12-2020 00:10:00 2.6 C 5.5 g/m*3 2.6 C 0 km/h
1732 06-12-2020 00:15:00 2.6 C 5.5 g/m*3 2.6 C 0 km/h
1733 06-12-2020 00:20:00 2.6 C 5.5 g/m*3 2.6 C 0 km/h
1734 06-12-2020 00:25:00 2.5 C 5.46 g/m*3 2.5 C 1.6 km/h
1735 06-12-2020 00:30:00 2.5 C 5.46 g/m*3 2.5 C 1.6 km/h
1736 06-12-2020 00:35:00 2.5 C 5.46 g/m*3 2.5 C 0 km/h
1737 06-12-2020 00:40:00 2.5 C 5.46 g/m*3 2.5 C 0 km/h
1738 06-12-2020 00:45:00 2.5 C 5.46 g/m*3 2.5 C 0 km/h
1739 06-12-2020 00:50:00 2.4 C 5.42 g/m*3 2.4 C 1.6 km/h
1740 06-12-2020 00:55:00 2.3 C 5.39 g/m*3 2.3 C 1.6 km/h
1741 06-12-2020 01:00:00 2.3 C 5.39 g/m*3 2.3 C 0 km/h
1742 06-12-2020 01:05:00 2.3 C 5.39 g/m*3 2.3 C 0 km/h
1743 06-12-2020 01:10:00 2.3 C 5.39 g/m*3 2.3 C 0 km/h
1744 06-12-2020 01:15:00 2.3 C 5.39 g/m*3 2.3 C 0 km/h
1745 06-12-2020 01:20:00 2.3 C 5.44 g/m*3 2.3 C 0 km/h
1746 06-12-2020 01:25:00 2.2 C 5.41 g/m*3 2.2 C 1.6 km/h
1747 06-12-2020 01:30:00 2.2 C 5.41 g/m*3 2.2 C 0 km/h
1748 06-12-2020 01:35:00 2.2 C 5.41 g/m*3 2.2 C 0 km/h
1749 06-12-2020 01:40:00 2.2 C 5.35 g/m*3 2.2 C 0 km/h
1750 06-12-2020 01:45:00 2.2 C 5.41 g/m*3 2.2 C 0 km/h
Sensor: Nr:Datum:Temp:Abs-Feuchte:Windchill:Wind:
Aussen-T/F 1751 06-12-2020 01:50:00 2.2 C 5.41 g/m*3 2.2 C 0 km/h
1752 06-12-2020 01:55:00 2.2 C 5.41 g/m*3 2.2 C 0 km/h
1753 06-12-2020 02:00:00 2.2 C 5.41 g/m*3 2.2 C 0 km/h
1754 06-12-2020 02:05:00 2.2 C 5.41 g/m*3 2.2 C 0 km/h
1755 06-12-2020 02:10:00 2.2 C 5.41 g/m*3 2.2 C 0 km/h
1756 06-12-2020 02:15:00 2.2 C 5.41 g/m*3 2.2 C 0 km/h
1757 06-12-2020 02:20:00 2.2 C 5.41 g/m*3 2.2 C 0 km/h
1758 06-12-2020 02:25:00 2.3 C 5.44 g/m*3 2.3 C 0 km/h
1759 06-12-2020 02:30:00 2.3 C 5.44 g/m*3 2.3 C 0 km/h
1760 06-12-2020 02:35:00 2.3 C 5.44 g/m*3 2.3 C 0 km/h
1761 06-12-2020 02:40:00 2.4 C 5.48 g/m*3 2.4 C 0 km/h
1762 06-12-2020 02:45:00 2.4 C 5.48 g/m*3 2.4 C 0 km/h
1763 06-12-2020 02:50:00 2.4 C 5.48 g/m*3 2.4 C 0 km/h
1764 06-12-2020 02:55:00 2.5 C 5.52 g/m*3 2.5 C 0 km/h
1765 06-12-2020 03:00:00 2.6 C 5.56 g/m*3 2.6 C 0 km/h
1766 06-12-2020 03:05:00 2.6 C 5.56 g/m*3 2.6 C 3.2 km/h
1767 06-12-2020 03:10:00 2.7 C 5.59 g/m*3 2.7 C 0 km/h
1768 06-12-2020 03:15:00 2.7 C 5.59 g/m*3 2.7 C 0 km/h
1769 06-12-2020 03:20:00 2.8 C 5.63 g/m*3 2.8 C 0 km/h
1770 06-12-2020 03:25:00 2.8 C 5.63 g/m*3 2.8 C 0 km/h
1771 06-12-2020 03:30:00 2.8 C 5.63 g/m*3 2.8 C 0 km/h
1772 06-12-2020 03:35:00 2.9 C 5.67 g/m*3 2.9 C 0 km/h
1773 06-12-2020 03:40:00 2.9 C 5.67 g/m*3 2.9 C 0 km/h
1774 06-12-2020 03:45:00 2.9 C 5.67 g/m*3 2.9 C 0 km/h
1775 06-12-2020 03:50:00 3 C 5.71 g/m*3 3 C 0 km/h
Sensor: Nr:Datum:Temp:Abs-Feuchte:Windchill:Wind:
Aussen-T/F 1776 06-12-2020 03:55:00 3.1 C 5.75 g/m*3 3.1 C 0 km/h
1777 06-12-2020 04:00:00 3.1 C 5.75 g/m*3 3.1 C 0 km/h
1778 06-12-2020 04:05:00 3.1 C 5.75 g/m*3 3.1 C 0 km/h
1779 06-12-2020 04:10:00 3.1 C 5.75 g/m*3 3.1 C 0 km/h
1780 06-12-2020 04:15:00 3.1 C 5.75 g/m*3 3.1 C 0 km/h
1781 06-12-2020 04:20:00 3.1 C 5.75 g/m*3 3.1 C 0 km/h
1782 06-12-2020 04:25:00 3.2 C 5.79 g/m*3 3.2 C 0 km/h
1783 06-12-2020 04:30:00 3.2 C 5.79 g/m*3 3.2 C 0 km/h
1784 06-12-2020 04:35:00 3.2 C 5.79 g/m*3 3.2 C 0 km/h
1785 06-12-2020 04:40:00 3.2 C 5.79 g/m*3 3.2 C 0 km/h
1786 06-12-2020 04:45:00 3.2 C 5.79 g/m*3 3.2 C 0 km/h
1787 06-12-2020 04:50:00 3.2 C 5.79 g/m*3 3.2 C 0 km/h
1788 06-12-2020 04:55:00 3.2 C 5.79 g/m*3 3.2 C 0 km/h
1789 06-12-2020 05:00:00 3.2 C 5.79 g/m*3 3.2 C 0 km/h
1790 06-12-2020 05:05:00 3.2 C 5.79 g/m*3 3.2 C 0 km/h
1791 06-12-2020 05:10:00 3.2 C 5.79 g/m*3 3.2 C 0 km/h
1792 06-12-2020 05:15:00 3.2 C 5.79 g/m*3 3.2 C 0 km/h
1793 06-12-2020 05:20:00 3.2 C 5.79 g/m*3 3.2 C 0 km/h
1794 06-12-2020 05:25:00 3.2 C 5.79 g/m*3 3.2 C 0 km/h
1795 06-12-2020 05:30:00 3.2 C 5.79 g/m*3 3.2 C 0 km/h
1796 06-12-2020 05:35:00 3.2 C 5.79 g/m*3 3.2 C 0 km/h
1797 06-12-2020 05:40:00 3.2 C 5.79 g/m*3 3.2 C 0 km/h
1798 06-12-2020 05:45:00 3.2 C 5.85 g/m*3 3.2 C 0 km/h
1799 06-12-2020 05:50:00 3.2 C 5.85 g/m*3 3.2 C 0 km/h
1800 06-12-2020 05:55:00 3.2 C 5.85 g/m*3 3.2 C 0 km/h
Sensor: Nr:Datum:Temp:Abs-Feuchte:Windchill:Wind:
Aussen-T/F 1801 06-12-2020 06:00:00 3.2 C 5.85 g/m*3 3.2 C 0 km/h
1802 06-12-2020 06:05:00 3.3 C 5.88 g/m*3 3.3 C 0 km/h
1803 06-12-2020 06:10:00 3.3 C 5.88 g/m*3 3.3 C 0 km/h
1804 06-12-2020 06:15:00 3.3 C 5.82 g/m*3 3.3 C 0 km/h
1805 06-12-2020 06:20:00 3.3 C 5.82 g/m*3 3.3 C 0 km/h
1806 06-12-2020 06:25:00 3.3 C 5.82 g/m*3 3.3 C 0 km/h
1807 06-12-2020 06:30:00 3.3 C 5.82 g/m*3 3.3 C 0 km/h
1808 06-12-2020 06:35:00 3.3 C 5.82 g/m*3 3.3 C 0 km/h
1809 06-12-2020 06:40:00 3.3 C 5.82 g/m*3 3.3 C 0 km/h
1810 06-12-2020 06:45:00 3.3 C 5.82 g/m*3 3.3 C 0 km/h
1811 06-12-2020 06:50:00 3.3 C 5.82 g/m*3 3.3 C 0 km/h
1812 06-12-2020 06:55:00 3.3 C 5.82 g/m*3 3.3 C 0 km/h
1813 06-12-2020 07:00:00 3.3 C 5.82 g/m*3 3.3 C 0 km/h
1814 06-12-2020 07:05:00 3.3 C 5.82 g/m*3 3.3 C 0 km/h
1815 06-12-2020 07:10:00 3.3 C 5.82 g/m*3 3.3 C 0 km/h
1816 06-12-2020 07:15:00 3.3 C 5.82 g/m*3 3.3 C 0 km/h
1817 06-12-2020 07:20:00 3.3 C 5.82 g/m*3 3.3 C 0 km/h
1818 06-12-2020 07:25:00 3.3 C 5.82 g/m*3 3.3 C 0 km/h
1819 06-12-2020 07:30:00 3.3 C 5.82 g/m*3 3.3 C 0 km/h
1820 06-12-2020 07:35:00 3.3 C 5.82 g/m*3 3.3 C 0 km/h
1821 06-12-2020 07:40:00 3.3 C 5.82 g/m*3 3.3 C 0 km/h
1822 06-12-2020 07:45:00 3.3 C 5.82 g/m*3 3.3 C 0 km/h
1823 06-12-2020 07:50:00 3.3 C 5.82 g/m*3 3.3 C 0 km/h
1824 06-12-2020 07:55:00 3.3 C 5.82 g/m*3 3.3 C 0 km/h
1825 06-12-2020 08:00:00 3.3 C 5.82 g/m*3 3.3 C 0 km/h
Sensor: Nr:Datum:Temp:Abs-Feuchte:Windchill:Wind:
Aussen-T/F 1826 06-12-2020 08:05:00 3.3 C 5.82 g/m*3 3.3 C 0 km/h
1827 06-12-2020 08:10:00 3.3 C 5.82 g/m*3 3.3 C 0 km/h
1828 06-12-2020 08:15:00 3.3 C 5.82 g/m*3 3.3 C 0 km/h
1829 06-12-2020 08:20:00 3.3 C 5.82 g/m*3 3.3 C 0 km/h
1830 06-12-2020 08:25:00 3.3 C 5.82 g/m*3 3.3 C 0 km/h
1831 06-12-2020 08:30:00 3.3 C 5.82 g/m*3 3.3 C 0 km/h
1832 06-12-2020 08:35:00 3.3 C 5.82 g/m*3 3.3 C 0 km/h
1833 06-12-2020 08:40:00 3.3 C 5.88 g/m*3 3.3 C 0 km/h
1834 06-12-2020 08:45:00 3.3 C 5.88 g/m*3 3.3 C 0 km/h
1835 06-12-2020 08:50:00 3.4 C 5.92 g/m*3 3.4 C 0 km/h
1836 06-12-2020 08:55:00 3.4 C 5.92 g/m*3 3.4 C 0 km/h
1837 06-12-2020 09:00:00 3.4 C 5.92 g/m*3 3.4 C 0 km/h
1838 06-12-2020 09:05:00 3.4 C 5.92 g/m*3 3.4 C 0 km/h
1839 06-12-2020 09:10:00 3.5 C 5.96 g/m*3 3.5 C 0 km/h
1840 06-12-2020 09:15:00 3.5 C 5.96 g/m*3 3.5 C 0 km/h
1841 06-12-2020 09:20:00 3.6 C 6 g/m*3 3.6 C 0 km/h
1842 06-12-2020 09:25:00 3.6 C 6 g/m*3 3.6 C 0 km/h
1843 06-12-2020 09:30:00 3.6 C 6 g/m*3 3.6 C 0 km/h
1844 06-12-2020 09:35:00 3.7 C 6.04 g/m*3 3.7 C 0 km/h
1845 06-12-2020 09:40:00 3.7 C 6.04 g/m*3 3.7 C 0 km/h
1846 06-12-2020 09:45:00 3.7 C 6.04 g/m*3 3.7 C 0 km/h
1847 06-12-2020 09:50:00 3.7 C 6.04 g/m*3 3.7 C 0 km/h
1848 06-12-2020 09:55:00 3.7 C 6.04 g/m*3 3.7 C 0 km/h
1849 06-12-2020 10:00:00 3.8 C 6.09 g/m*3 3.8 C 0 km/h
1850 06-12-2020 10:05:00 3.8 C 6.09 g/m*3 3.8 C 0 km/h
Sensor: Nr:Datum:Temp:Abs-Feuchte:Windchill:Wind:
Aussen-T/F 1851 06-12-2020 10:10:00 3.9 C 6.13 g/m*3 3.9 C 3.2 km/h
1852 06-12-2020 10:15:00 3.9 C 6.13 g/m*3 3.9 C 4.8 km/h
1853 06-12-2020 10:20:00 3.9 C 6.13 g/m*3 3.9 C 0 km/h
1854 06-12-2020 10:25:00 3.9 C 6.13 g/m*3 3.9 C 1.6 km/h
1855 06-12-2020 10:30:00 3.8 C 6.09 g/m*3 3.8 C 1.6 km/h
1856 06-12-2020 10:35:00 3.9 C 6.13 g/m*3 3.9 C 0 km/h
1857 06-12-2020 10:40:00 3.9 C 6.13 g/m*3 3.9 C 0 km/h
1858 06-12-2020 10:45:00 4 C 6.17 g/m*3 4 C 0 km/h
1859 06-12-2020 10:50:00 4.1 C 6.21 g/m*3 4.1 C 1.6 km/h
1860 06-12-2020 10:55:00 4.1 C 6.21 g/m*3 4.1 C 0 km/h
1861 06-12-2020 11:00:00 4.1 C 6.21 g/m*3 4.1 C 0 km/h
1862 06-12-2020 11:05:00 4.1 C 6.21 g/m*3 4.1 C 1.6 km/h
1863 06-12-2020 11:10:00 4.1 C 6.21 g/m*3 4.1 C 1.6 km/h
1864 06-12-2020 11:15:00 4.2 C 6.25 g/m*3 4.2 C 3.2 km/h
1865 06-12-2020 11:20:00 4.1 C 6.21 g/m*3 4.1 C 0 km/h
1866 06-12-2020 11:25:00 4.2 C 6.25 g/m*3 4.2 C 0 km/h
1867 06-12-2020 11:30:00 4.2 C 6.25 g/m*3 4.2 C 1.6 km/h
1868 06-12-2020 11:35:00 4.2 C 6.25 g/m*3 4.2 C 0 km/h
1869 06-12-2020 11:40:00 4.2 C 6.25 g/m*3 4.2 C 0 km/h
1870 06-12-2020 11:45:00 4.3 C 6.29 g/m*3 4.3 C 0 km/h
1871 06-12-2020 11:50:00 4.2 C 6.25 g/m*3 4.2 C 1.6 km/h
1872 06-12-2020 11:55:00 4.3 C 6.29 g/m*3 4.3 C 0 km/h
1873 06-12-2020 12:00:00 4.3 C 6.29 g/m*3 4.3 C 0 km/h
1874 06-12-2020 12:05:00 4.3 C 6.29 g/m*3 4.3 C 3.2 km/h
1875 06-12-2020 12:10:00 4.4 C 6.33 g/m*3 4.4 C 1.6 km/h
Sensor: Nr:Datum:Temp:Abs-Feuchte:Windchill:Wind:
Aussen-T/F 1876 06-12-2020 12:15:00 4.4 C 6.33 g/m*3 4.4 C 4.8 km/h
1877 06-12-2020 12:20:00 4.4 C 6.33 g/m*3 4.4 C 3.2 km/h
1878 06-12-2020 12:25:00 4.4 C 6.33 g/m*3 4.4 C 3.2 km/h
1879 06-12-2020 12:30:00 4.4 C 6.33 g/m*3 4.4 C 0 km/h
1880 06-12-2020 12:35:00 4.4 C 6.33 g/m*3 4.4 C 0 km/h
1881 06-12-2020 12:40:00 4.6 C 6.42 g/m*3 4.6 C 0 km/h
1882 06-12-2020 12:45:00 4.6 C 6.42 g/m*3 4.6 C 0 km/h
1883 06-12-2020 12:50:00 4.6 C 6.42 g/m*3 4.6 C 0 km/h
1884 06-12-2020 12:55:00 4.7 C 6.46 g/m*3 4.7 C 1.6 km/h
1885 06-12-2020 13:00:00 4.7 C 6.46 g/m*3 4.7 C 1.6 km/h
1886 06-12-2020 13:05:00 4.7 C 6.46 g/m*3 4.7 C 4.8 km/h
1887 06-12-2020 13:10:00 4.7 C 6.39 g/m*3 4.7 C 4.8 km/h
1888 06-12-2020 13:15:00 4.7 C 6.46 g/m*3 4.7 C 1.6 km/h
1889 06-12-2020 13:20:00 4.8 C 6.5 g/m*3 4.8 C 0 km/h
1890 06-12-2020 13:25:00 4.8 C 6.5 g/m*3 4.8 C 0 km/h
1891 06-12-2020 13:30:00 4.8 C 6.5 g/m*3 4.8 C 1.6 km/h
1892 06-12-2020 13:35:00 4.8 C 6.5 g/m*3 4.8 C 0 km/h
1893 06-12-2020 13:40:00 4.8 C 6.44 g/m*3 4.8 C 1.6 km/h
1894 06-12-2020 13:45:00 4.8 C 6.44 g/m*3 4.8 C 0 km/h
1895 06-12-2020 13:50:00 4.8 C 6.44 g/m*3 4.8 C 3.2 km/h
1896 06-12-2020 13:55:00 4.9 C 6.48 g/m*3 4.9 C 0 km/h
1897 06-12-2020 14:00:00 4.9 C 6.48 g/m*3 4.9 C 0 km/h
1898 06-12-2020 14:05:00 4.9 C 6.48 g/m*3 4.9 C 0 km/h
1899 06-12-2020 14:10:00 4.9 C 6.48 g/m*3 4.9 C 0 km/h
1900 06-12-2020 14:15:00 4.9 C 6.48 g/m*3 4.9 C 0 km/h
Sensor: Nr:Datum:Temp:Abs-Feuchte:Windchill:Wind:
Aussen-T/F 1901 06-12-2020 14:20:00 4.9 C 6.48 g/m*3 4.9 C 0 km/h
1902 06-12-2020 14:25:00 4.9 C 6.48 g/m*3 4.9 C 0 km/h
1903 06-12-2020 14:30:00 4.9 C 6.48 g/m*3 4.9 C 3.2 km/h
1904 06-12-2020 14:35:00 4.9 C 6.48 g/m*3 4.9 C 1.6 km/h
1905 06-12-2020 14:40:00 4.9 C 6.48 g/m*3 4.9 C 0 km/h
1906 06-12-2020 14:45:00 4.9 C 6.48 g/m*3 4.9 C 0 km/h
1907 06-12-2020 14:50:00 4.9 C 6.48 g/m*3 4.9 C 0 km/h
1908 06-12-2020 14:55:00 4.9 C 6.48 g/m*3 4.9 C 0 km/h
1909 06-12-2020 15:00:00 4.9 C 6.48 g/m*3 4.9 C 0 km/h
1910 06-12-2020 15:05:00 4.9 C 6.48 g/m*3 4.9 C 0 km/h
1911 06-12-2020 15:10:00 5 C 6.52 g/m*3 5 C 0 km/h
1912 06-12-2020 15:15:00 5 C 6.52 g/m*3 5 C 0 km/h
1913 06-12-2020 15:20:00 5 C 6.52 g/m*3 5 C 0 km/h
1914 06-12-2020 15:25:00 5 C 6.52 g/m*3 5 C 0 km/h
1915 06-12-2020 15:30:00 5 C 6.52 g/m*3 5 C 0 km/h
1916 06-12-2020 15:35:00 5 C 6.52 g/m*3 5 C 0 km/h
1917 06-12-2020 15:40:00 5 C 6.52 g/m*3 5 C 0 km/h
1918 06-12-2020 15:45:00 5.1 C 6.63 g/m*3 5.1 C 0 km/h
1919 06-12-2020 15:50:00 5.1 C 6.63 g/m*3 5.1 C 0 km/h
1920 06-12-2020 15:55:00 5.1 C 6.57 g/m*3 5.1 C 0 km/h
1921 06-12-2020 16:00:00 5.1 C 6.57 g/m*3 5.1 C 0 km/h
1922 06-12-2020 16:05:00 5 C 6.52 g/m*3 5 C 0 km/h
1923 06-12-2020 16:10:00 5 C 6.52 g/m*3 5 C 0 km/h
1924 06-12-2020 16:15:00 5 C 6.52 g/m*3 5 C 0 km/h
1925 06-12-2020 16:20:00 5 C 6.52 g/m*3 5 C 0 km/h
Sensor: Nr:Datum:Temp:Abs-Feuchte:Windchill:Wind:
Aussen-T/F 1926 06-12-2020 16:25:00 4.9 C 6.48 g/m*3 4.9 C 0 km/h
1927 06-12-2020 16:30:00 4.9 C 6.48 g/m*3 4.9 C 0 km/h
1928 06-12-2020 16:35:00 4.9 C 6.48 g/m*3 4.9 C 0 km/h
1929 06-12-2020 16:40:00 4.9 C 6.48 g/m*3 4.9 C 0 km/h
1930 06-12-2020 16:45:00 4.9 C 6.48 g/m*3 4.9 C 0 km/h
1931 06-12-2020 16:50:00 4.9 C 6.48 g/m*3 4.9 C 0 km/h
1932 06-12-2020 16:55:00 4.8 C 6.44 g/m*3 4.8 C 0 km/h
1933 06-12-2020 17:00:00 4.8 C 6.44 g/m*3 4.8 C 0 km/h
1934 06-12-2020 17:05:00 4.8 C 6.44 g/m*3 4.8 C 0 km/h
1935 06-12-2020 17:10:00 4.8 C 6.44 g/m*3 4.8 C 4.8 km/h
1936 06-12-2020 17:15:00 4.8 C 6.44 g/m*3 4.8 C 0 km/h
1937 06-12-2020 17:20:00 4.8 C 6.44 g/m*3 4.8 C 0 km/h
1938 06-12-2020 17:25:00 4.8 C 6.44 g/m*3 4.8 C 0 km/h
1939 06-12-2020 17:30:00 4.8 C 6.44 g/m*3 4.8 C 0 km/h
1940 06-12-2020 17:35:00 4.8 C 6.5 g/m*3 4.8 C 0 km/h
1941 06-12-2020 17:40:00 4.8 C 6.5 g/m*3 4.8 C 0 km/h
1942 06-12-2020 17:45:00 4.8 C 6.5 g/m*3 4.8 C 4.8 km/h
1943 06-12-2020 17:50:00 4.8 C 6.5 g/m*3 3.36 C 6.4 km/h
1944 06-12-2020 17:55:00 4.8 C 6.5 g/m*3 4.8 C 4.8 km/h
1945 06-12-2020 18:00:00 4.8 C 6.5 g/m*3 3.36 C 6.4 km/h
1946 06-12-2020 18:05:00 4.8 C 6.44 g/m*3 4.8 C 3.2 km/h
1947 06-12-2020 18:10:00 4.8 C 6.44 g/m*3 4.8 C 3.2 km/h
1948 06-12-2020 18:15:00 4.8 C 6.44 g/m*3 4.8 C 4.8 km/h
1949 06-12-2020 18:20:00 4.8 C 6.44 g/m*3 3.36 C 6.4 km/h
1950 06-12-2020 18:25:00 4.8 C 6.44 g/m*3 4.8 C 0 km/h
Sensor: Nr:Datum:Temp:Abs-Feuchte:Windchill:Wind:
Aussen-T/F 1951 06-12-2020 18:30:00 4.7 C 6.39 g/m*3 4.7 C 1.6 km/h
1952 06-12-2020 18:35:00 4.7 C 6.39 g/m*3 4.7 C 0 km/h
1953 06-12-2020 18:40:00 4.7 C 6.39 g/m*3 4.7 C 0 km/h
1954 06-12-2020 18:45:00 4.7 C 6.39 g/m*3 4.7 C 0 km/h
1955 06-12-2020 18:50:00 4.7 C 6.39 g/m*3 4.7 C 0 km/h
1956 06-12-2020 18:55:00 4.7 C 6.39 g/m*3 4.7 C 0 km/h
1957 06-12-2020 19:00:00 4.7 C 6.39 g/m*3 4.7 C 0 km/h
1958 06-12-2020 19:05:00 4.7 C 6.46 g/m*3 4.7 C 0 km/h
1959 06-12-2020 19:10:00 4.7 C 6.46 g/m*3 4.7 C 0 km/h
1960 06-12-2020 19:15:00 4.7 C 6.46 g/m*3 4.7 C 0 km/h
1961 06-12-2020 19:20:00 4.7 C 6.46 g/m*3 4.7 C 0 km/h
1962 06-12-2020 19:25:00 4.7 C 6.46 g/m*3 4.7 C 4.8 km/h
1963 06-12-2020 19:30:00 4.7 C 6.46 g/m*3 4.7 C 3.2 km/h
1964 06-12-2020 19:35:00 4.7 C 6.46 g/m*3 4.7 C 0 km/h
1965 06-12-2020 19:40:00 4.7 C 6.46 g/m*3 4.7 C 0 km/h
1966 06-12-2020 19:45:00 4.7 C 6.39 g/m*3 4.7 C 0 km/h
1967 06-12-2020 19:50:00 4.7 C 6.39 g/m*3 4.7 C 0 km/h
1968 06-12-2020 19:55:00 4.7 C 6.39 g/m*3 4.7 C 0 km/h
1969 06-12-2020 20:00:00 4.7 C 6.39 g/m*3 4.7 C 3.2 km/h
1970 06-12-2020 20:05:00 4.7 C 6.39 g/m*3 4.7 C 1.6 km/h
1971 06-12-2020 20:10:00 4.7 C 6.39 g/m*3 4.7 C 3.2 km/h
1972 06-12-2020 20:15:00 4.6 C 6.35 g/m*3 4.6 C 3.2 km/h
1973 06-12-2020 20:20:00 4.6 C 6.35 g/m*3 4.6 C 4.8 km/h
1974 06-12-2020 20:25:00 4.6 C 6.35 g/m*3 4.6 C 1.6 km/h
1975 06-12-2020 20:30:00 4.6 C 6.42 g/m*3 4.6 C 0 km/h
Sensor: Nr:Datum:Temp:Abs-Feuchte:Windchill:Wind:
Aussen-T/F 1976 06-12-2020 20:35:00 4.6 C 6.42 g/m*3 4.6 C 0 km/h
1977 06-12-2020 20:40:00 4.6 C 6.42 g/m*3 4.6 C 0 km/h
1978 06-12-2020 20:45:00 4.6 C 6.42 g/m*3 4.6 C 1.6 km/h
1979 06-12-2020 20:50:00 4.6 C 6.42 g/m*3 4.6 C 0 km/h
1980 06-12-2020 20:55:00 4.6 C 6.42 g/m*3 4.6 C 0 km/h
1981 06-12-2020 21:00:00 4.6 C 6.42 g/m*3 4.6 C 0 km/h
1982 06-12-2020 21:05:00 4.6 C 6.42 g/m*3 4.6 C 0 km/h
1983 06-12-2020 21:10:00 4.6 C 6.42 g/m*3 4.6 C 0 km/h
1984 06-12-2020 21:15:00 4.6 C 6.42 g/m*3 4.6 C 0 km/h
1985 06-12-2020 21:20:00 4.6 C 6.42 g/m*3 4.6 C 1.6 km/h
1986 06-12-2020 21:25:00 4.6 C 6.42 g/m*3 4.6 C 1.6 km/h
1987 06-12-2020 21:30:00 4.6 C 6.42 g/m*3 4.6 C 4.8 km/h
1988 06-12-2020 21:35:00 4.6 C 6.42 g/m*3 4.6 C 3.2 km/h
1989 06-12-2020 21:40:00 4.6 C 6.42 g/m*3 4.6 C 4.8 km/h
1990 06-12-2020 21:45:00 4.5 C 6.38 g/m*3 4.5 C 0 km/h
1991 06-12-2020 21:50:00 4.5 C 6.38 g/m*3 4.5 C 4.8 km/h
1992 06-12-2020 21:55:00 4.5 C 6.38 g/m*3 4.5 C 3.2 km/h
1993 06-12-2020 22:00:00 4.5 C 6.38 g/m*3 4.5 C 0 km/h
1994 06-12-2020 22:05:00 4.5 C 6.38 g/m*3 4.5 C 0 km/h
1995 06-12-2020 22:10:00 4.5 C 6.38 g/m*3 4.5 C 0 km/h
1996 06-12-2020 22:15:00 4.5 C 6.38 g/m*3 4.5 C 0 km/h
1997 06-12-2020 22:20:00 4.5 C 6.38 g/m*3 4.5 C 0 km/h
1998 06-12-2020 22:25:00 4.5 C 6.38 g/m*3 4.5 C 0 km/h
1999 06-12-2020 22:30:00 4.5 C 6.38 g/m*3 4.5 C 0 km/h
2000 06-12-2020 22:35:00 4.5 C 6.38 g/m*3 4.5 C 0 km/h
Sensor: Nr:Datum:Temp:Abs-Feuchte:Windchill:Wind:
Aussen-T/F 2001 06-12-2020 22:40:00 4.5 C 6.38 g/m*3 4.5 C 0 km/h
2002 06-12-2020 22:45:00 4.5 C 6.38 g/m*3 4.5 C 0 km/h
2003 06-12-2020 22:50:00 4.5 C 6.38 g/m*3 4.5 C 0 km/h
2004 06-12-2020 22:55:00 4.5 C 6.38 g/m*3 4.5 C 0 km/h
2005 06-12-2020 23:00:00 4.5 C 6.38 g/m*3 4.5 C 0 km/h
2006 06-12-2020 23:05:00 4.5 C 6.38 g/m*3 4.5 C 0 km/h
2007 06-12-2020 23:10:00 4.4 C 6.33 g/m*3 4.4 C 0 km/h
2008 06-12-2020 23:15:00 4.4 C 6.33 g/m*3 4.4 C 0 km/h
2009 06-12-2020 23:20:00 4.4 C 6.33 g/m*3 4.4 C 0 km/h
2010 06-12-2020 23:25:00 4.4 C 6.33 g/m*3 4.4 C 0 km/h
2011 06-12-2020 23:30:00 4.4 C 6.33 g/m*3 4.4 C 0 km/h
2012 06-12-2020 23:35:00 4.4 C 6.33 g/m*3 4.4 C 0 km/h
2013 06-12-2020 23:40:00 4.4 C 6.33 g/m*3 4.4 C 0 km/h
2014 06-12-2020 23:45:00 4.4 C 6.33 g/m*3 4.4 C 0 km/h
2015 06-12-2020 23:50:00 4.4 C 6.33 g/m*3 4.4 C 0 km/h
2016 06-12-2020 23:55:00 4.4 C 6.33 g/m*3 4.4 C 0 km/h
2017 07-12-2020 00:00:00 4.4 C 6.33 g/m*3 4.4 C 0 km/h
2018 07-12-2020 00:05:00 4.4 C 6.33 g/m*3 4.4 C 3.2 km/h
2019 07-12-2020 00:10:00 4.4 C 6.27 g/m*3 4.4 C 1.6 km/h
2020 07-12-2020 00:15:00 4.3 C 6.23 g/m*3 4.3 C 0 km/h
2021 07-12-2020 00:20:00 4.3 C 6.23 g/m*3 4.3 C 0 km/h
2022 07-12-2020 00:25:00 4.3 C 6.29 g/m*3 4.3 C 0 km/h
2023 07-12-2020 00:30:00 4.3 C 6.29 g/m*3 4.3 C 3.2 km/h
2024 07-12-2020 00:35:00 4.3 C 6.29 g/m*3 4.3 C 0 km/h
2025 07-12-2020 00:40:00 4.3 C 6.29 g/m*3 4.3 C 1.6 km/h
Sensor: Nr:Datum:Temp:Abs-Feuchte:Windchill:Wind:
Aussen-T/F 2026 07-12-2020 00:45:00 4.3 C 6.29 g/m*3 4.3 C 0 km/h
2027 07-12-2020 00:50:00 4.3 C 6.29 g/m*3 4.3 C 0 km/h
2028 07-12-2020 00:55:00 4.3 C 6.29 g/m*3 4.3 C 0 km/h
2029 07-12-2020 01:00:00 4.3 C 6.29 g/m*3 4.3 C 0 km/h
2030 07-12-2020 01:05:00 4.3 C 6.29 g/m*3 4.3 C 0 km/h
2031 07-12-2020 01:10:00 4.3 C 6.29 g/m*3 4.3 C 0 km/h
2032 07-12-2020 01:15:00 4.3 C 6.29 g/m*3 4.3 C 0 km/h
2033 07-12-2020 01:20:00 4.3 C 6.29 g/m*3 4.3 C 0 km/h
2034 07-12-2020 01:25:00 4.3 C 6.29 g/m*3 4.3 C 0 km/h
2035 07-12-2020 01:30:00 4.3 C 6.29 g/m*3 4.3 C 0 km/h
2036 07-12-2020 01:35:00 4.3 C 6.29 g/m*3 4.3 C 1.6 km/h
2037 07-12-2020 01:40:00 4.3 C 6.29 g/m*3 4.3 C 1.6 km/h
2038 07-12-2020 01:45:00 4.3 C 6.29 g/m*3 4.3 C 3.2 km/h
2039 07-12-2020 01:50:00 4.3 C 6.29 g/m*3 4.3 C 1.6 km/h
2040 07-12-2020 01:55:00 4.3 C 6.29 g/m*3 4.3 C 1.6 km/h
2041 07-12-2020 02:00:00 4.3 C 6.29 g/m*3 4.3 C 0 km/h
2042 07-12-2020 02:05:00 4.3 C 6.29 g/m*3 4.3 C 0 km/h
2043 07-12-2020 02:10:00 4.2 C 6.25 g/m*3 4.2 C 0 km/h
2044 07-12-2020 02:15:00 4.2 C 6.25 g/m*3 4.2 C 0 km/h
2045 07-12-2020 02:20:00 4.2 C 6.25 g/m*3 4.2 C 0 km/h
2046 07-12-2020 02:25:00 4.2 C 6.25 g/m*3 4.2 C 3.2 km/h
2047 07-12-2020 02:30:00 4.2 C 6.25 g/m*3 4.2 C 1.6 km/h
2048 07-12-2020 02:35:00 4.2 C 6.25 g/m*3 4.2 C 0 km/h
2049 07-12-2020 02:40:00 4.2 C 6.25 g/m*3 4.2 C 1.6 km/h
2050 07-12-2020 02:45:00 4.2 C 6.25 g/m*3 4.2 C 1.6 km/h
Sensor: Nr:Datum:Temp:Abs-Feuchte:Windchill:Wind:
Aussen-T/F 2051 07-12-2020 02:50:00 4.2 C 6.25 g/m*3 4.2 C 0 km/h
2052 07-12-2020 02:55:00 4.1 C 6.21 g/m*3 4.1 C 0 km/h
2053 07-12-2020 03:00:00 4.1 C 6.21 g/m*3 4.1 C 0 km/h
2054 07-12-2020 03:05:00 4.1 C 6.21 g/m*3 4.1 C 1.6 km/h
2055 07-12-2020 03:10:00 4.1 C 6.21 g/m*3 4.1 C 1.6 km/h
2056 07-12-2020 03:15:00 4.1 C 6.21 g/m*3 4.1 C 0 km/h
2057 07-12-2020 03:20:00 4.1 C 6.21 g/m*3 4.1 C 3.2 km/h
2058 07-12-2020 03:25:00 4.1 C 6.21 g/m*3 4.1 C 3.2 km/h
2059 07-12-2020 03:30:00 4.1 C 6.21 g/m*3 4.1 C 0 km/h
2060 07-12-2020 03:35:00 4.1 C 6.21 g/m*3 4.1 C 1.6 km/h
2061 07-12-2020 03:40:00 4.1 C 6.21 g/m*3 4.1 C 3.2 km/h
2062 07-12-2020 03:45:00 4.1 C 6.21 g/m*3 4.1 C 1.6 km/h
2063 07-12-2020 03:50:00 4.1 C 6.21 g/m*3 4.1 C 3.2 km/h
2064 07-12-2020 03:55:00 4.1 C 6.21 g/m*3 4.1 C 1.6 km/h
2065 07-12-2020 04:00:00 4.1 C 6.21 g/m*3 4.1 C 0 km/h
2066 07-12-2020 04:05:00 4.1 C 6.21 g/m*3 4.1 C 1.6 km/h
2067 07-12-2020 04:10:00 4.1 C 6.21 g/m*3 4.1 C 1.6 km/h
2068 07-12-2020 04:15:00 4.1 C 6.21 g/m*3 4.1 C 0 km/h
2069 07-12-2020 04:20:00 4.1 C 6.21 g/m*3 4.1 C 1.6 km/h
2070 07-12-2020 04:25:00 4 C 6.17 g/m*3 4 C 0 km/h
2071 07-12-2020 04:30:00 4 C 6.17 g/m*3 4 C 0 km/h
2072 07-12-2020 04:35:00 3.9 C 6.13 g/m*3 3.9 C 1.6 km/h
2073 07-12-2020 04:40:00 3.9 C 6.13 g/m*3 3.9 C 1.6 km/h
2074 07-12-2020 04:45:00 3.9 C 6.13 g/m*3 3.9 C 3.2 km/h
2075 07-12-2020 04:50:00 3.9 C 6.13 g/m*3 3.9 C 0 km/h
Sensor: Nr:Datum:Temp:Abs-Feuchte:Windchill:Wind:
Aussen-T/F 2076 07-12-2020 04:55:00 3.9 C 6.13 g/m*3 3.9 C 0 km/h
2077 07-12-2020 05:00:00 3.9 C 6.13 g/m*3 3.9 C 0 km/h
2078 07-12-2020 05:05:00 3.9 C 6.13 g/m*3 3.9 C 1.6 km/h
2079 07-12-2020 05:10:00 3.9 C 6.13 g/m*3 3.9 C 1.6 km/h
2080 07-12-2020 05:15:00 3.9 C 6.13 g/m*3 3.9 C 1.6 km/h
2081 07-12-2020 05:20:00 3.9 C 6.13 g/m*3 3.9 C 0 km/h
2082 07-12-2020 05:25:00 3.8 C 6.09 g/m*3 3.8 C 0 km/h
2083 07-12-2020 05:30:00 3.8 C 6.09 g/m*3 3.8 C 1.6 km/h
2084 07-12-2020 05:35:00 3.9 C 6.13 g/m*3 3.9 C 0 km/h
2085 07-12-2020 05:40:00 3.8 C 6.09 g/m*3 3.8 C 1.6 km/h
2086 07-12-2020 05:45:00 3.9 C 6.13 g/m*3 3.9 C 0 km/h
2087 07-12-2020 05:50:00 3.9 C 6.13 g/m*3 3.9 C 0 km/h
2088 07-12-2020 05:55:00 3.9 C 6.13 g/m*3 3.9 C 0 km/h
2089 07-12-2020 06:00:00 3.9 C 6.13 g/m*3 3.9 C 0 km/h
2090 07-12-2020 06:05:00 3.9 C 6.13 g/m*3 3.9 C 3.2 km/h
2091 07-12-2020 06:10:00 3.9 C 6.13 g/m*3 3.9 C 4.8 km/h
2092 07-12-2020 06:15:00 3.9 C 6.13 g/m*3 3.9 C 3.2 km/h
2093 07-12-2020 06:20:00 3.9 C 6.13 g/m*3 3.9 C 3.2 km/h
2094 07-12-2020 06:25:00 3.9 C 6.13 g/m*3 2.32 C 6.4 km/h
2095 07-12-2020 06:30:00 3.9 C 6.13 g/m*3 3.9 C 1.6 km/h
2096 07-12-2020 06:35:00 3.9 C 6.13 g/m*3 3.9 C 3.2 km/h
2097 07-12-2020 06:40:00 3.9 C 6.13 g/m*3 3.9 C 3.2 km/h
2098 07-12-2020 06:45:00 3.9 C 6.13 g/m*3 3.9 C 4.8 km/h
2099 07-12-2020 06:50:00 3.9 C 6.13 g/m*3 3.9 C 3.2 km/h
2100 07-12-2020 06:55:00 3.9 C 6.13 g/m*3 3.9 C 1.6 km/h
Sensor: Nr:Datum:Temp:Abs-Feuchte:Windchill:Wind:
Aussen-T/F 2101 07-12-2020 07:00:00 3.8 C 6.09 g/m*3 3.8 C 3.2 km/h
2102 07-12-2020 07:05:00 3.8 C 6.09 g/m*3 3.8 C 1.6 km/h
2103 07-12-2020 07:10:00 3.8 C 6.09 g/m*3 3.8 C 1.6 km/h
2104 07-12-2020 07:15:00 3.8 C 6.09 g/m*3 3.8 C 0 km/h
2105 07-12-2020 07:20:00 3.8 C 6.09 g/m*3 3.8 C 3.2 km/h
2106 07-12-2020 07:25:00 3.8 C 6.09 g/m*3 3.8 C 0 km/h
2107 07-12-2020 07:30:00 3.8 C 6.09 g/m*3 3.8 C 0 km/h
2108 07-12-2020 07:35:00 3.8 C 6.09 g/m*3 3.8 C 0 km/h
2109 07-12-2020 07:40:00 3.8 C 6.09 g/m*3 3.8 C 0 km/h
2110 07-12-2020 07:45:00 3.8 C 6.09 g/m*3 3.8 C 1.6 km/h
2111 07-12-2020 07:50:00 3.9 C 6.13 g/m*3 3.9 C 3.2 km/h
2112 07-12-2020 07:55:00 3.9 C 6.13 g/m*3 3.9 C 3.2 km/h
2113 07-12-2020 08:00:00 3.9 C 6.13 g/m*3 3.9 C 3.2 km/h
2114 07-12-2020 08:05:00 3.9 C 6.13 g/m*3 2.32 C 6.4 km/h
2115 07-12-2020 08:10:00 3.8 C 6.09 g/m*3 3.8 C 4.8 km/h
2116 07-12-2020 08:15:00 3.8 C 6.09 g/m*3 3.8 C 3.2 km/h
2117 07-12-2020 08:20:00 3.8 C 6.09 g/m*3 3.8 C 4.8 km/h
2118 07-12-2020 08:25:00 3.8 C 6.09 g/m*3 3.8 C 3.2 km/h
2119 07-12-2020 08:30:00 3.8 C 6.09 g/m*3 3.8 C 4.8 km/h
2120 07-12-2020 08:35:00 3.8 C 6.09 g/m*3 3.8 C 4.8 km/h
2121 07-12-2020 08:40:00 3.8 C 6.09 g/m*3 3.8 C 3.2 km/h
2122 07-12-2020 08:45:00 3.8 C 6.09 g/m*3 2.21 C 6.4 km/h
2123 07-12-2020 08:50:00 3.8 C 6.09 g/m*3 3.8 C 4.8 km/h
2124 07-12-2020 08:55:00 3.9 C 6.13 g/m*3 1.82 C 8.1 km/h
2125 07-12-2020 09:00:00 3.9 C 6.13 g/m*3 3.9 C 4.8 km/h
Sensor: Nr:Datum:Temp:Abs-Feuchte:Windchill:Wind:
Aussen-T/F 2126 07-12-2020 09:05:00 3.9 C 6.13 g/m*3 3.9 C 3.2 km/h
2127 07-12-2020 09:10:00 3.9 C 6.13 g/m*3 3.9 C 1.6 km/h
2128 07-12-2020 09:15:00 3.9 C 6.13 g/m*3 2.32 C 6.4 km/h
2129 07-12-2020 09:20:00 3.9 C 6.13 g/m*3 3.9 C 4.8 km/h
2130 07-12-2020 09:25:00 3.9 C 6.13 g/m*3 3.9 C 4.8 km/h
2131 07-12-2020 09:30:00 3.9 C 6.13 g/m*3 3.9 C 4.8 km/h
2132 07-12-2020 09:35:00 3.9 C 6.13 g/m*3 3.9 C 4.8 km/h
2133 07-12-2020 09:40:00 3.9 C 6.13 g/m*3 2.32 C 6.4 km/h
2134 07-12-2020 09:45:00 4 C 6.17 g/m*3 4 C 3.2 km/h
2135 07-12-2020 09:50:00 4.1 C 6.21 g/m*3 2.05 C 8.1 km/h
2136 07-12-2020 09:55:00 4.1 C 6.21 g/m*3 2.05 C 8.1 km/h
2137 07-12-2020 10:00:00 4.1 C 6.21 g/m*3 4.1 C 3.2 km/h
2138 07-12-2020 10:05:00 4.2 C 6.25 g/m*3 4.2 C 4.8 km/h
2139 07-12-2020 10:10:00 4.2 C 6.25 g/m*3 4.2 C 3.2 km/h
2140 07-12-2020 10:15:00 4.3 C 6.29 g/m*3 4.3 C 3.2 km/h
2141 07-12-2020 10:20:00 4.3 C 6.29 g/m*3 2.78 C 6.4 km/h
2142 07-12-2020 10:25:00 4.4 C 6.33 g/m*3 4.4 C 4.8 km/h
2143 07-12-2020 10:30:00 4.5 C 6.38 g/m*3 4.5 C 4.8 km/h
2144 07-12-2020 10:35:00 4.6 C 6.42 g/m*3 3.13 C 6.4 km/h
2145 07-12-2020 10:40:00 4.6 C 6.42 g/m*3 4.6 C 3.2 km/h
2146 07-12-2020 10:45:00 4.7 C 6.46 g/m*3 4.7 C 1.6 km/h
2147 07-12-2020 10:50:00 4.8 C 6.5 g/m*3 4.8 C 1.6 km/h
2148 07-12-2020 10:55:00 4.9 C 6.55 g/m*3 3.48 C 6.4 km/h
2149 07-12-2020 11:00:00 4.9 C 6.55 g/m*3 3.48 C 6.4 km/h
2150 07-12-2020 11:05:00 4.9 C 6.55 g/m*3 3.48 C 6.4 km/h
Sensor: Nr:Datum:Temp:Abs-Feuchte:Windchill:Wind:
Aussen-T/F 2151 07-12-2020 11:10:00 5 C 6.59 g/m*3 3.59 C 6.4 km/h
2152 07-12-2020 11:15:00 5.1 C 6.63 g/m*3 5.1 C 4.8 km/h
2153 07-12-2020 11:20:00 5.1 C 6.63 g/m*3 5.1 C 4.8 km/h
2154 07-12-2020 11:25:00 5.1 C 6.63 g/m*3 2.84 C 9.7 km/h
2155 07-12-2020 11:30:00 5.1 C 6.63 g/m*3 2.84 C 9.7 km/h
2156 07-12-2020 11:35:00 5.1 C 6.57 g/m*3 2.51 C 11.3 km/h
2157 07-12-2020 11:40:00 5.1 C 6.57 g/m*3 2.84 C 9.7 km/h
2158 07-12-2020 11:45:00 5 C 6.52 g/m*3 2.09 C 12.9 km/h
2159 07-12-2020 11:50:00 5.1 C 6.57 g/m*3 3.23 C 8.1 km/h
2160 07-12-2020 11:55:00 5.1 C 6.57 g/m*3 3.71 C 6.4 km/h
2161 07-12-2020 12:00:00 5.1 C 6.57 g/m*3 1.71 C 16.1 km/h
2162 07-12-2020 12:05:00 5.2 C 6.54 g/m*3 3.34 C 8.1 km/h
2163 07-12-2020 12:10:00 5.3 C 6.58 g/m*3 2.75 C 11.3 km/h
2164 07-12-2020 12:15:00 5.4 C 6.63 g/m*3 2.87 C 11.3 km/h
2165 07-12-2020 12:20:00 5.5 C 6.67 g/m*3 3.32 C 9.7 km/h
2166 07-12-2020 12:25:00 5.6 C 6.65 g/m*3 3.11 C 11.3 km/h
2167 07-12-2020 12:30:00 5.7 C 6.69 g/m*3 3.93 C 8.1 km/h
2168 07-12-2020 12:35:00 5.7 C 6.62 g/m*3 3.93 C 8.1 km/h
2169 07-12-2020 12:40:00 5.7 C 6.62 g/m*3 4.4 C 6.4 km/h
2170 07-12-2020 12:45:00 5.8 C 6.66 g/m*3 5.8 C 4.8 km/h
2171 07-12-2020 12:50:00 5.8 C 6.66 g/m*3 4.52 C 6.4 km/h
2172 07-12-2020 12:55:00 5.9 C 6.63 g/m*3 4.63 C 6.4 km/h
2173 07-12-2020 13:00:00 5.9 C 6.63 g/m*3 3.8 C 9.7 km/h
2174 07-12-2020 13:05:00 5.9 C 6.56 g/m*3 4.17 C 8.1 km/h
2175 07-12-2020 13:10:00 5.9 C 6.56 g/m*3 4.17 C 8.1 km/h
Sensor: Nr:Datum:Temp:Abs-Feuchte:Windchill:Wind:
Aussen-T/F 2176 07-12-2020 13:15:00 6 C 6.6 g/m*3 3.92 C 9.7 km/h
2177 07-12-2020 13:20:00 6.1 C 6.65 g/m*3 4.4 C 8.1 km/h
2178 07-12-2020 13:25:00 6.2 C 6.69 g/m*3 4.98 C 6.4 km/h
2179 07-12-2020 13:30:00 6.3 C 6.66 g/m*3 4.64 C 8.1 km/h
2180 07-12-2020 13:35:00 6.3 C 6.59 g/m*3 3.2 C 16.1 km/h
2181 07-12-2020 13:40:00 6.3 C 6.51 g/m*3 3.96 C 11.3 km/h
2182 07-12-2020 13:45:00 6.2 C 6.55 g/m*3 4.52 C 8.1 km/h
2183 07-12-2020 13:50:00 6.2 C 6.47 g/m*3 4.15 C 9.7 km/h
2184 07-12-2020 13:55:00 6.2 C 6.47 g/m*3 4.52 C 8.1 km/h
2185 07-12-2020 14:00:00 6.3 C 6.51 g/m*3 6.3 C 4.8 km/h
2186 07-12-2020 14:05:00 6.3 C 6.51 g/m*3 5.1 C 6.4 km/h
2187 07-12-2020 14:10:00 6.3 C 6.51 g/m*3 4.64 C 8.1 km/h
2188 07-12-2020 14:15:00 6.3 C 6.51 g/m*3 6.3 C 4.8 km/h
2189 07-12-2020 14:20:00 6.3 C 6.51 g/m*3 6.3 C 4.8 km/h
2190 07-12-2020 14:25:00 6.3 C 6.59 g/m*3 6.3 C 0 km/h
2191 07-12-2020 14:30:00 6.3 C 6.59 g/m*3 6.3 C 0 km/h
2192 07-12-2020 14:35:00 6.3 C 6.59 g/m*3 6.3 C 0 km/h
2193 07-12-2020 14:40:00 6.3 C 6.66 g/m*3 6.3 C 0 km/h
2194 07-12-2020 14:45:00 6.3 C 6.59 g/m*3 6.3 C 4.8 km/h
2195 07-12-2020 14:50:00 6.2 C 6.55 g/m*3 6.2 C 4.8 km/h
2196 07-12-2020 14:55:00 6.2 C 6.55 g/m*3 6.2 C 4.8 km/h
2197 07-12-2020 15:00:00 6.1 C 6.5 g/m*3 6.1 C 4.8 km/h
2198 07-12-2020 15:05:00 6.1 C 6.58 g/m*3 6.1 C 4.8 km/h
2199 07-12-2020 15:10:00 6.1 C 6.58 g/m*3 6.1 C 3.2 km/h
2200 07-12-2020 15:15:00 6 C 6.53 g/m*3 6 C 4.8 km/h
Sensor: Nr:Datum:Temp:Abs-Feuchte:Windchill:Wind:
Aussen-T/F 2201 07-12-2020 15:20:00 6 C 6.53 g/m*3 6 C 0 km/h
2202 07-12-2020 15:25:00 5.9 C 6.56 g/m*3 5.9 C 0 km/h
2203 07-12-2020 15:30:00 5.9 C 6.49 g/m*3 5.9 C 3.2 km/h
2204 07-12-2020 15:35:00 5.8 C 6.45 g/m*3 5.8 C 0 km/h
2205 07-12-2020 15:40:00 5.8 C 6.45 g/m*3 5.8 C 1.6 km/h
2206 07-12-2020 15:45:00 5.7 C 6.4 g/m*3 5.7 C 1.6 km/h
2207 07-12-2020 15:50:00 5.7 C 6.4 g/m*3 5.7 C 1.6 km/h
2208 07-12-2020 15:55:00 5.7 C 6.4 g/m*3 5.7 C 1.6 km/h
2209 07-12-2020 16:00:00 5.6 C 6.43 g/m*3 5.6 C 0 km/h
2210 07-12-2020 16:05:00 5.6 C 6.43 g/m*3 5.6 C 0 km/h
2211 07-12-2020 16:10:00 5.5 C 6.39 g/m*3 5.5 C 0 km/h
2212 07-12-2020 16:15:00 5.4 C 6.35 g/m*3 5.4 C 3.2 km/h
2213 07-12-2020 16:20:00 5.4 C 6.42 g/m*3 5.4 C 3.2 km/h
2214 07-12-2020 16:25:00 5.3 C 6.38 g/m*3 5.3 C 3.2 km/h
2215 07-12-2020 16:30:00 5.3 C 6.38 g/m*3 5.3 C 3.2 km/h
2216 07-12-2020 16:35:00 5.2 C 6.33 g/m*3 5.2 C 0 km/h
2217 07-12-2020 16:40:00 5.2 C 6.33 g/m*3 5.2 C 0 km/h
2218 07-12-2020 16:45:00 5.2 C 6.33 g/m*3 5.2 C 0 km/h
2219 07-12-2020 16:50:00 5.1 C 6.29 g/m*3 5.1 C 0 km/h
2220 07-12-2020 16:55:00 5.1 C 6.36 g/m*3 5.1 C 0 km/h
2221 07-12-2020 17:00:00 5.1 C 6.36 g/m*3 5.1 C 0 km/h
2222 07-12-2020 17:05:00 5 C 6.32 g/m*3 5 C 0 km/h
2223 07-12-2020 17:10:00 5 C 6.32 g/m*3 5 C 0 km/h
2224 07-12-2020 17:15:00 4.9 C 6.28 g/m*3 4.9 C 0 km/h
2225 07-12-2020 17:20:00 4.9 C 6.28 g/m*3 4.9 C 0 km/h
Sensor: Nr:Datum:Temp:Abs-Feuchte:Windchill:Wind:
Aussen-T/F 2226 07-12-2020 17:25:00 4.9 C 6.28 g/m*3 4.9 C 0 km/h
2227 07-12-2020 17:30:00 4.9 C 6.35 g/m*3 4.9 C 4.8 km/h
2228 07-12-2020 17:35:00 4.8 C 6.24 g/m*3 4.8 C 1.6 km/h
2229 07-12-2020 17:40:00 4.8 C 6.24 g/m*3 4.8 C 0 km/h
2230 07-12-2020 17:45:00 4.7 C 6.26 g/m*3 4.7 C 0 km/h
2231 07-12-2020 17:50:00 4.7 C 6.26 g/m*3 4.7 C 4.8 km/h
2232 07-12-2020 17:55:00 4.7 C 6.26 g/m*3 4.7 C 1.6 km/h
2233 07-12-2020 18:00:00 4.6 C 6.22 g/m*3 4.6 C 0 km/h
2234 07-12-2020 18:05:00 4.6 C 6.22 g/m*3 4.6 C 0 km/h
2235 07-12-2020 18:10:00 4.6 C 6.22 g/m*3 4.6 C 0 km/h
2236 07-12-2020 18:15:00 4.6 C 6.22 g/m*3 4.6 C 0 km/h
2237 07-12-2020 18:20:00 4.6 C 6.22 g/m*3 4.6 C 0 km/h
2238 07-12-2020 18:25:00 4.5 C 6.18 g/m*3 4.5 C 0 km/h
2239 07-12-2020 18:30:00 4.5 C 6.18 g/m*3 4.5 C 0 km/h
2240 07-12-2020 18:35:00 4.4 C 6.14 g/m*3 4.4 C 3.2 km/h
2241 07-12-2020 18:40:00 4.4 C 6.14 g/m*3 4.4 C 4.8 km/h
2242 07-12-2020 18:45:00 4.3 C 6.1 g/m*3 4.3 C 1.6 km/h
2243 07-12-2020 18:50:00 4.2 C 6.06 g/m*3 4.2 C 0 km/h
2244 07-12-2020 18:55:00 4 C 5.91 g/m*3 4 C 0 km/h
2245 07-12-2020 19:00:00 3.8 C 5.83 g/m*3 3.8 C 1.6 km/h
2246 07-12-2020 19:05:00 3.7 C 5.8 g/m*3 3.7 C 4.8 km/h
2247 07-12-2020 19:10:00 3.6 C 5.82 g/m*3 3.6 C 3.2 km/h
2248 07-12-2020 19:15:00 3.4 C 5.74 g/m*3 3.4 C 1.6 km/h
2249 07-12-2020 19:20:00 3.3 C 5.7 g/m*3 3.3 C 0 km/h
2250 07-12-2020 19:25:00 3.3 C 5.7 g/m*3 3.3 C 0 km/h
Sensor: Nr:Datum:Temp:Abs-Feuchte:Windchill:Wind:
Aussen-T/F 2251 07-12-2020 19:30:00 3.2 C 5.66 g/m*3 3.2 C 3.2 km/h
2252 07-12-2020 19:35:00 3 C 5.59 g/m*3 3 C 4.8 km/h
2253 07-12-2020 19:40:00 2.9 C 5.55 g/m*3 2.9 C 4.8 km/h
2254 07-12-2020 19:45:00 2.7 C 5.48 g/m*3 2.7 C 4.8 km/h
2255 07-12-2020 19:50:00 2.6 C 5.44 g/m*3 2.6 C 4.8 km/h
2256 07-12-2020 19:55:00 2.4 C 5.37 g/m*3 2.4 C 4.8 km/h
2257 07-12-2020 20:00:00 2.3 C 5.33 g/m*3 0.47 C 6.4 km/h
2258 07-12-2020 20:05:00 2.2 C 5.29 g/m*3 0.36 C 6.4 km/h
2259 07-12-2020 20:10:00 2.1 C 5.26 g/m*3 2.1 C 3.2 km/h
2260 07-12-2020 20:15:00 2 C 5.22 g/m*3 2 C 4.8 km/h
2261 07-12-2020 20:20:00 1.9 C 5.19 g/m*3 1.9 C 4.8 km/h
2262 07-12-2020 20:25:00 1.9 C 5.24 g/m*3 1.9 C 4.8 km/h
2263 07-12-2020 20:30:00 1.9 C 5.24 g/m*3 1.9 C 4.8 km/h
2264 07-12-2020 20:35:00 1.8 C 5.21 g/m*3 1.8 C 4.8 km/h
2265 07-12-2020 20:40:00 1.7 C 5.17 g/m*3 1.7 C 4.8 km/h
2266 07-12-2020 20:45:00 1.7 C 5.17 g/m*3 1.7 C 4.8 km/h
2267 07-12-2020 20:50:00 1.6 C 5.14 g/m*3 1.6 C 3.2 km/h
2268 07-12-2020 20:55:00 1.5 C 5.1 g/m*3 1.5 C 0 km/h
2269 07-12-2020 21:00:00 1.4 C 5.07 g/m*3 1.4 C 4.8 km/h
2270 07-12-2020 21:05:00 1.4 C 5.07 g/m*3 1.4 C 3.2 km/h
2271 07-12-2020 21:10:00 1.5 C 5.1 g/m*3 1.5 C 4.8 km/h
2272 07-12-2020 21:15:00 1.6 C 5.19 g/m*3 1.6 C 3.2 km/h
2273 07-12-2020 21:20:00 1.7 C 5.23 g/m*3 1.7 C 0 km/h
2274 07-12-2020 21:25:00 1.8 C 5.26 g/m*3 1.8 C 0 km/h
2275 07-12-2020 21:30:00 1.9 C 5.3 g/m*3 1.9 C 1.6 km/h
Sensor: Nr:Datum:Temp:Abs-Feuchte:Windchill:Wind:
Aussen-T/F 2276 07-12-2020 21:35:00 2.1 C 5.37 g/m*3 2.1 C 0 km/h
2277 07-12-2020 21:40:00 2.1 C 5.37 g/m*3 2.1 C 0 km/h
2278 07-12-2020 21:45:00 2.2 C 5.41 g/m*3 2.2 C 0 km/h
2279 07-12-2020 21:50:00 2.2 C 5.41 g/m*3 2.2 C 0 km/h
2280 07-12-2020 21:55:00 2.3 C 5.44 g/m*3 2.3 C 0 km/h
2281 07-12-2020 22:00:00 2.3 C 5.44 g/m*3 2.3 C 0 km/h
2282 07-12-2020 22:05:00 2.4 C 5.48 g/m*3 2.4 C 0 km/h
2283 07-12-2020 22:10:00 2.4 C 5.48 g/m*3 2.4 C 0 km/h
2284 07-12-2020 22:15:00 2.4 C 5.48 g/m*3 2.4 C 0 km/h
2285 07-12-2020 22:20:00 2.5 C 5.52 g/m*3 2.5 C 0 km/h
2286 07-12-2020 22:25:00 2.5 C 5.52 g/m*3 2.5 C 0 km/h
2287 07-12-2020 22:30:00 2.6 C 5.56 g/m*3 2.6 C 0 km/h
2288 07-12-2020 22:35:00 2.6 C 5.56 g/m*3 2.6 C 0 km/h
2289 07-12-2020 22:40:00 2.6 C 5.56 g/m*3 2.6 C 0 km/h
2290 07-12-2020 22:45:00 2.6 C 5.56 g/m*3 2.6 C 0 km/h
2291 07-12-2020 22:50:00 2.6 C 5.56 g/m*3 2.6 C 0 km/h
2292 07-12-2020 22:55:00 2.7 C 5.59 g/m*3 2.7 C 0 km/h
2293 07-12-2020 23:00:00 2.7 C 5.59 g/m*3 2.7 C 0 km/h
2294 07-12-2020 23:05:00 2.7 C 5.59 g/m*3 2.7 C 0 km/h
2295 07-12-2020 23:10:00 2.7 C 5.59 g/m*3 2.7 C 0 km/h
2296 07-12-2020 23:15:00 2.8 C 5.63 g/m*3 2.8 C 0 km/h
2297 07-12-2020 23:20:00 2.8 C 5.63 g/m*3 2.8 C 0 km/h
2298 07-12-2020 23:25:00 2.8 C 5.63 g/m*3 2.8 C 0 km/h
2299 07-12-2020 23:30:00 2.8 C 5.63 g/m*3 2.8 C 0 km/h
2300 07-12-2020 23:35:00 2.8 C 5.63 g/m*3 2.8 C 0 km/h
Sensor: Nr:Datum:Temp:Abs-Feuchte:Windchill:Wind:
Aussen-T/F 2301 07-12-2020 23:40:00 2.9 C 5.67 g/m*3 2.9 C 0 km/h
2302 07-12-2020 23:45:00 2.9 C 5.67 g/m*3 2.9 C 0 km/h
2303 07-12-2020 23:50:00 2.9 C 5.67 g/m*3 2.9 C 0 km/h
2304 07-12-2020 23:55:00 2.9 C 5.67 g/m*3 2.9 C 0 km/h
2305 08-12-2020 00:00:00 3 C 5.71 g/m*3 3 C 0 km/h
2306 08-12-2020 00:05:00 3 C 5.71 g/m*3 3 C 0 km/h
2307 08-12-2020 00:10:00 3 C 5.71 g/m*3 3 C 0 km/h
2308 08-12-2020 00:15:00 3.1 C 5.75 g/m*3 3.1 C 0 km/h
2309 08-12-2020 00:20:00 3.1 C 5.75 g/m*3 3.1 C 0 km/h
2310 08-12-2020 00:25:00 3.1 C 5.75 g/m*3 3.1 C 0 km/h
2311 08-12-2020 00:30:00 3.1 C 5.75 g/m*3 3.1 C 0 km/h
2312 08-12-2020 00:35:00 3.1 C 5.75 g/m*3 3.1 C 0 km/h
2313 08-12-2020 00:40:00 3.1 C 5.75 g/m*3 3.1 C 0 km/h
2314 08-12-2020 00:45:00 3.1 C 5.75 g/m*3 3.1 C 0 km/h
2315 08-12-2020 00:50:00 3.1 C 5.75 g/m*3 3.1 C 0 km/h
2316 08-12-2020 00:55:00 3.1 C 5.75 g/m*3 3.1 C 0 km/h
2317 08-12-2020 01:00:00 3.1 C 5.75 g/m*3 3.1 C 0 km/h
2318 08-12-2020 01:05:00 3.1 C 5.75 g/m*3 3.1 C 0 km/h
2319 08-12-2020 01:10:00 3.1 C 5.75 g/m*3 3.1 C 0 km/h
2320 08-12-2020 01:15:00 3.2 C 5.79 g/m*3 3.2 C 0 km/h
2321 08-12-2020 01:20:00 3.1 C 5.75 g/m*3 3.1 C 0 km/h
2322 08-12-2020 01:25:00 3.1 C 5.75 g/m*3 3.1 C 0 km/h
2323 08-12-2020 01:30:00 3.1 C 5.75 g/m*3 3.1 C 0 km/h
2324 08-12-2020 01:35:00 3.1 C 5.75 g/m*3 3.1 C 0 km/h
2325 08-12-2020 01:40:00 3.1 C 5.75 g/m*3 3.1 C 0 km/h
Sensor: Nr:Datum:Temp:Abs-Feuchte:Windchill:Wind:
Aussen-T/F 2326 08-12-2020 01:45:00 3.1 C 5.75 g/m*3 3.1 C 0 km/h
2327 08-12-2020 01:50:00 3.1 C 5.75 g/m*3 3.1 C 0 km/h
2328 08-12-2020 01:55:00 3.1 C 5.75 g/m*3 3.1 C 0 km/h
2329 08-12-2020 02:00:00 3.1 C 5.75 g/m*3 3.1 C 0 km/h
2330 08-12-2020 02:05:00 3.1 C 5.75 g/m*3 3.1 C 0 km/h
2331 08-12-2020 02:10:00 3.1 C 5.75 g/m*3 3.1 C 0 km/h
2332 08-12-2020 02:15:00 3.1 C 5.75 g/m*3 3.1 C 0 km/h
2333 08-12-2020 02:20:00 3.1 C 5.75 g/m*3 3.1 C 0 km/h
2334 08-12-2020 02:25:00 3.1 C 5.81 g/m*3 3.1 C 0 km/h
2335 08-12-2020 02:30:00 3.1 C 5.75 g/m*3 3.1 C 0 km/h
2336 08-12-2020 02:35:00 3 C 5.71 g/m*3 3 C 0 km/h
2337 08-12-2020 02:40:00 2.9 C 5.67 g/m*3 2.9 C 0 km/h
2338 08-12-2020 02:45:00 2.9 C 5.67 g/m*3 2.9 C 0 km/h
2339 08-12-2020 02:50:00 2.8 C 5.63 g/m*3 2.8 C 0 km/h
2340 08-12-2020 02:55:00 2.8 C 5.63 g/m*3 2.8 C 0 km/h
2341 08-12-2020 03:00:00 2.9 C 5.67 g/m*3 2.9 C 0 km/h
2342 08-12-2020 03:05:00 2.9 C 5.67 g/m*3 2.9 C 0 km/h
2343 08-12-2020 03:10:00 2.9 C 5.67 g/m*3 2.9 C 1.6 km/h
2344 08-12-2020 03:15:00 2.9 C 5.67 g/m*3 2.9 C 1.6 km/h
2345 08-12-2020 03:20:00 2.8 C 5.63 g/m*3 2.8 C 0 km/h
2346 08-12-2020 03:25:00 2.8 C 5.63 g/m*3 2.8 C 0 km/h
2347 08-12-2020 03:30:00 2.8 C 5.69 g/m*3 2.8 C 0 km/h
2348 08-12-2020 03:35:00 2.8 C 5.69 g/m*3 2.8 C 0 km/h
2349 08-12-2020 03:40:00 2.9 C 5.73 g/m*3 2.9 C 0 km/h
2350 08-12-2020 03:45:00 2.9 C 5.73 g/m*3 2.9 C 0 km/h
Sensor: Nr:Datum:Temp:Abs-Feuchte:Windchill:Wind:
Aussen-T/F 2351 08-12-2020 03:50:00 2.9 C 5.73 g/m*3 2.9 C 0 km/h
2352 08-12-2020 03:55:00 3 C 5.77 g/m*3 3 C 0 km/h
2353 08-12-2020 04:00:00 3.1 C 5.81 g/m*3 3.1 C 0 km/h
2354 08-12-2020 04:05:00 3.1 C 5.81 g/m*3 3.1 C 0 km/h
2355 08-12-2020 04:10:00 3.2 C 5.85 g/m*3 3.2 C 0 km/h
2356 08-12-2020 04:15:00 3.2 C 5.85 g/m*3 3.2 C 0 km/h
2357 08-12-2020 04:20:00 3.2 C 5.85 g/m*3 3.2 C 0 km/h
2358 08-12-2020 04:25:00 3.2 C 5.85 g/m*3 3.2 C 0 km/h
2359 08-12-2020 04:30:00 3.2 C 5.85 g/m*3 3.2 C 0 km/h
2360 08-12-2020 04:35:00 3.3 C 5.88 g/m*3 3.3 C 0 km/h
2361 08-12-2020 04:40:00 3.3 C 5.88 g/m*3 3.3 C 0 km/h
2362 08-12-2020 04:45:00 3.3 C 5.88 g/m*3 3.3 C 0 km/h
2363 08-12-2020 04:50:00 3.3 C 5.88 g/m*3 3.3 C 0 km/h
2364 08-12-2020 04:55:00 3.3 C 5.88 g/m*3 3.3 C 0 km/h
2365 08-12-2020 05:00:00 3.3 C 5.88 g/m*3 3.3 C 0 km/h
2366 08-12-2020 05:05:00 3.2 C 5.85 g/m*3 3.2 C 1.6 km/h
2367 08-12-2020 05:10:00 3.2 C 5.79 g/m*3 3.2 C 1.6 km/h
2368 08-12-2020 05:15:00 3.1 C 5.75 g/m*3 3.1 C 4.8 km/h
2369 08-12-2020 05:20:00 3.1 C 5.75 g/m*3 3.1 C 0 km/h
2370 08-12-2020 05:25:00 3.1 C 5.75 g/m*3 3.1 C 0 km/h
2371 08-12-2020 05:30:00 3.1 C 5.75 g/m*3 3.1 C 0 km/h
2372 08-12-2020 05:35:00 3.1 C 5.75 g/m*3 3.1 C 0 km/h
2373 08-12-2020 05:40:00 3.1 C 5.75 g/m*3 3.1 C 0 km/h
2374 08-12-2020 05:45:00 3.1 C 5.75 g/m*3 3.1 C 1.6 km/h
2375 08-12-2020 05:50:00 3 C 5.71 g/m*3 3 C 0 km/h
Sensor: Nr:Datum:Temp:Abs-Feuchte:Windchill:Wind:
Aussen-T/F 2376 08-12-2020 05:55:00 3 C 5.71 g/m*3 3 C 0 km/h
2377 08-12-2020 06:00:00 3 C 5.71 g/m*3 3 C 0 km/h
2378 08-12-2020 06:05:00 3 C 5.71 g/m*3 3 C 0 km/h
2379 08-12-2020 06:10:00 3 C 5.71 g/m*3 3 C 0 km/h
2380 08-12-2020 06:15:00 3 C 5.71 g/m*3 3 C 0 km/h
2381 08-12-2020 06:20:00 2.9 C 5.67 g/m*3 2.9 C 0 km/h
2382 08-12-2020 06:25:00 2.9 C 5.67 g/m*3 2.9 C 0 km/h
2383 08-12-2020 06:30:00 2.9 C 5.67 g/m*3 2.9 C 3.2 km/h
2384 08-12-2020 06:35:00 2.9 C 5.67 g/m*3 2.9 C 0 km/h
2385 08-12-2020 06:40:00 2.9 C 5.67 g/m*3 2.9 C 0 km/h
2386 08-12-2020 06:45:00 2.9 C 5.67 g/m*3 2.9 C 1.6 km/h
2387 08-12-2020 06:50:00 2.9 C 5.61 g/m*3 2.9 C 0 km/h
2388 08-12-2020 06:55:00 2.9 C 5.61 g/m*3 2.9 C 3.2 km/h
2389 08-12-2020 07:00:00 2.9 C 5.61 g/m*3 2.9 C 0 km/h
2390 08-12-2020 07:05:00 2.9 C 5.61 g/m*3 2.9 C 0 km/h
2391 08-12-2020 07:10:00 2.9 C 5.61 g/m*3 2.9 C 0 km/h
2392 08-12-2020 07:15:00 2.9 C 5.61 g/m*3 2.9 C 0 km/h
2393 08-12-2020 07:20:00 2.9 C 5.61 g/m*3 2.9 C 0 km/h
2394 08-12-2020 07:25:00 2.9 C 5.61 g/m*3 2.9 C 0 km/h
2395 08-12-2020 07:30:00 2.9 C 5.61 g/m*3 2.9 C 0 km/h
2396 08-12-2020 07:35:00 2.9 C 5.61 g/m*3 2.9 C 0 km/h
2397 08-12-2020 07:40:00 2.9 C 5.61 g/m*3 2.9 C 0 km/h
2398 08-12-2020 07:45:00 2.9 C 5.61 g/m*3 2.9 C 0 km/h
2399 08-12-2020 07:50:00 2.9 C 5.61 g/m*3 2.9 C 0 km/h
2400 08-12-2020 07:55:00 2.9 C 5.61 g/m*3 2.9 C 0 km/h
Sensor: Nr:Datum:Temp:Abs-Feuchte:Windchill:Wind:
Aussen-T/F 2401 08-12-2020 08:00:00 2.8 C 5.57 g/m*3 2.8 C 0 km/h
2402 08-12-2020 08:05:00 2.8 C 5.57 g/m*3 2.8 C 1.6 km/h
2403 08-12-2020 08:10:00 2.8 C 5.57 g/m*3 2.8 C 1.6 km/h
2404 08-12-2020 08:15:00 2.8 C 5.57 g/m*3 2.8 C 0 km/h
2405 08-12-2020 08:20:00 2.8 C 5.51 g/m*3 2.8 C 0 km/h
2406 08-12-2020 08:25:00 2.7 C 5.48 g/m*3 2.7 C 0 km/h
2407 08-12-2020 08:30:00 2.7 C 5.48 g/m*3 2.7 C 1.6 km/h
2408 08-12-2020 08:35:00 2.6 C 5.44 g/m*3 2.6 C 0 km/h
2409 08-12-2020 08:40:00 2.5 C 5.4 g/m*3 2.5 C 0 km/h
2410 08-12-2020 08:45:00 2.5 C 5.4 g/m*3 2.5 C 0 km/h
2411 08-12-2020 08:50:00 2.5 C 5.4 g/m*3 2.5 C 0 km/h
2412 08-12-2020 08:55:00 2.5 C 5.46 g/m*3 2.5 C 0 km/h
2413 08-12-2020 09:00:00 2.6 C 5.5 g/m*3 2.6 C 0 km/h
2414 08-12-2020 09:05:00 2.6 C 5.5 g/m*3 2.6 C 0 km/h
2415 08-12-2020 09:10:00 2.6 C 5.5 g/m*3 2.6 C 0 km/h
2416 08-12-2020 09:15:00 2.7 C 5.54 g/m*3 2.7 C 0 km/h
2417 08-12-2020 09:20:00 2.7 C 5.54 g/m*3 2.7 C 0 km/h
2418 08-12-2020 09:25:00 2.8 C 5.57 g/m*3 2.8 C 0 km/h
2419 08-12-2020 09:30:00 2.8 C 5.57 g/m*3 2.8 C 0 km/h
2420 08-12-2020 09:35:00 2.8 C 5.57 g/m*3 2.8 C 0 km/h
2421 08-12-2020 09:40:00 2.8 C 5.57 g/m*3 2.8 C 0 km/h
2422 08-12-2020 09:45:00 2.9 C 5.61 g/m*3 2.9 C 0 km/h
2423 08-12-2020 09:50:00 2.9 C 5.61 g/m*3 2.9 C 0 km/h
2424 08-12-2020 09:55:00 2.9 C 5.61 g/m*3 2.9 C 0 km/h
2425 08-12-2020 10:00:00 3 C 5.65 g/m*3 3 C 0 km/h
Sensor: Nr:Datum:Temp:Abs-Feuchte:Windchill:Wind:
Aussen-T/F 2426 08-12-2020 10:05:00 3.1 C 5.69 g/m*3 3.1 C 0 km/h
2427 08-12-2020 10:10:00 3.1 C 5.69 g/m*3 3.1 C 0 km/h
2428 08-12-2020 10:15:00 3.2 C 5.72 g/m*3 3.2 C 4.8 km/h
2429 08-12-2020 10:20:00 3.3 C 5.7 g/m*3 1.11 C 8.1 km/h
2430 08-12-2020 10:25:00 3.3 C 5.7 g/m*3 1.11 C 8.1 km/h
2431 08-12-2020 10:30:00 3.4 C 5.74 g/m*3 3.4 C 0 km/h
2432 08-12-2020 10:35:00 3.6 C 5.76 g/m*3 3.6 C 4.8 km/h
2433 08-12-2020 10:40:00 3.6 C 5.69 g/m*3 1.98 C 6.4 km/h
2434 08-12-2020 10:45:00 3.7 C 5.73 g/m*3 3.7 C 4.8 km/h
2435 08-12-2020 10:50:00 3.8 C 5.77 g/m*3 3.8 C 4.8 km/h
2436 08-12-2020 10:55:00 3.8 C 5.71 g/m*3 3.8 C 3.2 km/h
2437 08-12-2020 11:00:00 3.9 C 5.75 g/m*3 3.9 C 3.2 km/h
2438 08-12-2020 11:05:00 3.9 C 5.68 g/m*3 3.9 C 3.2 km/h
2439 08-12-2020 11:10:00 4.1 C 5.76 g/m*3 4.1 C 4.8 km/h
2440 08-12-2020 11:15:00 4.1 C 5.76 g/m*3 2.55 C 6.4 km/h
2441 08-12-2020 11:20:00 4.2 C 5.8 g/m*3 4.2 C 3.2 km/h
2442 08-12-2020 11:25:00 4.3 C 5.77 g/m*3 4.3 C 3.2 km/h
2443 08-12-2020 11:30:00 4.4 C 5.88 g/m*3 4.4 C 3.2 km/h
2444 08-12-2020 11:35:00 4.5 C 5.85 g/m*3 4.5 C 1.6 km/h
2445 08-12-2020 11:40:00 4.6 C 5.89 g/m*3 4.6 C 3.2 km/h
2446 08-12-2020 11:45:00 4.7 C 5.86 g/m*3 2.76 C 8.1 km/h
2447 08-12-2020 11:50:00 4.8 C 5.9 g/m*3 4.8 C 4.8 km/h
2448 08-12-2020 11:55:00 4.8 C 5.83 g/m*3 3.36 C 6.4 km/h
2449 08-12-2020 12:00:00 4.8 C 5.83 g/m*3 4.8 C 3.2 km/h
2450 08-12-2020 12:05:00 4.8 C 5.77 g/m*3 2.49 C 9.7 km/h
Sensor: Nr:Datum:Temp:Abs-Feuchte:Windchill:Wind:
Aussen-T/F 2451 08-12-2020 12:10:00 4.8 C 5.7 g/m*3 2.87 C 8.1 km/h
2452 08-12-2020 12:15:00 4.8 C 5.7 g/m*3 4.8 C 0 km/h
2453 08-12-2020 12:20:00 4.9 C 5.81 g/m*3 4.9 C 1.6 km/h
2454 08-12-2020 12:25:00 4.9 C 5.81 g/m*3 4.9 C 4.8 km/h
2455 08-12-2020 12:30:00 5 C 5.84 g/m*3 5 C 1.6 km/h
2456 08-12-2020 12:35:00 5 C 5.84 g/m*3 3.11 C 8.1 km/h
2457 08-12-2020 12:40:00 5.1 C 5.81 g/m*3 5.1 C 4.8 km/h
2458 08-12-2020 12:45:00 5.1 C 5.81 g/m*3 3.71 C 6.4 km/h
2459 08-12-2020 12:50:00 5.1 C 5.81 g/m*3 5.1 C 1.6 km/h
2460 08-12-2020 12:55:00 5.1 C 5.75 g/m*3 5.1 C 4.8 km/h
2461 08-12-2020 13:00:00 5.2 C 5.85 g/m*3 5.2 C 3.2 km/h
2462 08-12-2020 13:05:00 5.2 C 5.85 g/m*3 5.2 C 3.2 km/h
2463 08-12-2020 13:10:00 5.3 C 5.89 g/m*3 5.3 C 1.6 km/h
2464 08-12-2020 13:15:00 5.3 C 5.82 g/m*3 5.3 C 4.8 km/h
2465 08-12-2020 13:20:00 5.3 C 5.82 g/m*3 5.3 C 4.8 km/h
2466 08-12-2020 13:25:00 5.3 C 5.75 g/m*3 3.08 C 9.7 km/h
2467 08-12-2020 13:30:00 5.3 C 5.75 g/m*3 3.08 C 9.7 km/h
2468 08-12-2020 13:35:00 5.4 C 5.86 g/m*3 5.4 C 4.8 km/h
2469 08-12-2020 13:40:00 5.4 C 5.79 g/m*3 5.4 C 4.8 km/h
2470 08-12-2020 13:45:00 5.4 C 5.79 g/m*3 5.4 C 4.8 km/h
2471 08-12-2020 13:50:00 5.6 C 5.87 g/m*3 5.6 C 4.8 km/h
2472 08-12-2020 13:55:00 5.6 C 5.87 g/m*3 3.81 C 8.1 km/h
2473 08-12-2020 14:00:00 5.6 C 5.87 g/m*3 4.29 C 6.4 km/h
2474 08-12-2020 14:05:00 5.7 C 5.98 g/m*3 5.7 C 3.2 km/h
2475 08-12-2020 14:10:00 5.7 C 5.91 g/m*3 5.7 C 4.8 km/h
Sensor: Nr:Datum:Temp:Abs-Feuchte:Windchill:Wind:
Aussen-T/F 2476 08-12-2020 14:15:00 5.7 C 5.84 g/m*3 3.93 C 8.1 km/h
2477 08-12-2020 14:20:00 5.7 C 5.91 g/m*3 3.93 C 8.1 km/h
2478 08-12-2020 14:25:00 5.7 C 5.84 g/m*3 4.4 C 6.4 km/h
2479 08-12-2020 14:30:00 5.7 C 5.84 g/m*3 5.7 C 3.2 km/h
2480 08-12-2020 14:35:00 5.7 C 5.91 g/m*3 5.7 C 3.2 km/h
2481 08-12-2020 14:40:00 5.8 C 5.95 g/m*3 5.8 C 4.8 km/h
2482 08-12-2020 14:45:00 5.7 C 5.91 g/m*3 5.7 C 4.8 km/h
2483 08-12-2020 14:50:00 5.8 C 5.95 g/m*3 5.8 C 3.2 km/h
2484 08-12-2020 14:55:00 5.8 C 5.95 g/m*3 5.8 C 1.6 km/h
2485 08-12-2020 15:00:00 5.8 C 5.95 g/m*3 5.8 C 3.2 km/h
2486 08-12-2020 15:05:00 5.8 C 5.95 g/m*3 5.8 C 1.6 km/h
2487 08-12-2020 15:10:00 5.8 C 5.95 g/m*3 5.8 C 4.8 km/h
2488 08-12-2020 15:15:00 5.8 C 5.95 g/m*3 5.8 C 1.6 km/h
2489 08-12-2020 15:20:00 5.8 C 6.02 g/m*3 5.8 C 0 km/h
2490 08-12-2020 15:25:00 5.8 C 6.02 g/m*3 5.8 C 0 km/h
2491 08-12-2020 15:30:00 5.8 C 6.09 g/m*3 5.8 C 0 km/h
2492 08-12-2020 15:35:00 5.8 C 6.09 g/m*3 5.8 C 0 km/h
2493 08-12-2020 15:40:00 5.8 C 6.16 g/m*3 5.8 C 0 km/h
2494 08-12-2020 15:45:00 5.8 C 6.16 g/m*3 5.8 C 0 km/h
2495 08-12-2020 15:50:00 5.7 C 6.12 g/m*3 5.7 C 0 km/h
2496 08-12-2020 15:55:00 5.7 C 6.19 g/m*3 5.7 C 0 km/h
2497 08-12-2020 16:00:00 5.6 C 6.15 g/m*3 5.6 C 0 km/h
2498 08-12-2020 16:05:00 5.5 C 6.11 g/m*3 5.5 C 0 km/h
2499 08-12-2020 16:10:00 5.4 C 6.07 g/m*3 5.4 C 3.2 km/h
2500 08-12-2020 16:15:00 5.3 C 6.03 g/m*3 5.3 C 1.6 km/h
Sensor: Nr:Datum:Temp:Abs-Feuchte:Windchill:Wind:
Aussen-T/F 2501 08-12-2020 16:20:00 5.2 C 6.06 g/m*3 5.2 C 0 km/h
2502 08-12-2020 16:25:00 5.2 C 6.06 g/m*3 5.2 C 3.2 km/h
2503 08-12-2020 16:30:00 5.1 C 6.02 g/m*3 5.1 C 0 km/h
2504 08-12-2020 16:35:00 5.1 C 6.09 g/m*3 5.1 C 0 km/h
2505 08-12-2020 16:40:00 5 C 6.05 g/m*3 5 C 0 km/h
2506 08-12-2020 16:45:00 4.9 C 6.08 g/m*3 4.9 C 0 km/h
2507 08-12-2020 16:50:00 4.9 C 6.08 g/m*3 4.9 C 0 km/h
2508 08-12-2020 16:55:00 4.9 C 6.08 g/m*3 4.9 C 0 km/h
2509 08-12-2020 17:00:00 4.8 C 6.04 g/m*3 4.8 C 4.8 km/h
2510 08-12-2020 17:05:00 4.7 C 6 g/m*3 4.7 C 3.2 km/h
2511 08-12-2020 17:10:00 4.7 C 6.06 g/m*3 4.7 C 1.6 km/h
2512 08-12-2020 17:15:00 4.6 C 6.02 g/m*3 4.6 C 1.6 km/h
2513 08-12-2020 17:20:00 4.5 C 5.98 g/m*3 4.5 C 1.6 km/h
2514 08-12-2020 17:25:00 4.4 C 5.94 g/m*3 4.4 C 1.6 km/h
2515 08-12-2020 17:30:00 4.4 C 5.94 g/m*3 4.4 C 1.6 km/h
2516 08-12-2020 17:35:00 4.3 C 5.9 g/m*3 4.3 C 0 km/h
2517 08-12-2020 17:40:00 4.3 C 5.97 g/m*3 4.3 C 0 km/h
2518 08-12-2020 17:45:00 4.3 C 5.97 g/m*3 4.3 C 3.2 km/h
2519 08-12-2020 17:50:00 4.2 C 5.93 g/m*3 4.2 C 0 km/h
2520 08-12-2020 17:55:00 4.2 C 5.93 g/m*3 4.2 C 0 km/h
2521 08-12-2020 18:00:00 4.2 C 5.93 g/m*3 4.2 C 0 km/h
2522 08-12-2020 18:05:00 4.1 C 5.89 g/m*3 4.1 C 1.6 km/h
2523 08-12-2020 18:10:00 3.9 C 5.81 g/m*3 3.9 C 0 km/h
2524 08-12-2020 18:15:00 3.8 C 5.77 g/m*3 3.8 C 0 km/h
2525 08-12-2020 18:20:00 3.7 C 5.73 g/m*3 3.7 C 0 km/h
Sensor: Nr:Datum:Temp:Abs-Feuchte:Windchill:Wind:
Aussen-T/F 2526 08-12-2020 18:25:00 3.7 C 5.73 g/m*3 3.7 C 0 km/h
2527 08-12-2020 18:30:00 3.6 C 5.69 g/m*3 3.6 C 1.6 km/h
2528 08-12-2020 18:35:00 3.4 C 5.62 g/m*3 3.4 C 0 km/h
2529 08-12-2020 18:40:00 3.4 C 5.68 g/m*3 3.4 C 1.6 km/h
2530 08-12-2020 18:45:00 3.3 C 5.64 g/m*3 3.3 C 3.2 km/h
2531 08-12-2020 18:50:00 3.2 C 5.6 g/m*3 3.2 C 3.2 km/h
2532 08-12-2020 18:55:00 3.2 C 5.6 g/m*3 3.2 C 3.2 km/h
2533 08-12-2020 19:00:00 3.2 C 5.6 g/m*3 3.2 C 3.2 km/h
2534 08-12-2020 19:05:00 3.1 C 5.57 g/m*3 3.1 C 0 km/h
2535 08-12-2020 19:10:00 3.1 C 5.57 g/m*3 3.1 C 0 km/h
2536 08-12-2020 19:15:00 3 C 5.53 g/m*3 3 C 0 km/h
2537 08-12-2020 19:20:00 2.9 C 5.49 g/m*3 2.9 C 0 km/h
2538 08-12-2020 19:25:00 2.9 C 5.49 g/m*3 2.9 C 0 km/h
2539 08-12-2020 19:30:00 2.8 C 5.46 g/m*3 2.8 C 0 km/h
2540 08-12-2020 19:35:00 2.7 C 5.42 g/m*3 2.7 C 0 km/h
2541 08-12-2020 19:40:00 2.6 C 5.38 g/m*3 2.6 C 0 km/h
2542 08-12-2020 19:45:00 2.5 C 5.35 g/m*3 2.5 C 0 km/h
2543 08-12-2020 19:50:00 2.4 C 5.31 g/m*3 2.4 C 0 km/h
2544 08-12-2020 19:55:00 2.4 C 5.31 g/m*3 2.4 C 0 km/h
2545 08-12-2020 20:00:00 2.3 C 5.33 g/m*3 2.3 C 0 km/h
2546 08-12-2020 20:05:00 2.3 C 5.33 g/m*3 2.3 C 0 km/h
2547 08-12-2020 20:10:00 2.3 C 5.33 g/m*3 2.3 C 0 km/h
2548 08-12-2020 20:15:00 2.3 C 5.33 g/m*3 2.3 C 0 km/h
2549 08-12-2020 20:20:00 2.3 C 5.33 g/m*3 2.3 C 0 km/h
2550 08-12-2020 20:25:00 2.3 C 5.33 g/m*3 2.3 C 0 km/h
Sensor: Nr:Datum:Temp:Abs-Feuchte:Windchill:Wind:
Aussen-T/F 2551 08-12-2020 20:30:00 2.3 C 5.33 g/m*3 2.3 C 0 km/h
2552 08-12-2020 20:35:00 2.3 C 5.33 g/m*3 2.3 C 0 km/h
2553 08-12-2020 20:40:00 2.3 C 5.33 g/m*3 2.3 C 0 km/h
2554 08-12-2020 20:45:00 2.3 C 5.33 g/m*3 2.3 C 0 km/h
2555 08-12-2020 20:50:00 2.3 C 5.33 g/m*3 2.3 C 0 km/h
2556 08-12-2020 20:55:00 2.3 C 5.33 g/m*3 2.3 C 0 km/h
2557 08-12-2020 21:00:00 2.3 C 5.39 g/m*3 2.3 C 0 km/h
2558 08-12-2020 21:05:00 2.3 C 5.39 g/m*3 2.3 C 0 km/h
2559 08-12-2020 21:10:00 2.2 C 5.35 g/m*3 2.2 C 0 km/h
2560 08-12-2020 21:15:00 2.2 C 5.35 g/m*3 2.2 C 0 km/h
2561 08-12-2020 21:20:00 2.1 C 5.26 g/m*3 2.1 C 0 km/h
2562 08-12-2020 21:25:00 1.9 C 5.19 g/m*3 1.9 C 0 km/h
2563 08-12-2020 21:30:00 1.7 C 5.12 g/m*3 1.7 C 0 km/h
2564 08-12-2020 21:35:00 1.6 C 5.08 g/m*3 1.6 C 0 km/h
2565 08-12-2020 21:40:00 1.4 C 5.01 g/m*3 1.4 C 0 km/h
2566 08-12-2020 21:45:00 1.3 C 4.98 g/m*3 1.3 C 0 km/h
2567 08-12-2020 21:50:00 1.3 C 4.98 g/m*3 1.3 C 0 km/h
2568 08-12-2020 21:55:00 1.2 C 4.95 g/m*3 1.2 C 0 km/h
2569 08-12-2020 22:00:00 1.2 C 5 g/m*3 1.2 C 0 km/h
2570 08-12-2020 22:05:00 1.2 C 4.95 g/m*3 1.2 C 0 km/h
2571 08-12-2020 22:10:00 1.1 C 4.96 g/m*3 1.1 C 0 km/h
2572 08-12-2020 22:15:00 1.1 C 4.96 g/m*3 1.1 C 0 km/h
2573 08-12-2020 22:20:00 1 C 4.93 g/m*3 1 C 0 km/h
2574 08-12-2020 22:25:00 0.9 C 4.9 g/m*3 0.9 C 0 km/h
2575 08-12-2020 22:30:00 0.9 C 4.9 g/m*3 0.9 C 0 km/h
Sensor: Nr:Datum:Temp:Abs-Feuchte:Windchill:Wind:
Aussen-T/F 2576 08-12-2020 22:35:00 0.9 C 4.9 g/m*3 0.9 C 0 km/h
2577 08-12-2020 22:40:00 0.9 C 4.9 g/m*3 0.9 C 0 km/h
2578 08-12-2020 22:45:00 0.8 C 4.86 g/m*3 0.8 C 0 km/h
2579 08-12-2020 22:50:00 0.7 C 4.83 g/m*3 0.7 C 0 km/h
2580 08-12-2020 22:55:00 0.6 C 4.8 g/m*3 0.6 C 0 km/h
2581 08-12-2020 23:00:00 0.6 C 4.8 g/m*3 0.6 C 0 km/h
2582 08-12-2020 23:05:00 0.6 C 4.8 g/m*3 0.6 C 0 km/h
2583 08-12-2020 23:10:00 0.6 C 4.8 g/m*3 0.6 C 0 km/h
2584 08-12-2020 23:15:00 0.5 C 4.76 g/m*3 0.5 C 0 km/h
2585 08-12-2020 23:20:00 0.6 C 4.8 g/m*3 0.6 C 0 km/h
2586 08-12-2020 23:25:00 0.5 C 4.76 g/m*3 0.5 C 0 km/h
2587 08-12-2020 23:30:00 0.5 C 4.76 g/m*3 0.5 C 0 km/h
2588 08-12-2020 23:35:00 0.4 C 4.73 g/m*3 0.4 C 0 km/h
2589 08-12-2020 23:40:00 0.4 C 4.73 g/m*3 0.4 C 0 km/h
2590 08-12-2020 23:45:00 0.4 C 4.73 g/m*3 0.4 C 0 km/h
2591 08-12-2020 23:50:00 0.3 C 4.7 g/m*3 0.3 C 0 km/h
2592 08-12-2020 23:55:00 0.3 C 4.7 g/m*3 0.3 C 0 km/h
2593 09-12-2020 00:00:00 0.2 C 4.67 g/m*3 0.2 C 0 km/h
2594 09-12-2020 00:05:00 0.2 C 4.67 g/m*3 0.2 C 0 km/h
2595 09-12-2020 00:10:00 0.2 C 4.72 g/m*3 0.2 C 0 km/h
2596 09-12-2020 00:15:00 0.3 C 4.7 g/m*3 0.3 C 0 km/h
2597 09-12-2020 00:20:00 0.2 C 4.72 g/m*3 0.2 C 0 km/h
2598 09-12-2020 00:25:00 0.2 C 4.67 g/m*3 0.2 C 0 km/h
2599 09-12-2020 00:30:00 0.1 C 4.63 g/m*3 0.1 C 0 km/h
2600 09-12-2020 00:35:00 0.1 C 4.63 g/m*3 0.1 C 0 km/h
Sensor: Nr:Datum:Temp:Abs-Feuchte:Windchill:Wind:
Aussen-T/F 2601 09-12-2020 00:40:00 0.1 C 4.68 g/m*3 0.1 C 0 km/h
2602 09-12-2020 00:45:00 0.1 C 4.68 g/m*3 0.1 C 0 km/h
2603 09-12-2020 00:50:00 0.2 C 4.72 g/m*3 0.2 C 0 km/h
2604 09-12-2020 00:55:00 0.2 C 4.72 g/m*3 0.2 C 0 km/h
2605 09-12-2020 01:00:00 0.3 C 4.75 g/m*3 0.3 C 0 km/h
2606 09-12-2020 01:05:00 0.4 C 4.78 g/m*3 0.4 C 0 km/h
2607 09-12-2020 01:10:00 0.6 C 4.85 g/m*3 0.6 C 0 km/h
2608 09-12-2020 01:15:00 0.7 C 4.88 g/m*3 0.7 C 0 km/h
2609 09-12-2020 01:20:00 0.8 C 4.91 g/m*3 0.8 C 0 km/h
2610 09-12-2020 01:25:00 0.9 C 4.95 g/m*3 0.9 C 0 km/h
2611 09-12-2020 01:30:00 0.9 C 4.95 g/m*3 0.9 C 0 km/h
2612 09-12-2020 01:35:00 1 C 4.98 g/m*3 1 C 0 km/h
2613 09-12-2020 01:40:00 1 C 4.98 g/m*3 1 C 0 km/h
2614 09-12-2020 01:45:00 1.1 C 5.02 g/m*3 1.1 C 0 km/h
2615 09-12-2020 01:50:00 1.2 C 5.05 g/m*3 1.2 C 0 km/h
2616 09-12-2020 01:55:00 1.2 C 5.05 g/m*3 1.2 C 0 km/h
2617 09-12-2020 02:00:00 1.3 C 5.09 g/m*3 1.3 C 0 km/h
2618 09-12-2020 02:05:00 1.3 C 5.09 g/m*3 1.3 C 0 km/h
2619 09-12-2020 02:10:00 1.3 C 5.09 g/m*3 1.3 C 0 km/h
2620 09-12-2020 02:15:00 1.3 C 5.09 g/m*3 1.3 C 0 km/h
2621 09-12-2020 02:20:00 1.3 C 5.09 g/m*3 1.3 C 0 km/h
2622 09-12-2020 02:25:00 1.4 C 5.12 g/m*3 1.4 C 0 km/h
2623 09-12-2020 02:30:00 1.4 C 5.12 g/m*3 1.4 C 0 km/h
2624 09-12-2020 02:35:00 1.4 C 5.12 g/m*3 1.4 C 0 km/h
2625 09-12-2020 02:40:00 1.4 C 5.12 g/m*3 1.4 C 0 km/h
Sensor: Nr:Datum:Temp:Abs-Feuchte:Windchill:Wind:
Aussen-T/F 2626 09-12-2020 02:45:00 1.4 C 5.12 g/m*3 1.4 C 0 km/h
2627 09-12-2020 02:50:00 1.4 C 5.12 g/m*3 1.4 C 0 km/h
2628 09-12-2020 02:55:00 1.4 C 5.12 g/m*3 1.4 C 0 km/h
2629 09-12-2020 03:00:00 1.5 C 5.21 g/m*3 1.5 C 0 km/h
2630 09-12-2020 03:05:00 1.5 C 5.16 g/m*3 1.5 C 0 km/h
2631 09-12-2020 03:10:00 1.6 C 5.25 g/m*3 1.6 C 0 km/h
2632 09-12-2020 03:15:00 1.6 C 5.25 g/m*3 1.6 C 0 km/h
2633 09-12-2020 03:20:00 1.6 C 5.25 g/m*3 1.6 C 0 km/h
2634 09-12-2020 03:25:00 1.7 C 5.23 g/m*3 1.7 C 0 km/h
2635 09-12-2020 03:30:00 1.7 C 5.23 g/m*3 1.7 C 0 km/h
2636 09-12-2020 03:35:00 1.7 C 5.23 g/m*3 1.7 C 0 km/h
2637 09-12-2020 03:40:00 1.8 C 5.26 g/m*3 1.8 C 0 km/h
2638 09-12-2020 03:45:00 1.8 C 5.32 g/m*3 1.8 C 0 km/h
2639 09-12-2020 03:50:00 1.9 C 5.35 g/m*3 1.9 C 0 km/h
2640 09-12-2020 03:55:00 1.9 C 5.35 g/m*3 1.9 C 0 km/h
2641 09-12-2020 04:00:00 2 C 5.39 g/m*3 2 C 3.2 km/h
2642 09-12-2020 04:05:00 2.1 C 5.43 g/m*3 2.1 C 3.2 km/h
2643 09-12-2020 04:10:00 2.2 C 5.46 g/m*3 2.2 C 3.2 km/h
2644 09-12-2020 04:15:00 2.3 C 5.5 g/m*3 2.3 C 0 km/h
2645 09-12-2020 04:20:00 2.3 C 5.5 g/m*3 2.3 C 0 km/h
2646 09-12-2020 04:25:00 2.3 C 5.5 g/m*3 2.3 C 1.6 km/h
2647 09-12-2020 04:30:00 2.3 C 5.5 g/m*3 2.3 C 1.6 km/h
2648 09-12-2020 04:35:00 2.4 C 5.54 g/m*3 2.4 C 1.6 km/h
2649 09-12-2020 04:40:00 2.4 C 5.54 g/m*3 2.4 C 0 km/h
2650 09-12-2020 04:45:00 2.4 C 5.54 g/m*3 2.4 C 3.2 km/h
Sensor: Nr:Datum:Temp:Abs-Feuchte:Windchill:Wind:
Aussen-T/F 2651 09-12-2020 04:50:00 2.5 C 5.58 g/m*3 2.5 C 0 km/h
2652 09-12-2020 04:55:00 2.6 C 5.61 g/m*3 2.6 C 3.2 km/h
2653 09-12-2020 05:00:00 2.6 C 5.61 g/m*3 2.6 C 0 km/h
2654 09-12-2020 05:05:00 2.7 C 5.65 g/m*3 2.7 C 1.6 km/h
2655 09-12-2020 05:10:00 2.7 C 5.65 g/m*3 2.7 C 1.6 km/h
2656 09-12-2020 05:15:00 2.8 C 5.69 g/m*3 2.8 C 0 km/h
2657 09-12-2020 05:20:00 2.8 C 5.69 g/m*3 2.8 C 4.8 km/h
2658 09-12-2020 05:25:00 2.8 C 5.69 g/m*3 2.8 C 4.8 km/h
2659 09-12-2020 05:30:00 2.8 C 5.69 g/m*3 2.8 C 3.2 km/h
2660 09-12-2020 05:35:00 2.9 C 5.73 g/m*3 1.17 C 6.4 km/h
2661 09-12-2020 05:40:00 2.9 C 5.73 g/m*3 2.9 C 4.8 km/h
2662 09-12-2020 05:45:00 2.9 C 5.73 g/m*3 2.9 C 3.2 km/h
2663 09-12-2020 05:50:00 2.9 C 5.67 g/m*3 2.9 C 0 km/h
2664 09-12-2020 05:55:00 2.9 C 5.67 g/m*3 0.64 C 8.1 km/h
2665 09-12-2020 06:00:00 2.9 C 5.67 g/m*3 2.9 C 3.2 km/h
2666 09-12-2020 06:05:00 2.9 C 5.67 g/m*3 2.9 C 3.2 km/h
2667 09-12-2020 06:10:00 2.9 C 5.67 g/m*3 2.9 C 1.6 km/h
2668 09-12-2020 06:15:00 2.9 C 5.67 g/m*3 2.9 C 1.6 km/h
2669 09-12-2020 06:20:00 3 C 5.65 g/m*3 3 C 0 km/h
2670 09-12-2020 06:25:00 3 C 5.65 g/m*3 3 C 4.8 km/h
2671 09-12-2020 06:30:00 3 C 5.65 g/m*3 3 C 1.6 km/h
2672 09-12-2020 06:35:00 3 C 5.65 g/m*3 3 C 0 km/h
2673 09-12-2020 06:40:00 3.1 C 5.69 g/m*3 3.1 C 4.8 km/h
2674 09-12-2020 06:45:00 3.1 C 5.69 g/m*3 3.1 C 3.2 km/h
2675 09-12-2020 06:50:00 3.1 C 5.63 g/m*3 0.1 C 11.3 km/h
Sensor: Nr:Datum:Temp:Abs-Feuchte:Windchill:Wind:
Aussen-T/F 2676 09-12-2020 06:55:00 3.1 C 5.63 g/m*3 3.1 C 4.8 km/h
2677 09-12-2020 07:00:00 3.1 C 5.63 g/m*3 1.4 C 6.4 km/h
2678 09-12-2020 07:05:00 3.1 C 5.63 g/m*3 3.1 C 3.2 km/h
2679 09-12-2020 07:10:00 3.1 C 5.57 g/m*3 0.1 C 11.3 km/h
2680 09-12-2020 07:15:00 3.2 C 5.6 g/m*3 3.2 C 4.8 km/h
2681 09-12-2020 07:20:00 3.2 C 5.6 g/m*3 3.2 C 3.2 km/h
2682 09-12-2020 07:25:00 3.2 C 5.6 g/m*3 0.58 C 9.7 km/h
2683 09-12-2020 07:30:00 3.2 C 5.54 g/m*3 0.99 C 8.1 km/h
2684 09-12-2020 07:35:00 3.2 C 5.54 g/m*3 3.2 C 3.2 km/h
2685 09-12-2020 07:40:00 3.2 C 5.54 g/m*3 3.2 C 0 km/h
2686 09-12-2020 07:45:00 3.2 C 5.54 g/m*3 0.99 C 8.1 km/h
2687 09-12-2020 07:50:00 3.2 C 5.54 g/m*3 3.2 C 3.2 km/h
2688 09-12-2020 07:55:00 3.2 C 5.54 g/m*3 0.58 C 9.7 km/h
2689 09-12-2020 08:00:00 3.2 C 5.54 g/m*3 0.99 C 8.1 km/h
2690 09-12-2020 08:05:00 3.3 C 5.58 g/m*3 3.3 C 4.8 km/h
2691 09-12-2020 08:10:00 3.3 C 5.52 g/m*3 3.3 C 4.8 km/h
2692 09-12-2020 08:15:00 3.3 C 5.58 g/m*3 3.3 C 0 km/h
2693 09-12-2020 08:20:00 3.3 C 5.58 g/m*3 3.3 C 4.8 km/h
2694 09-12-2020 08:25:00 3.3 C 5.58 g/m*3 3.3 C 1.6 km/h
2695 09-12-2020 08:30:00 3.2 C 5.54 g/m*3 3.2 C 0 km/h
2696 09-12-2020 08:35:00 3.2 C 5.54 g/m*3 3.2 C 3.2 km/h
2697 09-12-2020 08:40:00 3.2 C 5.54 g/m*3 3.2 C 1.6 km/h
2698 09-12-2020 08:45:00 3.2 C 5.54 g/m*3 1.51 C 6.4 km/h
2699 09-12-2020 08:50:00 3.2 C 5.48 g/m*3 3.2 C 3.2 km/h
2700 09-12-2020 08:55:00 3.2 C 5.48 g/m*3 3.2 C 0 km/h
Sensor: Nr:Datum:Temp:Abs-Feuchte:Windchill:Wind:
Aussen-T/F 2701 09-12-2020 09:00:00 3.2 C 5.54 g/m*3 3.2 C 0 km/h
2702 09-12-2020 09:05:00 3.2 C 5.54 g/m*3 3.2 C 0 km/h
2703 09-12-2020 09:10:00 3.2 C 5.54 g/m*3 3.2 C 0 km/h
2704 09-12-2020 09:15:00 3.2 C 5.54 g/m*3 3.2 C 0 km/h
2705 09-12-2020 09:20:00 3.2 C 5.54 g/m*3 3.2 C 0 km/h
2706 09-12-2020 09:25:00 3.2 C 5.54 g/m*3 3.2 C 0 km/h
2707 09-12-2020 09:30:00 3.2 C 5.54 g/m*3 3.2 C 0 km/h
2708 09-12-2020 09:35:00 3.2 C 5.54 g/m*3 3.2 C 1.6 km/h
2709 09-12-2020 09:40:00 3.2 C 5.54 g/m*3 3.2 C 1.6 km/h
2710 09-12-2020 09:45:00 3.2 C 5.54 g/m*3 3.2 C 0 km/h
2711 09-12-2020 09:50:00 3.3 C 5.58 g/m*3 3.3 C 0 km/h
2712 09-12-2020 09:55:00 3.3 C 5.58 g/m*3 3.3 C 0 km/h
2713 09-12-2020 10:00:00 3.3 C 5.58 g/m*3 3.3 C 0 km/h
2714 09-12-2020 10:05:00 3.3 C 5.58 g/m*3 3.3 C 1.6 km/h
2715 09-12-2020 10:10:00 3.3 C 5.58 g/m*3 3.3 C 0 km/h
2716 09-12-2020 10:15:00 3.3 C 5.58 g/m*3 3.3 C 0 km/h
2717 09-12-2020 10:20:00 3.4 C 5.62 g/m*3 3.4 C 0 km/h
2718 09-12-2020 10:25:00 3.4 C 5.62 g/m*3 3.4 C 0 km/h
2719 09-12-2020 10:30:00 3.4 C 5.62 g/m*3 3.4 C 0 km/h
2720 09-12-2020 10:35:00 3.5 C 5.66 g/m*3 3.5 C 0 km/h
2721 09-12-2020 10:40:00 3.5 C 5.66 g/m*3 3.5 C 0 km/h
2722 09-12-2020 10:45:00 3.5 C 5.66 g/m*3 3.5 C 0 km/h
2723 09-12-2020 10:50:00 3.6 C 5.63 g/m*3 3.6 C 0 km/h
2724 09-12-2020 10:55:00 3.6 C 5.63 g/m*3 3.6 C 0 km/h
2725 09-12-2020 11:00:00 3.6 C 5.63 g/m*3 3.6 C 0 km/h
Sensor: Nr:Datum:Temp:Abs-Feuchte:Windchill:Wind:
Aussen-T/F 2726 09-12-2020 11:05:00 3.6 C 5.63 g/m*3 3.6 C 0 km/h
2727 09-12-2020 11:10:00 3.7 C 5.67 g/m*3 3.7 C 0 km/h
2728 09-12-2020 11:15:00 3.7 C 5.67 g/m*3 3.7 C 0 km/h
2729 09-12-2020 11:20:00 3.8 C 5.71 g/m*3 3.8 C 0 km/h
2730 09-12-2020 11:25:00 3.8 C 5.71 g/m*3 3.8 C 0 km/h
2731 09-12-2020 11:30:00 3.8 C 5.65 g/m*3 3.8 C 3.2 km/h
2732 09-12-2020 11:35:00 3.8 C 5.65 g/m*3 3.8 C 1.6 km/h
2733 09-12-2020 11:40:00 3.8 C 5.65 g/m*3 3.8 C 1.6 km/h
2734 09-12-2020 11:45:00 3.8 C 5.65 g/m*3 3.8 C 0 km/h
2735 09-12-2020 11:50:00 3.8 C 5.65 g/m*3 3.8 C 1.6 km/h
2736 09-12-2020 11:55:00 3.8 C 5.65 g/m*3 3.8 C 0 km/h
2737 09-12-2020 12:00:00 3.9 C 5.68 g/m*3 3.9 C 0 km/h
2738 09-12-2020 12:05:00 3.9 C 5.68 g/m*3 3.9 C 0 km/h
2739 09-12-2020 12:10:00 3.9 C 5.68 g/m*3 3.9 C 0 km/h
2740 09-12-2020 12:15:00 4 C 5.66 g/m*3 4 C 0 km/h
2741 09-12-2020 12:20:00 4.1 C 5.7 g/m*3 4.1 C 0 km/h
2742 09-12-2020 12:25:00 4.1 C 5.7 g/m*3 4.1 C 0 km/h
2743 09-12-2020 12:30:00 4.2 C 5.8 g/m*3 4.2 C 0 km/h
2744 09-12-2020 12:35:00 4.3 C 5.84 g/m*3 4.3 C 0 km/h
2745 09-12-2020 12:40:00 4.3 C 5.77 g/m*3 4.3 C 0 km/h
2746 09-12-2020 12:45:00 4.4 C 5.81 g/m*3 4.4 C 3.2 km/h
2747 09-12-2020 12:50:00 4.4 C 5.81 g/m*3 4.4 C 1.6 km/h
2748 09-12-2020 12:55:00 4.5 C 5.78 g/m*3 4.5 C 4.8 km/h
2749 09-12-2020 13:00:00 4.5 C 5.78 g/m*3 4.5 C 4.8 km/h
2750 09-12-2020 13:05:00 4.6 C 5.89 g/m*3 2.64 C 8.1 km/h
Sensor: Nr:Datum:Temp:Abs-Feuchte:Windchill:Wind:
Aussen-T/F 2751 09-12-2020 13:10:00 4.6 C 5.82 g/m*3 3.13 C 6.4 km/h
2752 09-12-2020 13:15:00 4.6 C 5.82 g/m*3 2.64 C 8.1 km/h
2753 09-12-2020 13:20:00 4.6 C 5.82 g/m*3 4.6 C 4.8 km/h
2754 09-12-2020 13:25:00 4.6 C 5.76 g/m*3 3.13 C 6.4 km/h
2755 09-12-2020 13:30:00 4.6 C 5.76 g/m*3 2.64 C 8.1 km/h
2756 09-12-2020 13:35:00 4.6 C 5.76 g/m*3 4.6 C 4.8 km/h
2757 09-12-2020 13:40:00 4.6 C 5.76 g/m*3 4.6 C 4.8 km/h
2758 09-12-2020 13:45:00 4.6 C 5.76 g/m*3 4.6 C 1.6 km/h
2759 09-12-2020 13:50:00 4.6 C 5.69 g/m*3 4.6 C 4.8 km/h
2760 09-12-2020 13:55:00 4.6 C 5.69 g/m*3 3.13 C 6.4 km/h
2761 09-12-2020 14:00:00 4.6 C 5.56 g/m*3 2.64 C 8.1 km/h
2762 09-12-2020 14:05:00 4.6 C 5.49 g/m*3 4.6 C 4.8 km/h
2763 09-12-2020 14:10:00 4.6 C 5.49 g/m*3 3.13 C 6.4 km/h
2764 09-12-2020 14:15:00 4.6 C 5.56 g/m*3 4.6 C 4.8 km/h
2765 09-12-2020 14:20:00 4.6 C 5.62 g/m*3 1.61 C 12.9 km/h
2766 09-12-2020 14:25:00 4.6 C 5.56 g/m*3 1.61 C 12.9 km/h
2767 09-12-2020 14:30:00 4.6 C 5.62 g/m*3 3.13 C 6.4 km/h
2768 09-12-2020 14:35:00 4.6 C 5.56 g/m*3 2.64 C 8.1 km/h
2769 09-12-2020 14:40:00 4.5 C 5.52 g/m*3 2.13 C 9.7 km/h
2770 09-12-2020 14:45:00 4.4 C 5.48 g/m*3 2.01 C 9.7 km/h
2771 09-12-2020 14:50:00 4.3 C 5.45 g/m*3 1.89 C 9.7 km/h
2772 09-12-2020 14:55:00 4.3 C 5.45 g/m*3 1.89 C 9.7 km/h
2773 09-12-2020 15:00:00 4.2 C 5.41 g/m*3 2.67 C 6.4 km/h
2774 09-12-2020 15:05:00 4.2 C 5.41 g/m*3 2.17 C 8.1 km/h
2775 09-12-2020 15:10:00 4.1 C 5.44 g/m*3 1.65 C 9.7 km/h
Sensor: Nr:Datum:Temp:Abs-Feuchte:Windchill:Wind:
Aussen-T/F 2776 09-12-2020 15:15:00 4.1 C 5.44 g/m*3 4.1 C 4.8 km/h
2777 09-12-2020 15:20:00 3.9 C 5.37 g/m*3 2.32 C 6.4 km/h
2778 09-12-2020 15:25:00 3.8 C 5.27 g/m*3 1.29 C 9.7 km/h
2779 09-12-2020 15:30:00 3.7 C 5.23 g/m*3 2.09 C 6.4 km/h
2780 09-12-2020 15:35:00 3.6 C 5.26 g/m*3 1.98 C 6.4 km/h
2781 09-12-2020 15:40:00 3.6 C 5.26 g/m*3 3.6 C 1.6 km/h
2782 09-12-2020 15:45:00 3.4 C 5.25 g/m*3 3.4 C 4.8 km/h
2783 09-12-2020 15:50:00 3.4 C 5.25 g/m*3 3.4 C 0 km/h
2784 09-12-2020 15:55:00 3.3 C 5.22 g/m*3 3.3 C 4.8 km/h
2785 09-12-2020 16:00:00 3.2 C 5.18 g/m*3 3.2 C 1.6 km/h
2786 09-12-2020 16:05:00 3 C 5.17 g/m*3 3 C 4.8 km/h
2787 09-12-2020 16:10:00 2.8 C 5.1 g/m*3 2.8 C 4.8 km/h
2788 09-12-2020 16:15:00 2.7 C 5.07 g/m*3 0.94 C 6.4 km/h
2789 09-12-2020 16:20:00 2.5 C 5.06 g/m*3 2.5 C 3.2 km/h
2790 09-12-2020 16:25:00 2.3 C 4.99 g/m*3 2.3 C 3.2 km/h
2791 09-12-2020 16:30:00 2.2 C 4.96 g/m*3 2.2 C 3.2 km/h
2792 09-12-2020 16:35:00 2 C 4.95 g/m*3 2 C 4.8 km/h
2793 09-12-2020 16:40:00 1.9 C 4.91 g/m*3 1.9 C 3.2 km/h
2794 09-12-2020 16:45:00 1.8 C 4.88 g/m*3 1.8 C 4.8 km/h
2795 09-12-2020 16:50:00 1.7 C 4.9 g/m*3 1.7 C 3.2 km/h
2796 09-12-2020 16:55:00 1.6 C 4.87 g/m*3 -0.33 C 6.4 km/h
2797 09-12-2020 17:00:00 1.4 C 4.8 g/m*3 1.4 C 3.2 km/h
2798 09-12-2020 17:05:00 1.3 C 4.77 g/m*3 1.3 C 1.6 km/h
2799 09-12-2020 17:10:00 1.2 C 4.79 g/m*3 1.2 C 3.2 km/h
2800 09-12-2020 17:15:00 1.1 C 4.76 g/m*3 1.1 C 1.6 km/h
Sensor: Nr:Datum:Temp:Abs-Feuchte:Windchill:Wind:
Aussen-T/F 2801 09-12-2020 17:20:00 1 C 4.72 g/m*3 1 C 1.6 km/h
2802 09-12-2020 17:25:00 0.9 C 4.69 g/m*3 0.9 C 3.2 km/h
2803 09-12-2020 17:30:00 0.8 C 4.66 g/m*3 0.8 C 1.6 km/h
2804 09-12-2020 17:35:00 0.7 C 4.63 g/m*3 0.7 C 1.6 km/h
2805 09-12-2020 17:40:00 0.6 C 4.65 g/m*3 0.6 C 1.6 km/h
2806 09-12-2020 17:45:00 0.6 C 4.65 g/m*3 0.6 C 1.6 km/h
2807 09-12-2020 17:50:00 0.4 C 4.58 g/m*3 0.4 C 1.6 km/h
2808 09-12-2020 17:55:00 0.3 C 4.55 g/m*3 0.3 C 3.2 km/h
2809 09-12-2020 18:00:00 0.3 C 4.55 g/m*3 0.3 C 0 km/h
2810 09-12-2020 18:05:00 0.2 C 4.52 g/m*3 0.2 C 0 km/h
2811 09-12-2020 18:10:00 0 C 4.46 g/m*3 0 C 0 km/h
2812 09-12-2020 18:15:00 -0.1 C 4.43 g/m*3 -0.1 C 0 km/h
2813 09-12-2020 18:20:00 -0.1 C 4.47 g/m*3 -0.1 C 1.6 km/h
2814 09-12-2020 18:25:00 -0.1 C 4.47 g/m*3 -0.1 C 1.6 km/h
2815 09-12-2020 18:30:00 -0.1 C 4.47 g/m*3 -0.1 C 1.6 km/h
2816 09-12-2020 18:35:00 -0.1 C 4.47 g/m*3 -0.1 C 1.6 km/h
2817 09-12-2020 18:40:00 -0.1 C 4.47 g/m*3 -0.1 C 1.6 km/h
2818 09-12-2020 18:45:00 -0.2 C 4.44 g/m*3 -0.2 C 3.2 km/h
2819 09-12-2020 18:50:00 -0.2 C 4.44 g/m*3 -0.2 C 1.6 km/h
2820 09-12-2020 18:55:00 -0.2 C 4.44 g/m*3 -0.2 C 1.6 km/h
2821 09-12-2020 19:00:00 -0.3 C 4.46 g/m*3 -0.3 C 3.2 km/h
2822 09-12-2020 19:05:00 -0.3 C 4.46 g/m*3 -0.3 C 4.8 km/h
2823 09-12-2020 19:10:00 -0.3 C 4.46 g/m*3 -0.3 C 3.2 km/h
2824 09-12-2020 19:15:00 -0.3 C 4.46 g/m*3 -0.3 C 3.2 km/h
2825 09-12-2020 19:20:00 -0.3 C 4.46 g/m*3 -0.3 C 4.8 km/h
Sensor: Nr:Datum:Temp:Abs-Feuchte:Windchill:Wind:
Aussen-T/F 2826 09-12-2020 19:25:00 -0.3 C 4.46 g/m*3 -0.3 C 3.2 km/h
2827 09-12-2020 19:30:00 -0.3 C 4.46 g/m*3 -0.3 C 3.2 km/h
2828 09-12-2020 19:35:00 -0.3 C 4.46 g/m*3 -0.3 C 3.2 km/h
2829 09-12-2020 19:40:00 -0.3 C 4.46 g/m*3 -0.3 C 4.8 km/h
2830 09-12-2020 19:45:00 -0.2 C 4.54 g/m*3 -0.2 C 1.6 km/h
2831 09-12-2020 19:50:00 -0.1 C 4.57 g/m*3 -0.1 C 1.6 km/h
2832 09-12-2020 19:55:00 -0.1 C 4.57 g/m*3 -0.1 C 3.2 km/h
2833 09-12-2020 20:00:00 0 C 4.6 g/m*3 0 C 0 km/h
2834 09-12-2020 20:05:00 0.1 C 4.63 g/m*3 0.1 C 0 km/h
2835 09-12-2020 20:10:00 0.2 C 4.67 g/m*3 0.2 C 4.8 km/h
2836 09-12-2020 20:15:00 0.2 C 4.67 g/m*3 0.2 C 1.6 km/h
2837 09-12-2020 20:20:00 0.3 C 4.7 g/m*3 0.3 C 1.6 km/h
2838 09-12-2020 20:25:00 0.3 C 4.7 g/m*3 0.3 C 0 km/h
2839 09-12-2020 20:30:00 0.3 C 4.7 g/m*3 0.3 C 1.6 km/h
2840 09-12-2020 20:35:00 0.4 C 4.73 g/m*3 0.4 C 1.6 km/h
2841 09-12-2020 20:40:00 0.4 C 4.73 g/m*3 0.4 C 3.2 km/h
2842 09-12-2020 20:45:00 0.5 C 4.76 g/m*3 0.5 C 3.2 km/h
2843 09-12-2020 20:50:00 0.5 C 4.76 g/m*3 0.5 C 0 km/h
2844 09-12-2020 20:55:00 0.6 C 4.8 g/m*3 0.6 C 1.6 km/h
2845 09-12-2020 21:00:00 0.6 C 4.8 g/m*3 0.6 C 0 km/h
2846 09-12-2020 21:05:00 0.6 C 4.8 g/m*3 0.6 C 3.2 km/h
2847 09-12-2020 21:10:00 0.6 C 4.8 g/m*3 0.6 C 3.2 km/h
2848 09-12-2020 21:15:00 0.7 C 4.83 g/m*3 0.7 C 0 km/h
2849 09-12-2020 21:20:00 0.7 C 4.83 g/m*3 0.7 C 1.6 km/h
2850 09-12-2020 21:25:00 0.7 C 4.78 g/m*3 0.7 C 1.6 km/h
Sensor: Nr:Datum:Temp:Abs-Feuchte:Windchill:Wind:
Aussen-T/F 2851 09-12-2020 21:30:00 0.7 C 4.78 g/m*3 0.7 C 0 km/h
2852 09-12-2020 21:35:00 0.7 C 4.78 g/m*3 0.7 C 0 km/h
2853 09-12-2020 21:40:00 0.8 C 4.81 g/m*3 0.8 C 3.2 km/h
2854 09-12-2020 21:45:00 0.8 C 4.81 g/m*3 0.8 C 0 km/h
2855 09-12-2020 21:50:00 0.8 C 4.81 g/m*3 0.8 C 0 km/h
2856 09-12-2020 21:55:00 0.8 C 4.81 g/m*3 0.8 C 0 km/h
2857 09-12-2020 22:00:00 0.8 C 4.81 g/m*3 0.8 C 1.6 km/h
2858 09-12-2020 22:05:00 0.9 C 4.85 g/m*3 0.9 C 4.8 km/h
2859 09-12-2020 22:10:00 0.9 C 4.85 g/m*3 0.9 C 3.2 km/h
2860 09-12-2020 22:15:00 1 C 4.88 g/m*3 1 C 0 km/h
2861 09-12-2020 22:20:00 1.1 C 4.91 g/m*3 1.1 C 1.6 km/h
2862 09-12-2020 22:25:00 1.1 C 4.86 g/m*3 1.1 C 1.6 km/h
2863 09-12-2020 22:30:00 1.1 C 4.86 g/m*3 1.1 C 0 km/h
2864 09-12-2020 22:35:00 1.1 C 4.86 g/m*3 1.1 C 0 km/h
2865 09-12-2020 22:40:00 1.1 C 4.86 g/m*3 1.1 C 0 km/h
2866 09-12-2020 22:45:00 1.1 C 4.86 g/m*3 1.1 C 0 km/h
2867 09-12-2020 22:50:00 1.1 C 4.86 g/m*3 1.1 C 1.6 km/h
2868 09-12-2020 22:55:00 1.1 C 4.86 g/m*3 1.1 C 0 km/h
2869 09-12-2020 23:00:00 1.1 C 4.86 g/m*3 1.1 C 0 km/h
2870 09-12-2020 23:05:00 1.1 C 4.86 g/m*3 1.1 C 0 km/h
2871 09-12-2020 23:10:00 1.1 C 4.86 g/m*3 1.1 C 0 km/h
2872 09-12-2020 23:15:00 1.2 C 4.89 g/m*3 1.2 C 0 km/h
2873 09-12-2020 23:20:00 1.2 C 4.89 g/m*3 1.2 C 0 km/h
2874 09-12-2020 23:25:00 1.2 C 4.89 g/m*3 1.2 C 4.8 km/h
2875 09-12-2020 23:30:00 1.2 C 4.89 g/m*3 1.2 C 3.2 km/h
Sensor: Nr:Datum:Temp:Abs-Feuchte:Windchill:Wind:
Aussen-T/F 2876 09-12-2020 23:35:00 1.2 C 4.89 g/m*3 1.2 C 3.2 km/h
2877 09-12-2020 23:40:00 1.2 C 4.84 g/m*3 1.2 C 1.6 km/h
2878 09-12-2020 23:45:00 1.2 C 4.84 g/m*3 1.2 C 3.2 km/h
2879 09-12-2020 23:50:00 1.3 C 4.87 g/m*3 1.3 C 1.6 km/h
2880 09-12-2020 23:55:00 1.3 C 4.87 g/m*3 1.3 C 1.6 km/h
2881 10-12-2020 00:00:00 1.3 C 4.87 g/m*3 1.3 C 1.6 km/h
2882 10-12-2020 00:05:00 1.3 C 4.87 g/m*3 1.3 C 3.2 km/h
2883 10-12-2020 00:10:00 1.3 C 4.87 g/m*3 1.3 C 1.6 km/h
2884 10-12-2020 00:15:00 1.3 C 4.87 g/m*3 1.3 C 0 km/h
2885 10-12-2020 00:20:00 1.4 C 4.91 g/m*3 1.4 C 0 km/h
2886 10-12-2020 00:25:00 1.4 C 4.91 g/m*3 1.4 C 0 km/h
2887 10-12-2020 00:30:00 1.4 C 4.91 g/m*3 1.4 C 0 km/h
2888 10-12-2020 00:35:00 1.4 C 4.85 g/m*3 1.4 C 4.8 km/h
2889 10-12-2020 00:40:00 1.4 C 4.85 g/m*3 1.4 C 1.6 km/h
2890 10-12-2020 00:45:00 1.4 C 4.85 g/m*3 1.4 C 0 km/h
2891 10-12-2020 00:50:00 1.4 C 4.85 g/m*3 1.4 C 0 km/h
2892 10-12-2020 00:55:00 1.4 C 4.91 g/m*3 1.4 C 0 km/h
2893 10-12-2020 01:00:00 1.4 C 4.91 g/m*3 1.4 C 0 km/h
2894 10-12-2020 01:05:00 1.4 C 4.91 g/m*3 1.4 C 0 km/h
2895 10-12-2020 01:10:00 1.4 C 4.91 g/m*3 1.4 C 0 km/h
2896 10-12-2020 01:15:00 1.4 C 4.91 g/m*3 1.4 C 0 km/h
2897 10-12-2020 01:20:00 1.4 C 4.91 g/m*3 1.4 C 0 km/h
2898 10-12-2020 01:25:00 1.4 C 4.91 g/m*3 1.4 C 0 km/h
2899 10-12-2020 01:30:00 1.4 C 4.91 g/m*3 1.4 C 0 km/h
2900 10-12-2020 01:35:00 1.4 C 4.91 g/m*3 1.4 C 0 km/h
Sensor: Nr:Datum:Temp:Abs-Feuchte:Windchill:Wind:
Aussen-T/F 2901 10-12-2020 01:40:00 1.4 C 4.91 g/m*3 1.4 C 1.6 km/h
2902 10-12-2020 01:45:00 1.5 C 4.94 g/m*3 1.5 C 3.2 km/h
2903 10-12-2020 01:50:00 1.4 C 4.85 g/m*3 1.4 C 1.6 km/h
2904 10-12-2020 01:55:00 1.5 C 4.89 g/m*3 1.5 C 0 km/h
2905 10-12-2020 02:00:00 1.5 C 4.89 g/m*3 1.5 C 0 km/h
2906 10-12-2020 02:05:00 1.5 C 4.89 g/m*3 1.5 C 1.6 km/h
2907 10-12-2020 02:10:00 1.5 C 4.89 g/m*3 1.5 C 3.2 km/h
2908 10-12-2020 02:15:00 1.5 C 4.94 g/m*3 1.5 C 1.6 km/h
2909 10-12-2020 02:20:00 1.5 C 4.94 g/m*3 1.5 C 0 km/h
2910 10-12-2020 02:25:00 1.6 C 4.97 g/m*3 1.6 C 0 km/h
2911 10-12-2020 02:30:00 1.6 C 4.97 g/m*3 1.6 C 1.6 km/h
2912 10-12-2020 02:35:00 1.6 C 4.97 g/m*3 1.6 C 0 km/h
2913 10-12-2020 02:40:00 1.6 C 4.97 g/m*3 1.6 C 0 km/h
2914 10-12-2020 02:45:00 1.6 C 4.97 g/m*3 1.6 C 0 km/h
2915 10-12-2020 02:50:00 1.6 C 4.97 g/m*3 1.6 C 0 km/h
2916 10-12-2020 02:55:00 1.6 C 4.97 g/m*3 1.6 C 0 km/h
2917 10-12-2020 03:00:00 1.6 C 4.97 g/m*3 1.6 C 0 km/h
2918 10-12-2020 03:05:00 1.6 C 4.97 g/m*3 1.6 C 0 km/h
2919 10-12-2020 03:10:00 1.6 C 4.97 g/m*3 -0.33 C 6.4 km/h
2920 10-12-2020 03:15:00 1.6 C 4.97 g/m*3 1.6 C 1.6 km/h
2921 10-12-2020 03:20:00 1.6 C 4.97 g/m*3 1.6 C 3.2 km/h
2922 10-12-2020 03:25:00 1.6 C 4.92 g/m*3 1.6 C 4.8 km/h
2923 10-12-2020 03:30:00 1.6 C 4.92 g/m*3 1.6 C 0 km/h
2924 10-12-2020 03:35:00 1.6 C 4.92 g/m*3 1.6 C 0 km/h
2925 10-12-2020 03:40:00 1.6 C 4.92 g/m*3 1.6 C 0 km/h
Sensor: Nr:Datum:Temp:Abs-Feuchte:Windchill:Wind:
Aussen-T/F 2926 10-12-2020 03:45:00 1.6 C 4.92 g/m*3 1.6 C 0 km/h
2927 10-12-2020 03:50:00 1.6 C 4.92 g/m*3 1.6 C 0 km/h
2928 10-12-2020 03:55:00 1.5 C 4.89 g/m*3 1.5 C 0 km/h
2929 10-12-2020 04:00:00 1.4 C 4.85 g/m*3 1.4 C 0 km/h
2930 10-12-2020 04:05:00 1.3 C 4.82 g/m*3 1.3 C 1.6 km/h
2931 10-12-2020 04:10:00 1.2 C 4.79 g/m*3 1.2 C 0 km/h
2932 10-12-2020 04:15:00 1.1 C 4.76 g/m*3 1.1 C 0 km/h
2933 10-12-2020 04:20:00 0.9 C 4.69 g/m*3 0.9 C 0 km/h
2934 10-12-2020 04:25:00 0.9 C 4.69 g/m*3 0.9 C 0 km/h
2935 10-12-2020 04:30:00 0.8 C 4.66 g/m*3 0.8 C 0 km/h
2936 10-12-2020 04:35:00 0.7 C 4.63 g/m*3 0.7 C 1.6 km/h
2937 10-12-2020 04:40:00 0.6 C 4.6 g/m*3 0.6 C 3.2 km/h
2938 10-12-2020 04:45:00 0.4 C 4.53 g/m*3 0.4 C 1.6 km/h
2939 10-12-2020 04:50:00 0.3 C 4.55 g/m*3 0.3 C 1.6 km/h
2940 10-12-2020 04:55:00 0.2 C 4.52 g/m*3 0.2 C 4.8 km/h
2941 10-12-2020 05:00:00 0.1 C 4.49 g/m*3 0.1 C 3.2 km/h
2942 10-12-2020 05:05:00 0 C 4.46 g/m*3 0 C 0 km/h
2943 10-12-2020 05:10:00 -0.1 C 4.43 g/m*3 -0.1 C 0 km/h
2944 10-12-2020 05:15:00 -0.1 C 4.43 g/m*3 -0.1 C 0 km/h
2945 10-12-2020 05:20:00 -0.2 C 4.4 g/m*3 -0.2 C 0 km/h
2946 10-12-2020 05:25:00 -0.3 C 4.41 g/m*3 -0.3 C 0 km/h
2947 10-12-2020 05:30:00 -0.4 C 4.38 g/m*3 -0.4 C 0 km/h
2948 10-12-2020 05:35:00 -0.4 C 4.38 g/m*3 -0.4 C 0 km/h
2949 10-12-2020 05:40:00 -0.4 C 4.38 g/m*3 -0.4 C 0 km/h
2950 10-12-2020 05:45:00 -0.5 C 4.35 g/m*3 -0.5 C 0 km/h
Sensor: Nr:Datum:Temp:Abs-Feuchte:Windchill:Wind:
Aussen-T/F 2951 10-12-2020 05:50:00 -0.6 C 4.32 g/m*3 -0.6 C 0 km/h
2952 10-12-2020 05:55:00 -0.7 C 4.29 g/m*3 -0.7 C 0 km/h
2953 10-12-2020 06:00:00 -0.7 C 4.29 g/m*3 -0.7 C 0 km/h
2954 10-12-2020 06:05:00 -0.7 C 4.29 g/m*3 -0.7 C 0 km/h
2955 10-12-2020 06:10:00 -0.8 C 4.31 g/m*3 -0.8 C 0 km/h
2956 10-12-2020 06:15:00 -0.8 C 4.26 g/m*3 -0.8 C 0 km/h
2957 10-12-2020 06:20:00 -0.8 C 4.31 g/m*3 -0.8 C 0 km/h
2958 10-12-2020 06:25:00 -0.8 C 4.31 g/m*3 -0.8 C 0 km/h
2959 10-12-2020 06:30:00 -0.9 C 4.28 g/m*3 -0.9 C 0 km/h
2960 10-12-2020 06:35:00 -0.9 C 4.28 g/m*3 -0.9 C 0 km/h
2961 10-12-2020 06:40:00 -0.9 C 4.28 g/m*3 -0.9 C 0 km/h
2962 10-12-2020 06:45:00 -1 C 4.25 g/m*3 -1 C 0 km/h
2963 10-12-2020 06:50:00 -1.1 C 4.22 g/m*3 -1.1 C 0 km/h
2964 10-12-2020 06:55:00 -1.1 C 4.22 g/m*3 -1.1 C 0 km/h
2965 10-12-2020 07:00:00 -1.1 C 4.22 g/m*3 -1.1 C 0 km/h
2966 10-12-2020 07:05:00 -1.2 C 4.19 g/m*3 -1.2 C 0 km/h
2967 10-12-2020 07:10:00 -1.2 C 4.19 g/m*3 -1.2 C 0 km/h
2968 10-12-2020 07:15:00 -1.2 C 4.19 g/m*3 -1.2 C 0 km/h
2969 10-12-2020 07:20:00 -1.3 C 4.16 g/m*3 -1.3 C 0 km/h
2970 10-12-2020 07:25:00 -1.4 C 4.13 g/m*3 -1.4 C 0 km/h
2971 10-12-2020 07:30:00 -1.4 C 4.13 g/m*3 -1.4 C 0 km/h
2972 10-12-2020 07:35:00 -1.5 C 4.1 g/m*3 -1.5 C 0 km/h
2973 10-12-2020 07:40:00 -1.5 C 4.1 g/m*3 -1.5 C 0 km/h
2974 10-12-2020 07:45:00 -1.5 C 4.1 g/m*3 -1.5 C 0 km/h
2975 10-12-2020 07:50:00 -1.6 C 4.07 g/m*3 -1.6 C 0 km/h
Sensor: Nr:Datum:Temp:Abs-Feuchte:Windchill:Wind:
Aussen-T/F 2976 10-12-2020 07:55:00 -1.6 C 4.07 g/m*3 -1.6 C 0 km/h
2977 10-12-2020 08:00:00 -1.6 C 4.12 g/m*3 -1.6 C 0 km/h
2978 10-12-2020 08:05:00 -1.6 C 4.12 g/m*3 -1.6 C 0 km/h
2979 10-12-2020 08:10:00 -1.7 C 4.09 g/m*3 -1.7 C 0 km/h
2980 10-12-2020 08:15:00 -1.7 C 4.05 g/m*3 -1.7 C 0 km/h
2981 10-12-2020 08:20:00 -1.8 C 4.02 g/m*3 -1.8 C 0 km/h
2982 10-12-2020 08:25:00 -1.8 C 4.02 g/m*3 -1.8 C 0 km/h
2983 10-12-2020 08:30:00 -1.8 C 4.06 g/m*3 -1.8 C 0 km/h
2984 10-12-2020 08:35:00 -1.8 C 4.06 g/m*3 -1.8 C 0 km/h
2985 10-12-2020 08:40:00 -1.9 C 4.03 g/m*3 -1.9 C 0 km/h
2986 10-12-2020 08:45:00 -1.9 C 4.03 g/m*3 -1.9 C 0 km/h
2987 10-12-2020 08:50:00 -1.9 C 4.03 g/m*3 -1.9 C 0 km/h
2988 10-12-2020 08:55:00 -1.9 C 4.03 g/m*3 -1.9 C 0 km/h
2989 10-12-2020 09:00:00 -1.9 C 4.03 g/m*3 -1.9 C 0 km/h
2990 10-12-2020 09:05:00 -1.9 C 4.03 g/m*3 -1.9 C 0 km/h
2991 10-12-2020 09:10:00 -1.9 C 4.03 g/m*3 -1.9 C 0 km/h
2992 10-12-2020 09:15:00 -1.9 C 4.03 g/m*3 -1.9 C 0 km/h
2993 10-12-2020 09:20:00 -1.9 C 4.03 g/m*3 -1.9 C 0 km/h
2994 10-12-2020 09:25:00 -1.9 C 4.03 g/m*3 -1.9 C 0 km/h
2995 10-12-2020 09:30:00 -1.9 C 4.03 g/m*3 -1.9 C 0 km/h
2996 10-12-2020 09:35:00 -1.8 C 4.06 g/m*3 -1.8 C 0 km/h
2997 10-12-2020 09:40:00 -1.8 C 4.06 g/m*3 -1.8 C 0 km/h
2998 10-12-2020 09:45:00 -1.8 C 4.06 g/m*3 -1.8 C 0 km/h
2999 10-12-2020 09:50:00 -1.8 C 4.06 g/m*3 -1.8 C 0 km/h
3000 10-12-2020 09:55:00 -1.7 C 4.09 g/m*3 -1.7 C 0 km/h
Sensor: Nr:Datum:Temp:Abs-Feuchte:Windchill:Wind:
Aussen-T/F 3001 10-12-2020 10:00:00 -1.7 C 4.09 g/m*3 -1.7 C 0 km/h
3002 10-12-2020 10:05:00 -1.6 C 4.16 g/m*3 -1.6 C 0 km/h
3003 10-12-2020 10:10:00 -1.6 C 4.16 g/m*3 -1.6 C 0 km/h
3004 10-12-2020 10:15:00 -1.5 C 4.19 g/m*3 -1.5 C 0 km/h
3005 10-12-2020 10:20:00 -1.4 C 4.22 g/m*3 -1.4 C 0 km/h
3006 10-12-2020 10:25:00 -1.4 C 4.22 g/m*3 -1.4 C 0 km/h
3007 10-12-2020 10:30:00 -1.3 C 4.25 g/m*3 -1.3 C 0 km/h
3008 10-12-2020 10:35:00 -1.3 C 4.25 g/m*3 -1.3 C 0 km/h
3009 10-12-2020 10:40:00 -1.3 C 4.25 g/m*3 -1.3 C 0 km/h
3010 10-12-2020 10:45:00 -1.3 C 4.25 g/m*3 -1.3 C 0 km/h
3011 10-12-2020 10:50:00 -1.2 C 4.28 g/m*3 -1.2 C 0 km/h
3012 10-12-2020 10:55:00 -1.1 C 4.31 g/m*3 -1.1 C 0 km/h
3013 10-12-2020 11:00:00 -0.9 C 4.37 g/m*3 -0.9 C 1.6 km/h
3014 10-12-2020 11:05:00 -0.8 C 4.4 g/m*3 -0.8 C 3.2 km/h
3015 10-12-2020 11:10:00 -0.7 C 4.43 g/m*3 -0.7 C 3.2 km/h
3016 10-12-2020 11:15:00 -0.6 C 4.46 g/m*3 -0.6 C 3.2 km/h
3017 10-12-2020 11:20:00 -0.6 C 4.46 g/m*3 -0.6 C 3.2 km/h
3018 10-12-2020 11:25:00 -0.5 C 4.49 g/m*3 -0.5 C 1.6 km/h
3019 10-12-2020 11:30:00 -0.4 C 4.52 g/m*3 -0.4 C 1.6 km/h
3020 10-12-2020 11:35:00 -0.4 C 4.52 g/m*3 -0.4 C 1.6 km/h
3021 10-12-2020 11:40:00 -0.4 C 4.52 g/m*3 -0.4 C 1.6 km/h
3022 10-12-2020 11:45:00 -0.3 C 4.56 g/m*3 -0.3 C 3.2 km/h
3023 10-12-2020 11:50:00 -0.3 C 4.56 g/m*3 -0.3 C 3.2 km/h
3024 10-12-2020 11:55:00 -0.2 C 4.59 g/m*3 -0.2 C 1.6 km/h
3025 10-12-2020 12:00:00 -0.2 C 4.59 g/m*3 -0.2 C 0 km/h
Sensor: Nr:Datum:Temp:Abs-Feuchte:Windchill:Wind:
Aussen-T/F 3026 10-12-2020 12:05:00 -0.1 C 4.62 g/m*3 -0.1 C 3.2 km/h
3027 10-12-2020 12:10:00 0 C 4.65 g/m*3 0 C 1.6 km/h
3028 10-12-2020 12:15:00 0.1 C 4.68 g/m*3 0.1 C 3.2 km/h
3029 10-12-2020 12:20:00 0.1 C 4.68 g/m*3 0.1 C 0 km/h
3030 10-12-2020 12:25:00 0.1 C 4.68 g/m*3 0.1 C 4.8 km/h
3031 10-12-2020 12:30:00 0.1 C 4.68 g/m*3 0.1 C 0 km/h
3032 10-12-2020 12:35:00 0.1 C 4.68 g/m*3 0.1 C 0 km/h
3033 10-12-2020 12:40:00 0.1 C 4.68 g/m*3 0.1 C 0 km/h
3034 10-12-2020 12:45:00 0.1 C 4.68 g/m*3 0.1 C 0 km/h
3035 10-12-2020 12:50:00 0.1 C 4.68 g/m*3 0.1 C 0 km/h
3036 10-12-2020 12:55:00 0.1 C 4.68 g/m*3 0.1 C 0 km/h
3037 10-12-2020 13:00:00 0.1 C 4.68 g/m*3 0.1 C 0 km/h
3038 10-12-2020 13:05:00 0.1 C 4.68 g/m*3 0.1 C 0 km/h
3039 10-12-2020 13:10:00 0.2 C 4.72 g/m*3 0.2 C 0 km/h
3040 10-12-2020 13:15:00 0.2 C 4.72 g/m*3 0.2 C 1.6 km/h
3041 10-12-2020 13:20:00 0.3 C 4.75 g/m*3 0.3 C 0 km/h
3042 10-12-2020 13:25:00 0.3 C 4.75 g/m*3 0.3 C 0 km/h
3043 10-12-2020 13:30:00 0.4 C 4.78 g/m*3 0.4 C 0 km/h
3044 10-12-2020 13:35:00 0.6 C 4.9 g/m*3 0.6 C 0 km/h
3045 10-12-2020 13:40:00 0.7 C 4.93 g/m*3 0.7 C 0 km/h
3046 10-12-2020 13:45:00 0.8 C 4.97 g/m*3 0.8 C 1.6 km/h
3047 10-12-2020 13:50:00 0.9 C 5 g/m*3 0.9 C 0 km/h
3048 10-12-2020 13:55:00 1 C 5.03 g/m*3 1 C 0 km/h
3049 10-12-2020 14:00:00 1.1 C 5.02 g/m*3 1.1 C 0 km/h
3050 10-12-2020 14:05:00 1.1 C 5.02 g/m*3 1.1 C 0 km/h
Sensor: Nr:Datum:Temp:Abs-Feuchte:Windchill:Wind:
Aussen-T/F 3051 10-12-2020 14:10:00 1.2 C 5.1 g/m*3 1.2 C 0 km/h
3052 10-12-2020 14:15:00 1.2 C 5.05 g/m*3 1.2 C 0 km/h
3053 10-12-2020 14:20:00 1.2 C 5.05 g/m*3 1.2 C 0 km/h
3054 10-12-2020 14:25:00 1.2 C 5.05 g/m*3 1.2 C 3.2 km/h
3055 10-12-2020 14:30:00 1.2 C 5.05 g/m*3 1.2 C 0 km/h
3056 10-12-2020 14:35:00 1.2 C 5.05 g/m*3 1.2 C 0 km/h
3057 10-12-2020 14:40:00 1.2 C 5.05 g/m*3 1.2 C 0 km/h
3058 10-12-2020 14:45:00 1.2 C 5.05 g/m*3 1.2 C 0 km/h
3059 10-12-2020 14:50:00 1.2 C 5.05 g/m*3 1.2 C 3.2 km/h
3060 10-12-2020 14:55:00 1.1 C 5.02 g/m*3 1.1 C 3.2 km/h
3061 10-12-2020 15:00:00 1.1 C 4.96 g/m*3 1.1 C 0 km/h
3062 10-12-2020 15:05:00 1.1 C 4.96 g/m*3 1.1 C 0 km/h
3063 10-12-2020 15:10:00 1 C 4.93 g/m*3 1 C 1.6 km/h
3064 10-12-2020 15:15:00 1.1 C 4.96 g/m*3 1.1 C 0 km/h
3065 10-12-2020 15:20:00 1.1 C 4.96 g/m*3 1.1 C 0 km/h
3066 10-12-2020 15:25:00 1.1 C 4.91 g/m*3 1.1 C 4.8 km/h
3067 10-12-2020 15:30:00 1.1 C 4.91 g/m*3 1.1 C 3.2 km/h
3068 10-12-2020 15:35:00 1.1 C 4.91 g/m*3 1.1 C 0 km/h
3069 10-12-2020 15:40:00 1.1 C 4.86 g/m*3 1.1 C 1.6 km/h
3070 10-12-2020 15:45:00 1.1 C 4.81 g/m*3 1.1 C 3.2 km/h
3071 10-12-2020 15:50:00 1.1 C 4.81 g/m*3 1.1 C 0 km/h
3072 10-12-2020 15:55:00 1.2 C 4.84 g/m*3 1.2 C 3.2 km/h
3073 10-12-2020 16:00:00 1.2 C 4.84 g/m*3 1.2 C 0 km/h
3074 10-12-2020 16:05:00 1.2 C 4.84 g/m*3 1.2 C 0 km/h
3075 10-12-2020 16:10:00 1.2 C 4.89 g/m*3 1.2 C 1.6 km/h
Sensor: Nr:Datum:Temp:Abs-Feuchte:Windchill:Wind:
Aussen-T/F 3076 10-12-2020 16:15:00 1.2 C 4.84 g/m*3 1.2 C 0 km/h
3077 10-12-2020 16:20:00 1.2 C 4.89 g/m*3 1.2 C 0 km/h
3078 10-12-2020 16:25:00 1.2 C 4.89 g/m*3 1.2 C 0 km/h
3079 10-12-2020 16:30:00 1.2 C 4.84 g/m*3 1.2 C 0 km/h
3080 10-12-2020 16:35:00 1.2 C 4.84 g/m*3 1.2 C 0 km/h
3081 10-12-2020 16:40:00 1.2 C 4.84 g/m*3 1.2 C 0 km/h
3082 10-12-2020 16:45:00 1.1 C 4.81 g/m*3 1.1 C 0 km/h
3083 10-12-2020 16:50:00 1.1 C 4.76 g/m*3 1.1 C 1.6 km/h
3084 10-12-2020 16:55:00 1.1 C 4.76 g/m*3 1.1 C 0 km/h
3085 10-12-2020 17:00:00 1.1 C 4.81 g/m*3 1.1 C 0 km/h
3086 10-12-2020 17:05:00 1 C 4.78 g/m*3 1 C 0 km/h
3087 10-12-2020 17:10:00 0.9 C 4.69 g/m*3 0.9 C 0 km/h
3088 10-12-2020 17:15:00 0.9 C 4.74 g/m*3 0.9 C 0 km/h
3089 10-12-2020 17:20:00 0.9 C 4.74 g/m*3 0.9 C 0 km/h
3090 10-12-2020 17:25:00 0.9 C 4.74 g/m*3 0.9 C 0 km/h
3091 10-12-2020 17:30:00 0.9 C 4.74 g/m*3 0.9 C 0 km/h
3092 10-12-2020 17:35:00 0.9 C 4.74 g/m*3 0.9 C 0 km/h
3093 10-12-2020 17:40:00 0.9 C 4.74 g/m*3 0.9 C 0 km/h
3094 10-12-2020 17:45:00 0.9 C 4.74 g/m*3 0.9 C 0 km/h
3095 10-12-2020 17:50:00 0.9 C 4.69 g/m*3 0.9 C 0 km/h
3096 10-12-2020 17:55:00 0.9 C 4.69 g/m*3 0.9 C 0 km/h
3097 10-12-2020 18:00:00 0.8 C 4.71 g/m*3 0.8 C 0 km/h
3098 10-12-2020 18:05:00 0.8 C 4.66 g/m*3 0.8 C 0 km/h
3099 10-12-2020 18:10:00 0.8 C 4.66 g/m*3 0.8 C 0 km/h
3100 10-12-2020 18:15:00 0.8 C 4.66 g/m*3 0.8 C 0 km/h
Sensor: Nr:Datum:Temp:Abs-Feuchte:Windchill:Wind:
Aussen-T/F 3101 10-12-2020 18:20:00 0.8 C 4.66 g/m*3 0.8 C 0 km/h
3102 10-12-2020 18:25:00 0.7 C 4.68 g/m*3 0.7 C 0 km/h
3103 10-12-2020 18:30:00 0.7 C 4.68 g/m*3 0.7 C 0 km/h
3104 10-12-2020 18:35:00 0.7 C 4.68 g/m*3 0.7 C 0 km/h
3105 10-12-2020 18:40:00 0.7 C 4.68 g/m*3 0.7 C 0 km/h
3106 10-12-2020 18:45:00 0.7 C 4.68 g/m*3 0.7 C 0 km/h
3107 10-12-2020 18:50:00 0.7 C 4.68 g/m*3 0.7 C 0 km/h
3108 10-12-2020 18:55:00 0.7 C 4.68 g/m*3 0.7 C 0 km/h
3109 10-12-2020 19:00:00 0.7 C 4.68 g/m*3 0.7 C 0 km/h
3110 10-12-2020 19:05:00 0.6 C 4.65 g/m*3 0.6 C 0 km/h
3111 10-12-2020 19:10:00 0.6 C 4.65 g/m*3 0.6 C 0 km/h
3112 10-12-2020 19:15:00 0.6 C 4.65 g/m*3 0.6 C 0 km/h
3113 10-12-2020 19:20:00 0.6 C 4.65 g/m*3 0.6 C 0 km/h
3114 10-12-2020 19:25:00 0.6 C 4.65 g/m*3 0.6 C 0 km/h
3115 10-12-2020 19:30:00 0.6 C 4.65 g/m*3 0.6 C 0 km/h
3116 10-12-2020 19:35:00 0.6 C 4.65 g/m*3 0.6 C 0 km/h
3117 10-12-2020 19:40:00 0.6 C 4.7 g/m*3 0.6 C 0 km/h
3118 10-12-2020 19:45:00 0.7 C 4.73 g/m*3 0.7 C 0 km/h
3119 10-12-2020 19:50:00 0.7 C 4.73 g/m*3 0.7 C 0 km/h
3120 10-12-2020 19:55:00 0.7 C 4.73 g/m*3 0.7 C 0 km/h
3121 10-12-2020 20:00:00 0.7 C 4.73 g/m*3 0.7 C 0 km/h
3122 10-12-2020 20:05:00 0.7 C 4.73 g/m*3 0.7 C 0 km/h
3123 10-12-2020 20:10:00 0.8 C 4.76 g/m*3 0.8 C 0 km/h
3124 10-12-2020 20:15:00 0.8 C 4.76 g/m*3 0.8 C 0 km/h
3125 10-12-2020 20:20:00 0.8 C 4.76 g/m*3 0.8 C 0 km/h
Sensor: Nr:Datum:Temp:Abs-Feuchte:Windchill:Wind:
Aussen-T/F 3126 10-12-2020 20:25:00 0.8 C 4.76 g/m*3 0.8 C 0 km/h
3127 10-12-2020 20:30:00 0.8 C 4.76 g/m*3 0.8 C 0 km/h
3128 10-12-2020 20:35:00 0.8 C 4.76 g/m*3 0.8 C 0 km/h
3129 10-12-2020 20:40:00 0.9 C 4.79 g/m*3 0.9 C 0 km/h
3130 10-12-2020 20:45:00 0.9 C 4.79 g/m*3 0.9 C 0 km/h
3131 10-12-2020 20:50:00 0.9 C 4.79 g/m*3 0.9 C 0 km/h
3132 10-12-2020 20:55:00 0.9 C 4.79 g/m*3 0.9 C 0 km/h
3133 10-12-2020 21:00:00 0.9 C 4.79 g/m*3 0.9 C 0 km/h
3134 10-12-2020 21:05:00 0.9 C 4.79 g/m*3 0.9 C 0 km/h
3135 10-12-2020 21:10:00 0.9 C 4.79 g/m*3 0.9 C 0 km/h
3136 10-12-2020 21:15:00 0.9 C 4.79 g/m*3 0.9 C 0 km/h
3137 10-12-2020 21:20:00 0.9 C 4.79 g/m*3 0.9 C 3.2 km/h
3138 10-12-2020 21:25:00 1 C 4.83 g/m*3 1 C 0 km/h
3139 10-12-2020 21:30:00 1 C 4.83 g/m*3 1 C 0 km/h
3140 10-12-2020 21:35:00 1 C 4.83 g/m*3 1 C 0 km/h
3141 10-12-2020 21:40:00 1.1 C 4.86 g/m*3 1.1 C 0 km/h
3142 10-12-2020 21:45:00 1.1 C 4.86 g/m*3 1.1 C 0 km/h
3143 10-12-2020 21:50:00 1.1 C 4.86 g/m*3 1.1 C 0 km/h
3144 10-12-2020 21:55:00 1.1 C 4.86 g/m*3 1.1 C 0 km/h
3145 10-12-2020 22:00:00 1.1 C 4.86 g/m*3 1.1 C 0 km/h
3146 10-12-2020 22:05:00 1.1 C 4.86 g/m*3 1.1 C 0 km/h
3147 10-12-2020 22:10:00 1.1 C 4.86 g/m*3 1.1 C 0 km/h
3148 10-12-2020 22:15:00 1.2 C 4.89 g/m*3 1.2 C 0 km/h
3149 10-12-2020 22:20:00 1.2 C 4.89 g/m*3 1.2 C 0 km/h
3150 10-12-2020 22:25:00 1.2 C 4.89 g/m*3 1.2 C 0 km/h
Sensor: Nr:Datum:Temp:Abs-Feuchte:Windchill:Wind:
Aussen-T/F 3151 10-12-2020 22:30:00 1.2 C 4.89 g/m*3 1.2 C 0 km/h
3152 10-12-2020 22:35:00 1.2 C 4.89 g/m*3 1.2 C 0 km/h
3153 10-12-2020 22:40:00 1.2 C 4.89 g/m*3 1.2 C 0 km/h
3154 10-12-2020 22:45:00 1.2 C 4.89 g/m*3 1.2 C 1.6 km/h
3155 10-12-2020 22:50:00 1.2 C 4.89 g/m*3 1.2 C 0 km/h
3156 10-12-2020 22:55:00 1.2 C 4.89 g/m*3 1.2 C 0 km/h
3157 10-12-2020 23:00:00 1.2 C 4.89 g/m*3 1.2 C 0 km/h
3158 10-12-2020 23:05:00 1.2 C 4.89 g/m*3 1.2 C 0 km/h
3159 10-12-2020 23:10:00 1.2 C 4.89 g/m*3 1.2 C 1.6 km/h
3160 10-12-2020 23:15:00 1.2 C 4.89 g/m*3 1.2 C 0 km/h
3161 10-12-2020 23:20:00 1.2 C 4.84 g/m*3 1.2 C 0 km/h
3162 10-12-2020 23:25:00 1.2 C 4.84 g/m*3 1.2 C 0 km/h
3163 10-12-2020 23:30:00 1.2 C 4.84 g/m*3 1.2 C 0 km/h
3164 10-12-2020 23:35:00 1.2 C 4.84 g/m*3 1.2 C 1.6 km/h
3165 10-12-2020 23:40:00 1.3 C 4.87 g/m*3 1.3 C 4.8 km/h
3166 10-12-2020 23:45:00 1.3 C 4.87 g/m*3 1.3 C 1.6 km/h
3167 10-12-2020 23:50:00 1.3 C 4.87 g/m*3 1.3 C 0 km/h
3168 10-12-2020 23:55:00 1.3 C 4.87 g/m*3 1.3 C 0 km/h
3169 11-12-2020 00:00:00 1.3 C 4.87 g/m*3 1.3 C 0 km/h
3170 11-12-2020 00:05:00 1.4 C 4.91 g/m*3 1.4 C 0 km/h
3171 11-12-2020 00:10:00 1.4 C 4.91 g/m*3 1.4 C 0 km/h
3172 11-12-2020 00:15:00 1.4 C 4.91 g/m*3 1.4 C 0 km/h
3173 11-12-2020 00:20:00 1.4 C 4.91 g/m*3 1.4 C 0 km/h
3174 11-12-2020 00:25:00 1.4 C 4.91 g/m*3 1.4 C 0 km/h
3175 11-12-2020 00:30:00 1.4 C 4.91 g/m*3 1.4 C 0 km/h
Sensor: Nr:Datum:Temp:Abs-Feuchte:Windchill:Wind:
Aussen-T/F 3176 11-12-2020 00:35:00 1.4 C 4.91 g/m*3 1.4 C 0 km/h
3177 11-12-2020 00:40:00 1.4 C 4.91 g/m*3 1.4 C 1.6 km/h
3178 11-12-2020 00:45:00 1.4 C 4.91 g/m*3 1.4 C 1.6 km/h
3179 11-12-2020 00:50:00 1.4 C 4.91 g/m*3 1.4 C 0 km/h
3180 11-12-2020 00:55:00 1.4 C 4.91 g/m*3 1.4 C 0 km/h
3181 11-12-2020 01:00:00 1.4 C 4.91 g/m*3 1.4 C 0 km/h
3182 11-12-2020 01:05:00 1.4 C 4.91 g/m*3 1.4 C 0 km/h
3183 11-12-2020 01:10:00 1.4 C 4.91 g/m*3 1.4 C 0 km/h
3184 11-12-2020 01:15:00 1.4 C 4.91 g/m*3 1.4 C 0 km/h
3185 11-12-2020 01:20:00 1.4 C 4.91 g/m*3 1.4 C 0 km/h
3186 11-12-2020 01:25:00 1.4 C 4.91 g/m*3 1.4 C 0 km/h
3187 11-12-2020 01:30:00 1.3 C 4.87 g/m*3 1.3 C 0 km/h
3188 11-12-2020 01:35:00 1.2 C 4.84 g/m*3 1.2 C 0 km/h
3189 11-12-2020 01:40:00 1.1 C 4.76 g/m*3 1.1 C 0 km/h
3190 11-12-2020 01:45:00 0.9 C 4.69 g/m*3 0.9 C 0 km/h
3191 11-12-2020 01:50:00 0.8 C 4.66 g/m*3 0.8 C 0 km/h
3192 11-12-2020 01:55:00 0.7 C 4.63 g/m*3 0.7 C 0 km/h
3193 11-12-2020 02:00:00 0.6 C 4.65 g/m*3 0.6 C 0 km/h
3194 11-12-2020 02:05:00 0.5 C 4.56 g/m*3 0.5 C 0 km/h
3195 11-12-2020 02:10:00 0.4 C 4.58 g/m*3 0.4 C 0 km/h
3196 11-12-2020 02:15:00 0.3 C 4.55 g/m*3 0.3 C 0 km/h
3197 11-12-2020 02:20:00 0.3 C 4.55 g/m*3 0.3 C 3.2 km/h
3198 11-12-2020 02:25:00 0.3 C 4.55 g/m*3 0.3 C 1.6 km/h
3199 11-12-2020 02:30:00 0.2 C 4.57 g/m*3 0.2 C 0 km/h
3200 11-12-2020 02:35:00 0.2 C 4.57 g/m*3 0.2 C 1.6 km/h
Sensor: Nr:Datum:Temp:Abs-Feuchte:Windchill:Wind:
Aussen-T/F 3201 11-12-2020 02:40:00 0.2 C 4.57 g/m*3 0.2 C 0 km/h
3202 11-12-2020 02:45:00 0.2 C 4.57 g/m*3 0.2 C 0 km/h
3203 11-12-2020 02:50:00 0.3 C 4.65 g/m*3 0.3 C 1.6 km/h
3204 11-12-2020 02:55:00 0.4 C 4.68 g/m*3 0.4 C 0 km/h
3205 11-12-2020 03:00:00 0.5 C 4.71 g/m*3 0.5 C 3.2 km/h
3206 11-12-2020 03:05:00 0.6 C 4.75 g/m*3 0.6 C 0 km/h
3207 11-12-2020 03:10:00 0.7 C 4.78 g/m*3 0.7 C 3.2 km/h
3208 11-12-2020 03:15:00 0.8 C 4.81 g/m*3 -2.28 C 9.7 km/h
3209 11-12-2020 03:20:00 1 C 4.88 g/m*3 1 C 3.2 km/h
3210 11-12-2020 03:25:00 1.1 C 4.86 g/m*3 1.1 C 0 km/h
3211 11-12-2020 03:30:00 1.1 C 4.86 g/m*3 1.1 C 1.6 km/h
3212 11-12-2020 03:35:00 1.1 C 4.86 g/m*3 1.1 C 1.6 km/h
3213 11-12-2020 03:40:00 1.1 C 4.86 g/m*3 1.1 C 1.6 km/h
3214 11-12-2020 03:45:00 1.1 C 4.86 g/m*3 1.1 C 0 km/h
3215 11-12-2020 03:50:00 1 C 4.83 g/m*3 1 C 3.2 km/h
3216 11-12-2020 03:55:00 1 C 4.83 g/m*3 1 C 3.2 km/h
3217 11-12-2020 04:00:00 1 C 4.83 g/m*3 1 C 0 km/h
3218 11-12-2020 04:05:00 0.9 C 4.79 g/m*3 0.9 C 0 km/h
3219 11-12-2020 04:10:00 0.9 C 4.74 g/m*3 0.9 C 0 km/h
3220 11-12-2020 04:15:00 0.8 C 4.71 g/m*3 0.8 C 0 km/h
3221 11-12-2020 04:20:00 0.7 C 4.68 g/m*3 0.7 C 3.2 km/h
3222 11-12-2020 04:25:00 0.6 C 4.65 g/m*3 0.6 C 0 km/h
3223 11-12-2020 04:30:00 0.6 C 4.7 g/m*3 0.6 C 0 km/h
3224 11-12-2020 04:35:00 0.5 C 4.61 g/m*3 0.5 C 3.2 km/h
3225 11-12-2020 04:40:00 0.4 C 4.63 g/m*3 0.4 C 1.6 km/h
Sensor: Nr:Datum:Temp:Abs-Feuchte:Windchill:Wind:
Aussen-T/F 3226 11-12-2020 04:45:00 0.5 C 4.66 g/m*3 0.5 C 0 km/h
3227 11-12-2020 04:50:00 0.5 C 4.66 g/m*3 0.5 C 3.2 km/h
3228 11-12-2020 04:55:00 0.5 C 4.66 g/m*3 0.5 C 3.2 km/h
3229 11-12-2020 05:00:00 0.5 C 4.66 g/m*3 0.5 C 3.2 km/h
3230 11-12-2020 05:05:00 0.4 C 4.63 g/m*3 0.4 C 3.2 km/h
3231 11-12-2020 05:10:00 0.3 C 4.6 g/m*3 0.3 C 0 km/h
3232 11-12-2020 05:15:00 0.3 C 4.6 g/m*3 0.3 C 0 km/h
3233 11-12-2020 05:20:00 0.2 C 4.57 g/m*3 0.2 C 0 km/h
3234 11-12-2020 05:25:00 0.2 C 4.57 g/m*3 0.2 C 0 km/h
3235 11-12-2020 05:30:00 0.1 C 4.54 g/m*3 0.1 C 3.2 km/h
3236 11-12-2020 05:35:00 0.1 C 4.54 g/m*3 0.1 C 1.6 km/h
3237 11-12-2020 05:40:00